[[{"header":{"parameterUnit":"m.s-1","parameterCategory":1,"la1":30.6,"la2":29.2853,"lo1":-89.7004,"lo2":-87.6739,"dy":0.0162,"dx":0.0183,"nx":112,"ny":82,"refTime":"2023-08-13T06:00:00:Z","depth":0,"parameterNumber":2,"parameterNumberName":"U-component_of_WINDS"},"data":[0.0,0.0,0.0,0.0,0.0,0.0,0.0,0.0,0.0,0.0,0.0,0.0,0.0,0.0,0.0,0.0,0.0,0.0,0.0,0.0,0.0,0.0,0.0,0.0,0.0,0.0,0.0,0.0,0.0,0.0,0.0,0.0,0.0,0.0,0.0,0.0,0.0,0.0,0.0,0.0,0.0,0.0,0.0,0.0,0.0,0.0,0.0,0.0,0.0,0.0,0.0,0.0,0.0,0.0,0.0,0.0,0.0,0.0,0.0,0.0,0.0,0.0,0.0,0.0,0.0,0.0,0.0,0.0,0.0,0.0,0.0,0.0,0.0,0.0,0.0,0.0,0.0,0.0,0.0,0.0,0.0,0.0,0.0,0.0,0.0,0.0,0.0,0.0,0.0,0.0,0.5463,0.563,0.6033,0.6257,0.6099,0.6022,0.5925,0.5673,0.0,0.0,0.0,0.0,0.0,0.0,0.0,0.0,0.0,0.0,0.0,0.0,0.0,0.0,0.0,0.0,0.0,0.0,0.0,0.0,0.0,0.0,0.0,0.0,0.0,0.0,0.0,0.0,0.0,0.0,0.0,0.0,0.0,0.0,0.0,0.0,0.0,0.0,0.0,0.0,0.0,0.0,0.0,0.0,0.0,0.0,0.0,0.0,0.0,0.0,0.0,0.0,0.0,0.0,0.0,0.0,0.0,0.0,0.0,0.0,0.0,0.0,0.0,0.0,0.0,0.0,0.0,0.0,0.0,0.0,0.0,0.0,0.0,0.0,0.0,0.0,0.0,0.0,0.0,0.0,0.0,0.0,0.0,0.0,0.0,0.0,0.0,0.0,0.0,0.0,0.0,0.0,0.0,0.0,0.0,0.0,0.0,0.0,0.0,0.0,0.0,0.0,0.0,0.0,0.5343,0.5914,0.6126,0.6261,0.6261,0.6099,0.5925,0.5811,0.0,0.0,0.0,0.0,0.0,0.0,0.0,0.0,0.0,0.0,0.0,0.0,0.0,0.0,0.0,0.0,0.0,0.0,0.0,0.0,0.0,0.0,0.0,0.0,0.0,0.0,0.0,0.0,0.0,0.0,0.0,0.0,0.0,0.0,0.0,0.0,0.0,0.0,0.0,0.0,0.0,0.0,0.0,0.0,0.0,0.0,0.0,0.0,0.0,0.0,0.0,0.0,0.0,0.0,0.0,0.0,0.0,0.0,0.0,0.0,0.0,0.0,0.0,0.0,0.0,0.0,0.0,0.0,0.0,0.0,0.0,0.0,0.0,0.0,0.0,0.0,0.0,0.0,0.0,0.0,0.0,0.0,0.0,0.0,0.0,0.0,0.0,0.0,0.0,0.0,0.0,0.0,0.0,0.0,0.0,0.0,0.0,0.0,0.0,0.0,0.0,0.0,0.0,0.54,0.5651,0.615,0.6261,0.6338,0.6338,0.6099,0.5969,0.5837,0.5695,0.0,0.0,0.0,0.0,0.0,0.0,0.0,0.0,0.0,0.0,0.0,0.0,0.0,0.0,0.0,0.0,0.0,0.0,0.0,0.0,0.0,0.0,0.0,0.0,0.0,0.0,0.0,0.0,0.0,0.0,0.0,0.0,0.0,0.0,0.0,0.0,0.0,0.0,0.0,0.0,0.0,0.0,0.0,0.0,0.0,0.0,0.0,0.0,0.0,0.0,0.0,0.0,0.0,0.0,0.0,0.0,0.0,0.0,0.0,0.0,0.0,0.0,0.0,0.0,0.0,0.0,0.0,0.0,0.0,0.0,0.0,0.0,0.0,0.0,0.0,0.0,0.0,0.0,0.0,0.0,0.0,0.0,0.0,0.0,0.0,0.0,0.0,0.0,0.0,0.0,0.0,0.0,0.0,0.0,0.0,0.0,0.0,0.0,0.0,0.0,0.0,0.0,0.5701,0.5893,0.6254,0.6338,0.6338,0.6338,0.6146,0.5979,0.5789,0.5658,0.0,0.0,0.0,0.0,0.0,0.0,0.0,0.0,0.0,0.0,0.0,0.0,0.0,0.0,0.0,0.0,0.0,0.0,0.0,0.0,0.0,0.0,0.0,0.0,0.0,0.0,0.0,0.0,0.0,0.0,0.0,0.0,0.0,0.0,0.0,0.0,0.0,0.0,0.0,0.0,0.0,0.0,0.0,0.0,0.0,0.0,0.0,0.0,0.0,0.0,0.0,0.0,0.0,0.0,0.0,0.0,0.0,0.0,0.0,0.0,0.0,0.0,0.0,0.0,0.0,0.0,0.0,0.0,0.0,0.0,0.0,0.0,0.0,0.0,0.0,0.0,0.0,0.0,0.0,0.0,0.0,0.0,0.0,0.0,0.0,0.0,0.0,0.0,0.0,0.0,0.0,0.0,0.0,0.0,0.0,0.0,0.0,0.0,0.0,0.0,0.0,0.0,0.5619,0.5901,0.624,0.6338,0.6338,0.6338,0.6129,0.5973,0.5803,0.5654,0.0,0.0,0.0,0.0,0.0,0.0,0.0,0.0,0.0,0.0,0.0,0.0,0.0,0.0,0.0,0.0,0.0,0.0,0.0,0.0,0.0,0.0,0.0,0.0,0.0,0.0,0.0,0.0,0.0,0.0,0.0,0.0,0.0,0.0,0.0,0.0,0.0,0.0,0.0,0.0,0.0,0.0,0.0,0.0,0.0,0.0,0.0,0.0,0.0,0.0,0.0,0.0,0.0,0.0,0.0,0.0,0.0,0.0,0.0,0.0,0.0,0.0,0.0,0.0,0.0,0.0,0.0,0.0,0.0,0.0,0.0,0.0,0.0,0.0,0.0,0.0,0.0,0.0,0.0,0.0,0.0,0.0,0.0,0.0,0.0,0.0,0.0,0.0,0.0,0.0,0.0,0.0,0.0,0.0,0.0,0.0,0.0,0.0,0.0,0.0,0.0,0.0,0.5734,0.5992,0.6244,0.6338,0.6338,0.6338,0.6204,0.605,0.5813,0.0,0.0,0.0,0.0,0.0,0.0,0.0,0.0,0.0,0.0,0.0,0.0,0.0,0.0,0.0,0.0,0.0,0.0,0.0,0.0,0.0,0.0,0.0,0.0,0.0,0.0,0.0,0.0,0.0,0.0,0.0,0.0,0.0,0.0,0.0,0.0,0.0,0.0,0.0,0.0,0.0,0.0,0.0,0.0,0.0,0.0,0.0,0.0,0.0,0.0,0.0,0.0,0.0,0.0,0.0,0.0,0.0,0.0,0.0,0.0,0.0,0.0,0.0,0.0,0.0,0.0,0.0,0.0,0.0,0.0,0.0,0.0,0.0,0.0,0.0,0.0,0.0,0.0,0.0,0.0,0.0,0.0,0.0,0.0,0.0,0.0,0.0,0.0,0.0,0.0,0.0,0.0,0.0,0.0,0.0,0.0,0.0,0.0,0.0,0.0,0.0,0.0,0.5578,0.5919,0.6146,0.6254,0.639,0.64,0.6278,0.6328,0.5939,0.5012,0.0,0.0,0.0,0.0,0.0,0.0,0.0,0.0,0.0,0.0,0.0,0.0,0.0,0.0,0.0,0.0,0.0,0.0,0.0,0.0,0.0,0.0,0.0,0.0,0.0,0.0,0.0,0.0,0.0,0.0,0.0,0.0,0.0,0.0,0.0,0.0,0.0,0.0,0.0,0.0,0.0,0.0,0.0,0.0,0.0,0.0,0.0,0.0,0.0,0.0,0.0,0.0,0.0,0.0,0.0,0.0,0.0,0.0,0.0,0.0,0.0,0.0,0.0,0.0,0.0,0.0,0.0,0.0,0.0,0.0,0.0,0.0,0.0,0.0,0.0,0.0,0.0,0.0,0.0,0.0,0.0,0.0,0.0,0.0,0.0,0.0,0.0,0.0,0.0,0.0,0.0,0.0,0.0,0.0,0.0,0.0,0.0,0.0,0.0,0.0,0.0,0.0,0.5576,0.5986,0.6271,0.6281,0.6496,0.6451,0.6308,0.6257,0.5406,0.0,0.0,0.0,0.0,0.0,0.0,0.0,0.0,0.0,0.0,0.0,0.0,0.0,0.0,0.0,0.0,0.0,0.0,0.0,0.0,0.0,0.0,0.0,0.0,0.0,0.0,0.0,0.0,0.0,0.0,0.0,0.0,0.0,0.0,0.0,0.0,0.0,0.0,0.0,0.0,0.0,0.0,0.0,0.0,0.0,0.0,0.0,0.0,0.0,0.0,0.0,0.0,0.0,0.0,0.0,0.0,0.0,0.0,0.0,0.0,0.0,0.0,0.0,0.0,0.0,0.0,0.0,0.0,0.0,0.0,0.0,0.0,0.0,0.0,0.0,0.0,0.0,0.0,0.0,0.0,0.0,0.0,0.0,0.0,0.0,0.0,0.0,0.0,0.0,0.0,0.0,0.0,0.0,0.0,0.0,0.0,0.0,0.0,0.0,0.0,0.0,0.0,0.0,0.5653,0.6063,0.6398,0.66,0.5143,0.4118,0.4012,0.5397,0.5561,0.3776,0.0,0.0,0.0,0.0,0.0,0.0,0.0,0.0,0.0,0.0,0.0,0.0,0.0,0.0,0.0,0.0,0.0,0.0,0.0,0.0,0.0,0.0,0.0,0.0,0.0,0.0,0.0,0.0,0.0,0.0,0.0,0.0,0.0,0.0,0.0,0.0,0.0,0.0,0.0,0.0,0.0,0.0,0.0,0.0,0.0,0.0,0.0,0.0,0.0,0.0,0.0,0.0,0.0,0.0,0.0,0.0,0.0,0.0,0.0,0.0,0.0,0.0,0.0,0.0,0.0,0.0,0.0,0.0,0.0,0.0,0.0,0.0,0.0,0.0,0.0,0.0,0.0,0.0,0.0,0.0,0.0,0.0,0.0,0.0,0.0,0.0,0.0,0.0,0.0,0.0,0.0,0.0,0.0,0.0,0.0,0.0,0.0,0.0,0.0,0.0,0.0,0.0,0.5706,0.5328,0.538,0.6405,0.5408,0.3934,0.2027,0.3045,0.4106,0.4809,0.0,0.0,0.0,0.0,0.0,0.0,0.0,0.0,0.0,0.0,0.0,0.0,0.0,0.0,0.0,0.0,0.0,0.0,0.0,0.0,0.0,0.0,0.0,0.0,0.0,0.0,0.0,0.0,0.0,0.0,0.0,0.0,0.0,0.0,0.0,0.0,0.0,0.0,0.0,0.0,0.0,0.0,0.0,0.0,0.0,0.0,0.0,0.0,0.0,0.0,0.0,0.0,0.0,0.0,0.0,0.0,0.0,0.0,0.0,0.0,0.0,0.0,0.0,0.0,0.0,0.0,0.0,0.0,0.0,0.0,0.0,0.0,0.0,0.0,0.0,0.0,0.0,0.0,0.0,0.0,0.0,0.0,0.0,0.0,0.0,0.0,0.0,0.0,0.0,0.0,0.0,0.0,0.0,0.0,0.0,0.0,0.0,0.0,0.0,0.0,0.0,0.0,0.5448,0.4272,0.3952,0.5515,0.6186,0.4851,0.0899,0.0229,0.1772,0.6009,0.0,0.0,0.0,0.0,0.0,0.0,0.0,0.0,0.0,0.0,0.0,0.0,0.0,0.0,0.0,0.0,0.0,0.0,0.0,0.0,0.0,0.0,0.0,0.0,0.0,0.0,0.0,0.0,0.0,0.0,0.0,0.0,0.0,0.0,0.0,0.0,0.0,0.0,0.0,0.0,0.0,0.0,0.0,0.0,0.0,0.0,0.0,0.0,0.0,0.0,0.0,0.0,0.0,0.0,0.0,0.0,0.0,0.0,0.0,0.0,0.9846,0.9863,0.0,0.0,0.0,0.0,0.0,0.0,0.0,0.0,0.0,0.0,0.0,0.0,0.0,0.0,0.0,0.0,0.0,0.0,0.0,0.0,0.0,0.0,0.0,0.0,0.0,0.0,0.0,0.0,0.0,0.0,0.0,0.0,0.0,0.0,0.0,0.0,0.0,0.0,0.0,0.0,0.3549,0.4697,0.4525,0.1677,0.1461,0.2436,0.4772,0.188,0.1728,0.5829,0.6211,0.0,0.0,0.0,0.0,0.0,0.0,0.0,0.0,0.0,0.0,0.0,0.0,0.0,0.0,0.0,0.0,0.0,0.0,0.0,0.0,0.0,0.0,0.0,0.0,0.0,0.0,0.0,0.0,0.0,0.0,0.0,0.0,0.0,0.0,0.0,0.0,0.0,0.0,0.0,0.0,0.0,0.0,0.0,0.0,0.0,0.0,0.0,0.0,0.0,0.0,0.0,0.0,0.0,0.0,0.0,0.0,0.0,0.0,0.0,0.9986,0.9715,0.0,0.0,0.0,0.0,0.0,0.0,0.0,0.0,0.0,0.0,0.0,0.0,0.0,0.0,0.0,0.0,0.0,0.0,0.0,0.0,0.0,0.0,0.0,0.0,0.0,0.0,0.0,0.0,0.0,0.0,0.0,0.0,0.0,0.0,0.0,0.0,0.0,0.0,0.0,0.0,0.3612,0.5363,0.4944,0.0447,-0.0,0.168,0.5913,0.4272,0.3955,0.6,0.6261,0.0,0.0,0.0,0.0,0.0,0.0,0.0,0.0,0.0,0.0,0.0,0.0,0.0,0.0,0.0,0.0,0.0,0.0,0.0,0.0,0.0,0.0,0.0,0.0,0.0,0.0,0.0,0.0,0.0,0.0,0.0,0.0,0.0,0.0,0.0,0.0,0.0,0.0,0.0,0.0,0.0,0.0,0.0,0.0,0.0,0.0,0.0,0.0,0.0,0.0,0.0,0.0,0.0,1.2733,1.2252,1.1111,1.1155,1.0611,0.9667,1.0135,0.9711,0.8633,0.8374,0.0,0.0,0.0,0.0,0.0,0.0,0.0,0.0,0.0,0.0,0.0,0.0,0.0,0.0,0.0,0.0,0.0,0.0,0.0,0.0,0.0,0.0,0.5976,0.6051,0.6013,0.5918,0.5776,0.0,0.0,0.0,0.0,0.0,0.0,0.0,0.0,0.0,0.0,0.0,0.4382,0.5879,0.5558,0.1696,0.086,0.2095,0.5993,0.6297,0.6332,0.6271,0.6315,0.6298,0.0,0.0,0.0,0.0,0.0,0.0,0.0,0.0,0.0,0.0,0.0,0.0,0.0,0.0,0.0,0.0,0.0,0.0,0.0,0.0,0.0,0.0,0.0,0.0,0.0,0.0,0.0,0.0,0.0,0.0,0.0,0.0,1.6393,1.4346,0.0,0.0,0.0,0.0,0.0,0.0,0.0,0.0,0.0,0.0,0.0,0.0,0.0,1.2719,1.3033,1.354,1.3112,1.1864,1.262,1.2126,1.0725,1.1005,1.0476,0.9325,0.9466,0.0,0.8597,0.7528,0.0,0.0,0.0,0.0,0.0,0.0,0.0,0.0,0.0,0.0,0.0,0.0,0.0,0.0,0.0,0.0,0.0,0.0,0.0,0.0,0.0,0.0,0.6522,0.6288,0.641,0.6539,0.639,0.6064,0.58,0.58,0.5786,0.5772,0.0,0.0,0.0,0.0,0.0,0.0,0.4656,0.6002,0.69,0.6192,0.4046,0.3771,0.6312,0.6368,0.6268,0.6264,0.6331,0.6328,0.6338,0.6338,0.0,0.0,0.0,0.0,0.0,0.0,0.0,0.0,0.0,0.0,0.0,0.0,0.0,0.0,0.0,0.0,0.0,0.0,0.0,0.0,0.0,0.0,0.0,0.0,0.0,0.0,0.0,0.0,0.0,1.5951,1.5138,1.3878,1.369,1.3154,0.0,0.0,0.0,0.0,0.0,0.0,0.0,0.0,0.0,1.324,1.3253,1.3474,1.3941,1.4202,1.3803,1.2644,1.313,1.2325,1.0354,1.0654,1.0006,0.875,0.875,0.8612,0.8273,0.7486,0.7126,0.7041,0.0,0.0,0.0,0.0,0.6922,0.6865,0.6973,0.6854,0.6647,0.6614,0.0,0.0,0.0,0.0,0.0,0.0,0.0,0.6491,0.6424,0.6675,0.6936,0.6895,0.6919,0.6953,0.6973,0.6753,0.6478,0.6227,0.6115,0.6034,0.5945,0.5928,0.0,0.0,0.0,0.6544,0.6061,0.6713,0.7218,0.7125,0.6057,0.5729,0.6593,0.6583,0.6489,0.6479,0.6397,0.6271,0.6271,0.6264,0.6338,0.0,0.0,0.0,0.0,0.0,0.0,0.0,0.0,0.0,0.0,0.0,0.0,0.0,0.0,0.0,0.0,0.0,0.0,0.0,0.0,0.0,0.0,0.0,0.0,0.0,0.0,0.0,0.0,1.4661,1.4381,1.3586,1.3549,1.3193,0.0,0.0,0.0,0.0,0.0,0.0,1.3621,1.3661,1.3861,1.4302,1.4315,1.4563,1.5077,1.5077,1.4444,1.3205,1.3397,1.2093,0.9733,0.9864,0.935,0.8326,0.8326,0.8238,0.8065,0.7655,0.7417,0.7309,0.7272,0.7258,0.7268,0.7343,0.7322,0.7285,0.7475,0.739,0.7177,0.7031,0.6881,0.6692,0.6315,0.0,0.0,0.0,0.0,0.6871,0.6871,0.7065,0.7288,0.7404,0.7343,0.7288,0.7404,0.7339,0.7136,0.6722,0.6559,0.6447,0.6332,0.6312,0.0,0.6468,0.6756,0.7048,0.7108,0.7295,0.7396,0.7132,0.7074,0.699,0.6857,0.6705,0.664,0.664,0.6524,0.6376,0.6386,0.638,0.6373,0.6373,0.0,0.0,0.0,0.0,0.0,0.0,0.0,0.0,0.0,0.0,0.0,0.0,0.0,0.0,0.0,0.0,0.0,0.0,0.0,0.0,0.0,0.0,0.0,0.0,0.0,0.0,0.0,0.0,0.0,1.3022,1.3748,0.0,0.0,0.0,0.0,1.3975,1.3734,1.3955,1.483,1.4877,1.5264,1.6112,1.6139,1.6286,1.6593,1.6593,1.5275,1.2649,1.2659,1.1236,0.8573,0.858,0.858,0.8472,0.8472,0.8391,0.8235,0.7919,0.7784,0.7763,0.7631,0.7577,0.756,0.7421,0.7458,0.7556,0.7428,0.7373,0.7404,0.7668,0.7658,0.7512,0.7343,0.7193,0.0,0.0,0.7207,0.7339,0.7339,0.7458,0.758,0.7587,0.7584,0.758,0.7587,0.7584,0.7482,0.717,0.7102,0.7092,0.7085,0.0,0.7088,0.7095,0.7363,0.7429,0.7126,0.7449,0.7518,0.7152,0.7078,0.7011,0.6943,0.6783,0.6692,0.6692,0.6681,0.6678,0.6678,0.6678,0.6678,0.6678,0.6678,0.0,0.0,0.0,0.0,0.0,0.0,0.0,0.0,0.0,0.0,0.0,0.0,0.0,0.0,0.0,0.0,0.0,0.0,0.0,0.0,0.0,0.0,0.0,0.0,0.0,0.0,0.0,0.0,1.4018,1.4763,0.0,1.4402,1.4436,1.4616,1.491,1.5003,1.5351,1.6052,1.6086,1.64,1.7094,1.5922,1.5355,1.5626,1.4526,1.3007,1.116,1.1294,1.0412,0.8632,0.873,0.8723,0.8628,0.8628,0.8547,0.8391,0.8191,0.8048,0.7953,0.7902,0.7882,0.7875,0.7821,0.7834,0.7875,0.7821,0.7736,0.7641,0.7556,0.7428,0.7295,0.7241,0.7255,0.7288,0.7288,0.7465,0.7655,0.7655,0.777,0.7882,0.7882,0.7882,0.7882,0.7882,0.7882,0.7851,0.774,0.7485,0.7171,0.6996,0.689,0.6926,0.7118,0.7214,0.7354,0.7488,0.6792,0.6514,0.7482,0.7439,0.7383,0.7227,0.7071,0.6905,0.6809,0.6705,0.662,0.6437,0.6603,0.6654,0.6556,0.6651,0.6702,0.0,0.0,0.0,0.0,0.0,0.0,0.0,0.0,0.0,0.0,0.0,0.0,0.0,0.0,0.0,0.0,0.0,0.0,0.0,0.0,0.0,0.0,0.0,0.0,0.0,1.4616,1.5077,1.4977,1.5651,1.5972,1.5591,1.5645,1.5825,1.6112,1.6313,1.6633,1.7134,1.7161,1.7382,1.7876,1.6647,1.5971,1.6051,1.4389,1.2795,1.1362,1.0967,1.007,0.8791,0.8893,0.8882,0.8788,0.8788,0.8699,0.8554,0.8459,0.8326,0.818,0.8079,0.8072,0.8116,0.8116,0.8147,0.8187,0.8187,0.8092,0.7933,0.774,0.757,0.7444,0.7444,0.7516,0.7597,0.7597,0.7736,0.7889,0.7889,0.7963,0.8038,0.8038,0.8038,0.8038,0.8038,0.8038,0.8038,0.8038,0.7801,0.7473,0.729,0.7181,0.7217,0.7419,0.7423,0.7321,0.7006,0.6516,0.6692,0.7631,0.764,0.7617,0.7461,0.7353,0.7193,0.7042,0.6932,0.682,0.658,0.6749,0.68,0.6698,0.6797,0.6827,0.6699,0.0,0.0,0.0,0.0,0.0,0.0,0.0,0.0,0.0,0.0,0.0,0.0,0.0,0.0,0.0,0.0,0.0,0.0,0.0,0.0,0.0,0.0,0.0,1.4576,1.5084,1.5565,1.5865,1.6406,1.676,1.676,1.7021,1.7308,1.7589,1.7609,1.7749,1.8056,1.8063,1.8203,1.851,1.8497,1.824,1.7968,1.6484,1.4909,1.3275,1.1764,1.0245,0.894,0.8944,0.8944,0.894,0.894,0.8855,0.8716,0.8713,0.8621,0.8462,0.8167,0.8143,0.8279,0.8279,0.8364,0.8482,0.8482,0.8391,0.8279,0.8279,0.8177,0.8055,0.8055,0.8055,0.8052,0.8048,0.8052,0.8052,0.8041,0.8041,0.8045,0.8045,0.8045,0.8048,0.8052,0.8052,0.8048,0.8052,0.8052,0.8045,0.8041,0.8041,0.8041,0.8041,0.8041,0.0,0.5722,0.6948,0.7915,0.7768,0.7751,0.7687,0.7621,0.76,0.7533,0.7373,0.7363,0.7292,0.7132,0.7136,0.7139,0.7139,0.7139,0.6991,0.6777,0.0,0.0,0.0,0.0,0.0,0.0,0.0,0.0,0.0,0.0,0.0,0.0,0.0,0.0,0.0,0.0,0.0,0.0,0.0,0.0,0.0,1.509,1.5545,1.5758,1.6299,1.6854,1.7355,1.7762,1.8003,1.8003,1.8076,1.8156,1.8237,1.8237,1.837,1.8671,1.8484,1.8604,1.9112,1.766,1.693,1.7047,1.4202,1.246,1.1966,1.042,0.9482,0.8944,0.9045,0.9035,0.894,0.894,0.8913,0.8866,0.8757,0.8686,0.8628,0.8435,0.8387,0.8425,0.8425,0.8448,0.8482,0.8482,0.8459,0.8425,0.8425,0.8394,0.836,0.836,0.836,0.834,0.8238,0.8282,0.8309,0.8096,0.8123,0.8208,0.8208,0.8208,0.8235,0.834,0.8279,0.8238,0.834,0.8275,0.8177,0.7982,0.7965,0.7965,0.7975,0.7975,0.7869,0.7356,0.7666,0.7952,0.7892,0.7888,0.7825,0.7767,0.7658,0.7485,0.7221,0.7204,0.7088,0.6831,0.7027,0.7139,0.7139,0.7139,0.7041,0.0,0.0,0.0,0.0,0.0,0.0,0.0,0.0,0.0,0.0,0.0,0.0,0.0,0.0,0.0,0.0,0.0,0.0,0.0,0.0,0.0,0.0,1.6005,1.6613,1.7288,1.7569,1.7883,1.8343,1.8557,1.8771,1.9011,1.8818,1.8771,1.9025,1.8931,1.8931,1.9098,1.8951,1.9011,1.9359,1.7613,1.6647,1.6568,1.3312,1.1684,1.1494,1.0038,0.9205,0.9127,0.9211,0.9167,0.9028,0.9028,0.8994,0.893,0.8842,0.8842,0.8869,0.0,0.0,0.0,0.0,0.8672,0.8672,0.8672,0.8632,0.8577,0.8577,0.8533,0.8482,0.8482,0.8482,0.8465,0.8381,0.8418,0.8442,0.8269,0.8292,0.836,0.836,0.836,0.8381,0.8465,0.8418,0.8384,0.8465,0.8414,0.0,0.8258,0.8245,0.8228,0.8174,0.8218,0.8208,0.7975,0.8116,0.8126,0.8048,0.8038,0.8004,0.7916,0.7773,0.0,0.0,0.0,0.7129,0.6895,0.7048,0.0,0.0,0.0,0.7248,0.7182,0.6192,0.0,0.0,0.6913,0.4561,0.0,0.0,0.0,0.0,0.0,0.0,0.0,0.0,0.0,0.0,0.0,0.0,0.0,0.0,0.0,0.0,1.6967,1.7742,1.8865,1.8858,1.8818,1.9045,1.9072,1.9265,1.9753,1.9359,1.9272,1.9766,1.9593,1.9466,1.9466,1.9466,0.0,0.0,0.0,1.7125,1.6863,1.3805,1.2078,1.1799,1.0207,0.9398,0.9381,0.9398,0.9323,0.9178,0.9161,0.9079,0.896,0.8947,0.9022,0.9113,0.8713,0.8642,0.8777,0.8913,0.8964,0.8964,0.8964,0.0,0.0,0.8737,0.8645,0.8533,0.8533,0.8533,0.853,0.8513,0.852,0.8526,0.8489,0.8496,0.8509,0.8509,0.8509,0.8513,0.853,0.852,0.8513,0.853,0.852,0.8513,0.853,0.8506,0.8438,0.8313,0.8401,0.8381,0.8102,0.8184,0.8211,0.8055,0.8038,0.0,0.8038,0.7899,0.7756,0.7631,0.7465,0.7319,0.7197,0.7156,0.7156,0.719,0.7312,0.739,0.7431,0.5132,0.4822,0.6292,0.6286,0.4,0.0,0.0,0.0,0.0,0.0,0.0,0.0,0.0,0.0,0.0,0.0,0.0,0.0,0.0,0.0,1.7488,1.819,1.8824,1.9533,1.9993,2.0187,2.0,1.998,1.9933,1.9813,1.9913,1.9927,1.9813,1.9967,2.0067,2.0067,2.0067,1.996,1.9726,1.947,1.909,1.8803,1.5522,1.3892,1.3852,1.0961,0.0,0.9384,0.951,0.9483,0.933,0.9208,0.9137,0.9103,0.8988,0.9022,0.9144,0.9059,0.9042,0.9072,0.91,0.9113,0.9113,0.9113,0.9015,0.8896,0.8896,0.8872,0.8852,0.8852,0.8852,0.0,0.8703,0.8754,0.8794,0.8547,0.8574,0.8665,0.8665,0.8665,0.8699,0.8825,0.8754,0.8703,0.8825,0.875,0.8706,0.8828,0.8645,0.8472,0.8445,0.8465,0.8421,0.8248,0.8252,0.8211,0.8055,0.8038,0.8038,0.8038,0.7899,0.7797,0.7773,0.7519,0.7414,0.7509,0.7272,0.7258,0.7506,0.7417,0.7441,0.7674,0.7111,0.5011,0.1416,0.1363,0.0889,0.0,0.0,0.0,0.0,0.0,0.0,0.0,0.0,0.0,0.0,0.0,1.6186,1.664,0.0,1.7716,1.8738,1.9158,1.9566,2.0154,2.0488,2.0568,2.0267,2.0368,2.0394,2.0254,2.0234,2.0234,2.0241,2.0234,2.0234,2.0234,2.0234,2.0167,2.002,1.9273,1.8286,1.7173,1.4769,1.2998,1.2073,1.0423,0.9676,0.9605,0.968,0.9635,0.9493,0.9415,0.9337,0.9266,0.9273,0.9273,0.9273,0.9351,0.9334,0.9266,0.9266,0.9266,0.9266,0.9266,0.9171,0.9045,0.9045,0.8998,0.894,0.894,0.894,0.8923,0.8845,0.8879,0.892,0.8838,0.8821,0.8842,0.8916,0.8876,0.8845,0.8923,0.8879,0.8849,0.8923,0.8876,0.8849,0.8923,0.8811,0.8682,0.8608,0.8662,0.8628,0.8404,0.8442,0.8431,0.8275,0.8197,0.8153,0.8153,0.7943,0.778,0.7709,0.7567,0.7519,0.7597,0.7451,0.7441,0.7597,0.7594,0.7631,0.7716,0.7804,0.6557,0.3908,0.1299,-0.0,0.0,0.0,0.0,0.0,0.0,0.0,0.0,1.6246,1.6146,1.668,1.7021,1.7442,1.817,1.8544,1.8998,1.976,1.9933,2.0134,2.0608,2.0722,2.0668,2.0428,2.0615,2.0735,2.0681,2.0514,2.0481,2.0661,2.0508,2.0401,2.0401,2.0401,2.0374,2.0321,1.906,1.769,1.5973,1.4377,1.2812,1.1304,1.0583,1.0329,1.0301,0.994,0.9758,0.9649,0.9622,0.9523,0.9395,0.9547,0.9537,0.9442,0.9591,0.9574,0.9462,0.9435,0.9425,0.9425,0.9425,0.9306,0.9157,0.9188,0.9079,0.8944,0.8974,0.896,0.894,0.894,0.8957,0.9001,0.9089,0.9045,0.9001,0.9089,0.9022,0.894,0.894,0.894,0.894,0.894,0.894,0.894,0.894,0.894,0.8896,0.8774,0.8859,0.8838,0.8564,0.8635,0.8652,0.8499,0.8357,0.8258,0.8228,0.7997,0.7807,0.7692,0.7658,0.7655,0.7685,0.7631,0.7628,0.7685,0.777,0.7824,0.7855,0.7898,0.7959,0.7839,0.3015,0.0504,1.6273,1.6046,1.6453,1.7201,1.7215,1.7388,0.0,1.8544,1.8237,1.8564,1.8865,1.9098,1.9205,1.9459,1.9766,2.0127,2.0408,2.0601,2.0668,2.0902,2.1049,2.1015,2.1042,2.0962,2.0702,2.0875,2.0915,2.0695,2.0882,2.1009,2.1009,2.1009,2.0889,2.0635,2.0498,2.0106,1.9568,1.8063,1.7068,1.6577,1.3667,1.213,1.1856,1.0422,0.9812,0.9791,0.9663,0.9523,0.9395,0.9547,0.9598,0.9598,0.9741,0.9788,0.9754,0.9632,0.9585,0.9585,0.9585,0.9395,0.9174,0.931,0.9167,0.896,0.9089,0.9042,0.894,0.894,0.9028,0.9103,0.8991,0.9045,0.91,0.8988,0.895,0.894,0.894,0.894,0.894,0.894,0.894,0.894,0.894,0.894,0.8933,0.8916,0.8927,0.8876,0.8706,0.8699,0.8652,0.8499,0.8357,0.8214,0.8075,0.8035,0.8007,0.7991,0.7862,0.7848,0.7984,0.774,0.7723,0.7984,0.7872,0.7879,0.8014,0.8035,0.8041,0.7939,0.4899,0.2305,1.658,1.6553,1.7081,1.7281,1.7762,1.839,1.9185,1.9178,1.9178,1.9813,2.0174,2.0434,2.0608,2.0742,2.0855,2.0982,2.0962,2.0929,2.0929,2.1036,2.1049,2.0882,2.1002,2.1062,2.0942,2.1036,2.1056,2.0935,2.1042,2.1109,2.1109,2.1109,2.1056,2.0935,2.0929,2.0394,1.9094,1.8456,1.7455,1.6225,1.4744,1.3906,1.3821,1.2982,1.2097,1.1249,1.1078,1.0384,0.9513,0.9486,0.953,0.9615,0.9676,0.9747,0.9815,0.9754,0.9734,0.9734,0.9734,0.9595,0.9429,0.9493,0.9371,0.9208,0.9266,0.9242,0.9195,0.9195,0.9239,0.9293,0.9323,0.9306,0.9293,0.9323,0.9195,0.9062,0.9062,0.8998,0.894,0.894,0.894,0.894,0.894,0.894,0.894,0.894,0.894,0.8916,0.8852,0.8845,0.875,0.8509,0.8428,0.8299,0.8058,0.8038,0.8038,0.8038,0.798,0.7974,0.8035,0.7923,0.7913,0.8038,0.7977,0.7977,0.8038,0.8038,0.8038,0.7939,0.5227,0.2517,1.6694,1.6974,1.7589,1.7629,1.8531,1.9486,1.978,1.9973,2.0267,2.0909,2.1203,2.1416,2.163,2.167,2.165,2.157,2.1443,2.1296,2.1129,2.1182,2.1096,2.0722,2.0862,2.0989,2.0989,2.1062,2.1109,2.1109,2.1109,2.1109,2.1109,2.1109,2.1109,2.1109,2.1109,2.0485,1.9117,1.9117,1.8351,1.6976,1.6301,1.5533,1.4923,1.374,1.2693,1.1491,1.1478,1.0722,0.9659,0.9547,0.9568,0.9666,0.9666,0.973,0.9822,0.9822,0.9822,0.9822,0.9822,0.9727,0.9615,0.9656,0.9537,0.9388,0.9432,0.9415,0.9381,0.9381,0.9381,0.9398,0.9466,0.9401,0.9337,0.9408,0.9256,0.9093,0.9093,0.9011,0.894,0.894,0.894,0.894,0.894,0.894,0.894,0.894,0.894,0.894,0.894,0.8903,0.876,0.8455,0.8425,0.8319,0.8062,0.8038,0.8038,0.8038,0.8038,0.8038,0.8038,0.8038,0.8038,0.8038,0.8038,0.8038,0.8038,0.8038,0.8038,0.7939,0.5251,0.2528,1.654,1.7128,1.7789,1.8657,1.9753,2.0702,2.0989,2.1496,2.1911,2.1944,2.1951,2.1964,2.1971,2.1971,2.1884,2.1597,2.1777,2.1757,2.1189,2.1356,2.1323,2.0748,2.0681,2.0688,2.0688,2.0942,2.1109,2.1109,2.1109,2.1109,2.1109,2.1109,2.1109,2.1109,2.1109,2.1102,2.0969,2.0969,2.0823,2.0538,1.8988,1.7083,1.4923,1.1453,0.994,0.9819,0.9815,0.9812,0.9815,0.9812,0.9812,0.9815,0.9815,0.9819,0.9822,0.9822,0.9822,0.9822,0.9822,0.9727,0.9632,0.9771,0.9618,0.9408,0.9557,0.95,0.9381,0.9381,0.9381,0.9347,0.9205,0.9164,0.9127,0.8991,0.895,0.8947,0.8947,0.8944,0.894,0.894,0.894,0.894,0.894,0.894,0.894,0.894,0.894,0.894,0.894,0.8808,0.8604,0.8309,0.8279,0.8211,0.8055,0.8038,0.8038,0.8038,0.8038,0.8038,0.8038,0.8038,0.8038,0.8038,0.8038,0.8038,0.8038,0.8038,0.8038,0.7939,0.5251,0.2528,1.6947,1.7862,1.8885,1.9379,2.0241,2.1089,2.1583,2.2144,2.2565,2.2565,2.2258,2.1931,2.1737,2.1383,2.1082,2.0989,2.1216,2.1336,2.1136,2.1196,2.1042,2.0454,2.0728,2.0808,2.0421,2.0648,2.0902,2.1096,2.1109,2.1109,2.1109,2.1109,2.1109,2.1109,2.1109,2.1109,2.1109,2.1109,2.0962,2.0675,1.9774,1.8785,1.7823,1.6655,1.5542,1.446,1.3377,1.2263,1.1193,1.0034,0.9588,0.968,0.968,0.9737,0.9822,0.9822,0.9822,0.9822,0.9822,0.9727,0.9615,0.9666,0.9612,0.9523,0.9473,0.9557,0.9652,0.9557,0.9602,0.9639,0.9493,0.9456,0.9418,0.9269,0.9154,0.9083,0.9083,0.9008,0.894,0.894,0.894,0.894,0.894,0.894,0.894,0.894,0.894,0.894,0.894,0.8893,0.8784,0.8584,0.8472,0.835,0.8204,0.8099,0.8038,0.8038,0.8038,0.8038,0.8038,0.8038,0.8038,0.8038,0.8038,0.8038,0.8038,0.8038,0.8038,0.7939,0.7045,0.4227,1.8485,1.9063,1.9639,2.014,2.0848,2.155,2.2031,2.2512,2.2832,2.2726,2.2238,2.1744,2.145,2.0915,2.0488,2.0381,2.0521,2.0675,2.0782,2.0795,2.0695,2.0421,2.0722,2.0802,2.0428,2.0568,2.0795,2.1089,2.1109,2.1109,2.1109,2.1109,2.1109,2.1109,2.1109,2.1109,2.1109,2.1002,2.0808,2.0514,1.9412,1.8845,1.8666,1.7978,1.7097,1.6133,1.4917,1.3913,1.2845,1.1678,1.135,1.1339,1.0748,1.0572,1.0539,1.0061,0.9822,0.9822,0.9822,0.9761,0.9686,0.9686,0.9686,0.9656,0.9507,0.9595,0.9727,0.9635,0.9635,0.9656,0.9618,0.953,0.9422,0.9323,0.9184,0.9076,0.9076,0.9001,0.894,0.894,0.894,0.894,0.894,0.894,0.894,0.894,0.894,0.892,0.8866,0.8859,0.8798,0.8645,0.8496,0.837,0.8279,0.813,0.8062,0.8116,0.8069,0.8065,0.8119,0.8069,0.8038,0.8038,0.8038,0.8038,0.8038,0.8038,0.8038,0.7939,0.7018,0.5225,2.0793,2.0637,2.0187,2.0922,2.1563,2.2058,2.2331,2.2639,2.2766,2.2425,2.1891,2.1383,2.1056,2.0555,2.01,1.982,1.9826,1.996,2.0241,2.0274,2.0374,2.0641,2.0688,2.0695,2.0675,2.0688,2.0815,2.1089,2.1109,2.1109,2.1109,2.1109,2.1109,2.1109,2.1109,2.1102,2.1089,2.0782,2.0488,2.0207,1.8311,1.7452,1.744,1.565,1.4842,1.4842,1.4723,1.4718,1.4723,1.4604,1.4604,1.4485,1.2813,1.2213,1.1976,1.0418,0.9815,0.9812,0.9819,0.9815,0.9808,0.9802,0.9798,0.9771,0.9618,0.9588,0.9595,0.9588,0.9486,0.9415,0.9561,0.9384,0.9164,0.9154,0.9049,0.8947,0.894,0.894,0.894,0.894,0.894,0.894,0.894,0.894,0.894,0.894,0.894,0.8886,0.874,0.8723,0.8665,0.852,0.8377,0.8289,0.8282,0.814,0.8109,0.8248,0.813,0.8113,0.8252,0.8126,0.8048,0.8038,0.8038,0.8038,0.8038,0.8038,0.8038,0.7939,0.5298,0.5327,2.2108,2.226,2.2472,2.1706,2.1717,2.2004,2.2078,2.2492,2.2592,2.1637,2.0975,2.0347,1.9613,1.9539,1.9559,1.9492,2.0207,2.0802,2.0875,2.0889,2.0835,2.0695,2.0869,2.0915,2.0702,2.0869,2.1029,2.1102,2.1109,2.1109,2.1109,2.1109,2.1109,2.1109,2.1109,2.1002,2.0788,2.0281,1.9987,1.9907,1.9246,1.8875,1.8868,1.844,1.8169,1.8052,1.6856,1.6374,1.6262,1.5074,1.4604,1.4485,1.2813,1.2213,1.1976,1.0418,0.9754,0.968,0.9785,0.9751,0.9646,0.953,0.9493,0.9445,0.9188,0.9262,0.9415,0.9303,0.9323,0.9391,0.9429,0.9381,0.9293,0.9178,0.9123,0.9069,0.896,0.894,0.894,0.894,0.894,0.894,0.894,0.894,0.894,0.894,0.894,0.8923,0.8886,0.8879,0.8866,0.8825,0.8686,0.8554,0.8438,0.8296,0.818,0.8102,0.817,0.8177,0.8102,0.817,0.8157,0.8041,0.8038,0.8038,0.8038,0.8038,0.8038,0.7939,0.5236,0.3331,2.3877,2.3618,2.3282,2.1984,2.1677,2.173,2.147,2.1764,2.1724,2.0421,1.9786,1.9232,1.8477,1.847,1.8624,1.8764,1.9446,2.014,2.0655,2.0615,2.0621,2.0842,2.1009,2.1042,2.0882,2.1015,2.1109,2.1109,2.1109,2.1109,2.1109,2.1109,2.1109,2.1109,2.1109,2.0909,2.0481,2.0154,1.986,1.9606,1.9446,1.9366,1.9366,1.9366,1.9366,1.9366,1.8409,1.8046,1.7929,1.7097,1.6744,1.6503,1.495,1.388,1.3039,1.1411,1.0263,0.9612,0.9625,0.9578,0.9507,0.949,0.9435,0.9337,0.9103,0.9147,0.9262,0.9178,0.9215,0.9296,0.9364,0.9334,0.9259,0.9174,0.9103,0.9035,0.8957,0.894,0.894,0.894,0.8991,0.9032,0.9032,0.9032,0.9032,0.9032,0.8981,0.894,0.894,0.894,0.894,0.894,0.8801,0.8648,0.8496,0.835,0.8235,0.8147,0.816,0.816,0.814,0.816,0.813,0.8041,0.8038,0.8038,0.8038,0.8038,0.8038,0.7939,0.5251,0.2528,2.5915,2.4785,2.3649,2.2233,2.1774,2.1343,2.0755,2.0782,2.0521,1.9045,1.8544,1.8183,1.7575,1.7528,1.7695,1.805,1.8417,1.9045,2.014,2.0107,2.0254,2.1015,2.1109,2.1109,2.1109,2.1109,2.1109,2.1109,2.1109,2.1109,2.1109,2.1109,2.1109,2.1109,2.1076,2.0788,2.0234,2.0194,1.9907,1.9366,1.9366,1.9366,1.9366,1.9366,1.9366,1.9366,1.9366,1.9366,1.9366,1.9366,1.9366,1.9249,1.7449,1.5762,1.4296,1.2347,1.0741,0.9537,0.9442,0.9371,0.9347,0.95,0.9459,0.9323,0.9171,0.9123,0.9123,0.9123,0.9123,0.9161,0.931,0.9252,0.9154,0.9154,0.9059,0.896,0.8944,0.894,0.894,0.894,0.9039,0.913,0.915,0.9154,0.9154,0.9154,0.9049,0.896,0.894,0.894,0.893,0.891,0.8791,0.8638,0.8469,0.834,0.8262,0.8241,0.8133,0.8123,0.8235,0.813,0.8062,0.8038,0.8038,0.8038,0.8038,0.8038,0.8038,0.7939,0.5651,0.2929,2.8183,2.6781,2.5218,2.397,2.2363,2.1036,2.0448,2.016,1.9606,1.8123,1.7776,1.7562,1.6967,1.7255,1.7762,1.8323,1.9065,1.9813,2.0501,2.0762,2.0935,2.1089,2.1109,2.1109,2.1109,2.1109,2.1109,2.1109,2.1109,2.1109,2.1109,2.1109,2.1109,2.1109,2.0875,2.0581,2.0234,1.9993,1.97,1.9366,1.9366,1.9366,1.9366,1.9366,1.9366,1.9366,1.9366,1.9366,1.9366,1.9366,1.9366,1.9127,1.6144,1.4724,1.4083,1.1138,0.9679,0.9266,0.9493,0.9327,0.9039,0.9184,0.9215,0.9164,0.9022,0.8977,0.8977,0.8977,0.8977,0.9011,0.9154,0.9171,0.9154,0.9154,0.9133,0.9083,0.8964,0.894,0.894,0.894,0.8957,0.9015,0.9133,0.9154,0.9154,0.9154,0.913,0.9072,0.8954,0.894,0.8889,0.8764,0.8726,0.8601,0.833,0.8286,0.8214,0.8089,0.8174,0.8184,0.8082,0.8177,0.817,0.8041,0.8038,0.8038,0.8038,0.8038,0.8038,0.7939,0.754,0.4726,2.6798,2.5984,2.5415,2.3134,2.1596,2.0421,1.9533,1.9092,1.845,1.6974,1.6794,1.6767,1.6333,1.6734,1.7275,1.7722,1.841,1.9199,2.0094,2.0341,2.0595,2.1056,2.1109,2.1109,2.1109,2.1109,2.1109,2.1109,2.1109,2.1109,2.1109,2.1109,2.1109,2.1109,2.0975,2.0688,2.0234,2.0094,1.9806,1.9366,1.9366,1.9366,1.9366,1.9366,1.9366,1.9366,1.9366,1.9366,1.9366,1.9366,1.9366,1.9127,1.6738,1.5242,1.4177,1.1641,1.0084,0.9269,0.9262,0.9167,0.9049,0.9045,0.9042,0.9028,0.896,0.894,0.894,0.894,0.894,0.8954,0.9025,0.9042,0.9042,0.9042,0.9042,0.9022,0.8954,0.894,0.894,0.894,0.8998,0.9072,0.914,0.9154,0.9154,0.9154,0.9089,0.9018,0.8947,0.894,0.8879,0.8726,0.8638,0.8506,0.8289,0.8272,0.8204,0.8052,0.8109,0.8116,0.8041,0.8109,0.8116,0.8041,0.8038,0.8038,0.8038,0.8038,0.8038,0.8038,0.8038,0.5834,2.6006,2.5448,2.5367,2.282,2.1094,1.9853,1.8744,1.815,1.7448,1.6106,1.6012,1.6106,1.5872,1.6206,1.664,1.6994,1.7502,1.8263,1.9446,1.972,2.01,2.0922,2.1076,2.1109,2.1109,2.1109,2.1109,2.1109,2.1109,2.1109,2.1109,2.1049,2.1042,2.1109,2.0989,2.0702,2.0234,2.0174,1.988,1.9366,1.9366,1.9366,1.9366,1.9366,1.9366,1.9366,1.9366,1.9366,1.9366,1.9366,1.9243,1.8765,1.7091,1.5515,1.3774,1.2018,1.0501,0.93,0.9066,0.9039,0.9093,0.9011,0.8984,0.8977,0.8947,0.894,0.894,0.894,0.894,0.894,0.894,0.894,0.894,0.894,0.894,0.894,0.894,0.894,0.894,0.894,0.9028,0.9117,0.9147,0.9154,0.9154,0.9154,0.9055,0.8974,0.8944,0.891,0.8832,0.8676,0.8554,0.8411,0.8238,0.8221,0.817,0.8045,0.8038,0.8038,0.8038,0.8038,0.8038,0.8038,0.8038,0.8038,0.8038,0.8038,0.8038,0.8038,0.8038,0.6845,2.9661,2.7893,2.5976,2.5619,2.2721,1.9606,1.8698,1.7836,1.6961,1.6025,1.5852,1.5865,1.5832,1.5872,1.6092,1.6653,1.7021,1.7642,1.8838,1.9466,2.0027,2.0641,2.0949,2.1109,2.1109,2.1109,2.1109,2.1109,2.1109,2.1109,2.1109,2.0862,2.0842,2.1102,2.0588,2.0287,2.0234,1.9973,1.9679,1.9366,1.9366,1.9366,1.9366,1.9366,1.9366,1.9366,1.9366,1.9366,1.9366,1.9366,1.8525,1.7085,1.5429,1.3764,1.2051,1.0244,0.9408,0.9171,0.9144,0.9055,0.8977,0.9096,0.9133,0.911,0.8977,0.894,0.894,0.894,0.894,0.894,0.894,0.894,0.894,0.894,0.894,0.894,0.894,0.894,0.894,0.894,0.895,0.8998,0.913,0.9154,0.9154,0.9154,0.9144,0.9086,0.8954,0.8818,0.8672,0.852,0.8489,0.8367,0.8085,0.8062,0.8055,0.8041,0.8038,0.8038,0.8038,0.8038,0.8038,0.8038,0.8038,0.8038,0.8038,0.8038,0.8038,0.8038,0.8038,0.7839,2.6041,2.5076,2.3985,2.3015,2.0844,1.8871,1.8343,1.7395,1.6473,1.5939,1.5832,1.5832,1.5832,1.5832,1.5905,1.6139,0.0,0.0,1.7716,1.8056,1.8691,1.9993,2.0254,2.0528,2.1056,2.1109,2.1109,2.1109,2.1109,2.1036,2.0855,2.0902,2.0909,2.0848,2.0795,2.0588,2.0234,2.0294,2.018,1.9887,1.9713,1.9626,1.9626,1.9446,1.9366,1.9366,1.9366,1.9366,1.9366,1.9366,1.8409,1.685,1.5192,1.3594,1.195,1.0044,0.9344,0.9266,0.9086,0.9045,0.9062,0.9032,0.9083,0.9127,0.8981,0.894,0.894,0.894,0.894,0.894,0.894,0.894,0.894,0.894,0.894,0.894,0.894,0.894,0.894,0.894,0.894,0.8957,0.9015,0.9025,0.9025,0.9025,0.9025,0.9001,0.8947,0.8886,0.8791,0.8635,0.8462,0.8269,0.8058,0.8038,0.8038,0.8038,0.8126,0.8136,0.8041,0.813,0.8136,0.8041,0.8038,0.8038,0.8038,0.8038,0.8038,0.8038,0.8038,0.8038,2.3403,2.3065,2.2697,2.1624,1.9849,1.841,1.811,1.7121,1.6186,1.5892,1.5832,1.5832,1.5832,1.5832,1.5832,0.0,0.0,1.6106,1.6907,1.7094,1.7675,1.9098,1.9432,1.9853,2.0641,2.0882,2.0949,2.0855,2.0929,2.0855,2.0561,2.0902,2.0975,2.0688,2.0788,2.0695,2.0368,2.0481,2.0394,2.01,1.99,1.976,1.9666,1.9459,1.9366,1.9366,1.8887,1.8648,1.8648,1.8169,1.6973,1.5424,1.4361,1.2933,1.1343,1.0005,0.9418,0.9344,0.9089,0.9042,0.9072,0.8971,0.9008,0.9069,0.8967,0.894,0.894,0.894,0.894,0.894,0.894,0.894,0.894,0.894,0.894,0.894,0.894,0.894,0.894,0.894,0.894,0.894,0.894,0.894,0.894,0.894,0.894,0.894,0.894,0.894,0.8879,0.8726,0.8523,0.8319,0.8126,0.8106,0.8106,0.8106,0.8211,0.8221,0.8113,0.8211,0.8197,0.8041,0.8038,0.8038,0.8038,0.8038,0.8038,0.8038,0.8038,0.8038,2.3962,2.3205,2.2714,2.2714,2.0601,1.8404,1.809,1.7114,1.6186,1.5892,1.5832,1.5832,1.5832,1.5832,1.5832,1.5832,1.5832,0.0,1.6627,1.6967,1.7368,1.7963,1.8571,1.9165,1.9753,2.0341,2.0561,2.0261,2.0514,2.0548,2.0254,2.0788,2.0975,2.0688,2.0394,2.0381,2.0668,2.0381,2.0094,1.9806,1.98,1.9646,1.9372,1.9366,1.9366,1.9366,1.7683,1.6968,1.685,1.5311,1.3646,1.2213,1.2213,1.1257,0.9805,0.9659,0.951,0.9357,0.9205,0.9059,0.894,0.894,0.894,0.894,0.894,0.894,0.894,0.894,0.894,0.894,0.894,0.894,0.894,0.894,0.894,0.894,0.894,0.894,0.894,0.894,0.894,0.894,0.894,0.894,0.894,0.894,0.894,0.894,0.894,0.894,0.8879,0.8726,0.8706,0.8587,0.8292,0.8269,0.8269,0.8269,0.8269,0.8272,0.8269,0.8272,0.8197,0.8041,0.8038,0.8038,0.8038,0.8038,0.8038,0.8038,0.8038,0.8038,2.2314,2.1101,1.9508,1.9508,1.842,1.7241,1.7141,1.652,1.5945,1.5845,1.5832,1.5832,1.5832,1.5832,1.5832,1.5832,1.5999,0.0,1.6112,1.6707,1.7368,1.7963,1.9092,1.9893,2.0074,2.0261,2.0334,2.0241,2.0321,2.0247,1.9953,2.0301,2.0374,2.0087,2.0568,2.0681,2.0374,2.0681,2.0688,2.0394,2.0194,1.9322,1.8071,1.8972,1.8175,1.6149,1.6733,1.6374,1.5311,1.4842,1.3651,1.2213,1.2213,1.1261,0.9802,0.9663,0.9581,0.95,0.9242,0.9123,0.9069,0.8971,0.894,0.894,0.894,0.894,0.894,0.894,0.894,0.894,0.894,0.894,0.894,0.894,0.894,0.894,0.894,0.894,0.894,0.894,0.894,0.894,0.894,0.894,0.894,0.894,0.894,0.894,0.894,0.894,0.892,0.8872,0.8866,0.8706,0.8303,0.836,0.8374,0.8275,0.8364,0.8414,0.8414,0.8323,0.8248,0.8197,0.8092,0.8038,0.8038,0.8038,0.8038,0.8038,0.8038,0.8038,0.0,1.8933,1.7869,1.7869,1.7281,1.6707,1.6707,1.6253,1.5832,1.5832,1.5832,1.5832,1.5832,1.5832,1.5832,1.5832,1.5985,1.6119,1.6152,1.6734,1.7415,1.813,1.9118,1.974,1.974,1.994,2.0027,1.9913,2.0007,1.9947,1.9653,2.0013,2.0047,1.9646,2.0381,2.0708,2.0568,2.0815,2.0795,2.0508,2.0321,1.9526,1.8171,1.8966,1.7935,1.5548,1.5902,1.5192,0.0,1.3053,1.2213,1.1257,1.1257,1.066,0.9812,0.9724,0.9656,0.9581,0.9391,0.9249,0.9137,0.9049,0.8984,0.894,0.894,0.894,0.894,0.894,0.894,0.894,0.894,0.894,0.894,0.894,0.894,0.894,0.894,0.894,0.894,0.894,0.894,0.894,0.894,0.894,0.894,0.894,0.894,0.894,0.894,0.894,0.894,0.894,0.894,0.8801,0.8465,0.8516,0.853,0.8442,0.852,0.8567,0.8567,0.8482,0.8384,0.8272,0.8177,0.8099,0.8038,0.8038,0.8038,0.8038,0.8038,0.8038,0.0,1.7041,1.7455,1.7455,1.7048,1.6647,1.6647,1.6219,0.0,1.5832,1.5832,1.5832,1.5832,1.5832,1.5832,1.5832,1.5865,1.6072,1.66,1.7007,1.7562,1.8417,1.8798,1.8958,1.8898,1.9426,1.9659,1.9392,1.9619,1.9653,1.9379,1.988,1.9933,1.9412,1.99,2.0454,2.1042,2.0782,2.0508,2.0234,2.0214,1.9787,1.9243,1.9243,1.8286,1.6609,1.5074,1.3526,1.1856,1.0422,0.9822,0.9822,0.9822,0.9822,0.9822,0.9822,0.9737,0.9625,0.9612,0.9422,0.9181,0.9161,0.9055,0.894,0.894,0.894,0.894,0.894,0.894,0.894,0.894,0.894,0.894,0.894,0.894,0.894,0.894,0.8947,0.8954,0.8954,0.8964,0.8967,0.8957,0.8954,0.895,0.894,0.894,0.894,0.894,0.894,0.894,0.894,0.894,0.8879,0.8737,0.8726,0.8723,0.871,0.871,0.8716,0.8726,0.8706,0.8567,0.8292,0.8265,0.8184,0.8038,0.8038,0.8038,0.8038,0.8038,0.8038,1.6095,0.0,1.6239,1.6239,1.6139,1.6032,0.0,0.0,1.5832,1.5832,0.0,1.5832,1.5832,1.5832,1.5832,1.5832,1.6206,1.6466,1.6386,1.7415,1.8337,1.8771,1.9279,1.9332,1.8657,1.9125,1.9439,1.9372,1.9432,1.9439,1.9372,1.9499,1.9606,1.9693,1.9619,1.9853,2.0434,2.0374,2.0301,2.0227,2.0007,1.9101,1.7566,1.7566,1.6015,1.3283,1.2928,1.1856,1.0301,0.994,0.9822,0.9822,0.9822,0.9822,0.9822,0.9822,0.9798,0.9754,0.9646,0.9561,0.9462,0.9228,0.9055,0.894,0.894,0.894,0.894,0.894,0.894,0.894,0.894,0.894,0.894,0.894,0.894,0.894,0.894,0.9025,0.9103,0.9103,0.9198,0.9239,0.9123,0.9103,0.9066,0.8954,0.894,0.894,0.894,0.894,0.894,0.894,0.894,0.8923,0.8889,0.8882,0.8835,0.8716,0.871,0.8764,0.8879,0.8659,0.8503,0.8435,0.8211,0.8075,0.8038,0.8038,0.8038,0.8038,0.8038,0.8038,1.5591,1.5732,1.5832,1.5832,1.5832,1.5832,1.5832,0.0,0.0,0.0,0.0,0.0,0.0,1.5832,1.5832,1.5832,1.6213,1.664,1.7034,1.7769,1.8484,1.9058,1.9172,1.9118,1.8911,1.9178,1.9366,1.9366,1.9366,1.9366,1.9366,1.9366,1.9439,1.9599,1.9452,1.9646,2.0227,2.01,2.0034,2.0034,1.9873,1.9161,1.8046,1.8046,1.638,1.3287,1.3287,1.1976,0.9822,0.9822,0.9822,0.9822,0.9822,0.9822,0.9822,0.9822,0.9822,0.9812,0.9734,0.9663,0.9557,0.9252,0.91,0.9025,0.8957,0.8984,0.9035,0.9035,0.9089,0.9123,0.9055,0.9035,0.9022,0.8954,0.894,0.894,0.894,0.8998,0.9076,0.914,0.9167,0.9195,0.9249,0.9198,0.9127,0.9049,0.9096,0.9117,0.9045,0.9035,0.9035,0.9035,0.8977,0.894,0.894,0.894,0.8903,0.8821,0.8815,0.8852,0.8933,0.8777,0.8625,0.8486,0.8262,0.8109,0.8038,0.8038,0.8038,0.8038,0.8038,0.8038,1.5317,1.5578,1.5772,1.5818,1.5832,1.5832,1.5832,0.0,0.0,0.0,0.0,0.0,0.0,1.5832,1.5832,1.5832,1.6192,1.6901,1.8143,1.8337,1.8604,1.9285,1.9045,1.8931,1.9205,1.9359,1.9412,1.9372,1.9366,1.9366,1.9366,1.9366,1.9366,1.9366,1.9366,1.9599,2.0094,1.986,1.976,1.98,1.976,1.9606,1.9366,1.9127,1.7455,1.4604,1.4361,1.2573,0.9822,0.9822,0.9822,0.9822,0.9822,0.9822,0.9822,0.9822,0.9822,0.9822,0.9822,0.9727,0.9568,0.9306,0.9191,0.9133,0.9035,0.9093,0.9188,0.9188,0.9283,0.9351,0.9222,0.9171,0.9123,0.9001,0.8954,0.894,0.894,0.8957,0.9015,0.9161,0.911,0.912,0.9371,0.931,0.9215,0.9191,0.93,0.9327,0.9171,0.9154,0.9144,0.9123,0.9011,0.894,0.894,0.894,0.894,0.894,0.894,0.894,0.894,0.8893,0.8747,0.8486,0.8319,0.817,0.8038,0.8038,0.8038,0.8038,0.8038,0.8038,1.5317,1.5431,1.5524,1.5765,1.5832,1.5832,1.5832,0.0,0.0,0.0,0.0,0.0,0.0,1.5832,1.5832,1.5832,1.67,1.7883,1.9332,1.974,1.976,1.9412,1.9947,1.9893,1.8738,1.9299,1.9633,1.9386,1.9366,1.9366,1.9366,1.9366,1.9366,1.9366,1.9366,1.9412,1.9499,1.9459,1.9559,1.98,1.9553,1.9412,1.9366,1.804,1.638,1.4485,1.3172,1.1499,0.9822,0.9822,0.9822,0.9822,0.9822,0.9822,0.9822,0.9822,0.9822,0.9822,0.9822,0.9727,0.9602,0.9554,0.9364,0.9171,0.9279,0.9327,0.9347,0.9347,0.9364,0.9374,0.9354,0.9249,0.9147,0.9127,0.9028,0.894,0.894,0.9035,0.9164,0.9317,0.9432,0.952,0.9568,0.9554,0.9496,0.9364,0.9364,0.9327,0.9171,0.9154,0.9106,0.8984,0.895,0.894,0.894,0.894,0.894,0.894,0.894,0.894,0.894,0.8689,0.853,0.8482,0.8214,0.8062,0.8038,0.8038,0.8038,0.8038,0.8038,0.8038,1.4843,1.4923,1.503,1.5484,1.5712,1.5832,1.5832,0.0,0.0,0.0,0.0,0.0,0.0,1.6199,1.6513,1.7161,1.7722,1.8424,1.9426,1.9546,1.9486,1.9379,1.9726,1.9706,1.9032,1.9472,1.9679,1.9392,1.9366,1.9366,1.9366,1.9366,1.9366,1.9366,1.9366,1.9366,1.9366,1.9366,1.9432,1.9566,1.9432,1.9366,1.9366,1.8642,1.6973,1.4604,1.377,1.2573,1.114,1.114,1.1619,1.2333,1.2333,1.1856,1.114,1.114,1.114,1.114,1.114,1.0496,0.971,0.9635,0.9513,0.9381,0.9286,0.9317,0.9381,0.9381,0.9442,0.9486,0.9401,0.9266,0.9154,0.9154,0.9103,0.9055,0.9055,0.9171,0.932,0.9473,0.9496,0.9537,0.9696,0.9659,0.9585,0.9513,0.9568,0.9537,0.9306,0.9276,0.9218,0.9069,0.8984,0.894,0.894,0.894,0.894,0.894,0.894,0.894,0.894,0.8723,0.8567,0.8482,0.8272,0.8123,0.8038,0.8038,0.8038,0.8038,0.8038,0.8038,1.4442,1.4522,1.4643,1.5164,0.0,1.5745,1.5812,1.5885,0.0,0.0,0.0,0.0,0.0,1.6513,1.7074,1.8203,1.8557,1.8925,1.9579,1.9479,1.9419,1.9646,1.9673,1.9619,1.9486,1.9733,1.9753,1.9392,1.9366,1.9366,1.9366,1.9366,1.9366,1.9366,1.9366,1.9366,1.9366,1.9366,1.9366,1.9366,1.9366,1.9366,1.9366,1.9366,1.7812,1.5192,1.5192,1.4242,1.2813,1.2813,1.3531,1.4604,1.4604,1.3889,1.2813,1.2813,1.2813,1.2813,1.2813,1.1976,1.088,1.0759,1.0458,1.0144,0.9896,0.9683,0.9425,0.9391,0.9493,0.9591,0.9507,0.9371,0.9259,0.9259,0.9232,0.9205,0.9205,0.93,0.9425,0.9581,0.9513,0.9517,0.9778,0.973,0.9659,0.9659,0.9751,0.9727,0.9466,0.9405,0.9323,0.9167,0.9025,0.894,0.894,0.894,0.894,0.894,0.894,0.894,0.894,0.8791,0.8655,0.8537,0.8394,0.8262,0.8143,0.8143,0.8143,0.8143,0.8109,0.8092,1.4442,1.4522,1.4596,1.4917,1.5211,0.0,1.5765,1.6046,0.0,1.6239,0.0,0.0,1.6319,1.6513,1.7007,1.7929,1.8771,1.9606,2.0461,2.0561,2.0561,2.0581,2.0581,2.0368,1.982,2.0034,1.9967,1.9412,1.9366,1.9366,1.9366,1.9366,1.9366,1.9366,1.9366,1.9366,1.9366,1.9366,1.9366,1.9366,1.9366,1.9366,1.9366,1.9366,1.8409,1.685,1.685,1.5902,1.4485,1.4485,1.4485,1.4604,1.4604,1.4485,1.4485,1.4485,1.4485,1.4485,1.4485,1.4361,1.4242,1.4227,1.314,1.1812,1.1783,1.0745,0.9564,0.9422,0.9493,0.9639,0.9758,0.9683,0.9578,0.9578,0.9469,0.9364,0.9364,0.9374,0.9425,0.9581,0.9602,0.9642,0.9795,0.9812,0.9805,0.9805,0.9815,0.9768,0.9612,0.9469,0.9323,0.9167,0.9025,0.894,0.894,0.894,0.894,0.894,0.894,0.894,0.894,0.8791,0.8706,0.8696,0.8547,0.8462,0.8448,0.8448,0.8448,0.8445,0.8316,0.8255,1.4222,1.4382,1.4543,1.4663,1.5044,0.0,0.0,1.5932,1.6219,1.6039,1.6373,0.0,1.6807,1.7361,1.8043,1.8751,1.9452,2.0087,2.0601,2.0675,2.0541,2.0174,2.0294,2.0174,1.9586,1.9793,1.98,1.9399,1.9366,1.9366,1.9366,1.9366,1.9366,1.9366,1.9366,1.9366,1.9366,1.9366,1.9366,1.9366,1.9366,1.9366,1.9366,1.9366,1.8525,1.6968,1.6968,1.6609,1.6138,1.6138,1.6738,1.7461,1.6497,1.6738,1.7455,1.6497,1.6138,1.6138,1.6138,1.5429,1.4604,1.4604,1.4188,1.3386,1.2316,1.1585,1.0875,0.9769,0.9564,0.9622,0.9676,0.9581,0.9493,0.9588,0.9564,0.9523,0.9523,0.9523,0.9564,0.9713,0.9669,0.9656,0.9795,0.9822,0.9822,0.9822,0.9822,0.9771,0.9629,0.9557,0.9429,0.9178,0.9025,0.894,0.894,0.894,0.894,0.894,0.894,0.894,0.894,0.8791,0.871,0.871,0.856,0.8482,0.8482,0.8482,0.8482,0.8479,0.8336,0.8319,1.4088,1.4229,1.4402,0.0,0.0,0.0,1.5491,1.5985,1.6353,1.6146,1.65,1.6967,1.7361,1.7936,1.8544,1.9132,1.9713,2.0234,2.0621,2.0514,2.0354,2.0227,2.0147,2.0013,1.98,1.9793,1.972,1.9519,1.9419,1.9366,1.9366,1.9366,1.9366,1.9366,1.9366,1.9366,1.9366,1.9366,1.9366,1.9366,1.9366,1.9366,1.9366,1.9366,1.8765,1.7806,1.7806,1.7806,1.7806,1.7806,1.8402,1.9249,1.8163,1.8402,1.9243,1.8163,1.7806,1.7806,1.7806,1.7091,1.6149,1.6149,1.579,1.5032,1.3278,1.2443,1.1777,1.0091,0.9642,0.9676,0.9676,0.9598,0.9547,0.9652,0.9676,0.9676,0.9676,0.9676,0.9703,0.9802,0.9744,0.9707,0.9805,0.9822,0.9822,0.9822,0.9822,0.9785,0.969,0.9639,0.9493,0.9188,0.9066,0.8988,0.8944,0.894,0.894,0.894,0.894,0.894,0.894,0.8838,0.8781,0.8781,0.8679,0.8625,0.8625,0.8625,0.8625,0.8621,0.8476,0.8462,1.4088,1.4088,1.4162,0.0,0.0,0.0,1.5698,1.6279,1.6707,1.6714,1.6947,1.7335,1.7936,1.805,1.8243,1.8831,1.9419,2.0007,2.0588,2.0167,2.012,2.0989,2.0321,2.002,2.0608,2.0134,1.98,1.98,1.9533,1.9366,1.9366,1.9366,1.9366,1.9366,1.9366,1.9366,1.9366,1.9366,1.9366,1.9366,1.9366,1.9366,1.9366,1.9366,1.9366,1.9366,1.9366,1.9366,1.9366,1.9366,1.9366,1.9366,1.9366,1.9366,1.9366,1.9366,1.9366,1.9366,1.9366,1.9366,1.9366,1.9366,1.8286,1.668,1.4919,1.3363,1.1819,1.0123,0.9713,0.9822,0.9822,0.9822,0.9822,0.9822,0.9822,0.9822,0.9822,0.9819,0.9819,0.9822,0.9819,0.9819,0.9822,0.9822,0.9822,0.9822,0.9822,0.9822,0.9822,0.9696,0.9493,0.9188,0.9154,0.9093,0.895,0.894,0.894,0.894,0.8944,0.8944,0.894,0.894,0.894,0.894,0.894,0.894,0.894,0.894,0.894,0.8933,0.8781,0.871,1.4088,1.4235,0.0,1.4496,0.0,0.0,0.0,1.6126,0.0,0.0,1.7395,1.7575,1.7976,1.8384,1.8718,1.8891,1.9419,1.986,2.0034,1.9907,1.982,1.988,1.9653,1.9566,1.974,1.9599,1.9499,1.9499,1.9412,1.9366,1.9366,1.9366,1.9366,1.9366,1.9366,1.9366,1.9366,1.9366,1.9366,1.9366,1.9366,1.9366,1.9366,1.9366,1.9366,1.9366,1.9366,1.9366,1.9366,1.9366,1.9366,1.9366,1.9366,1.9366,1.9366,1.9366,1.9366,1.9366,1.9366,1.9366,1.9366,1.9366,1.9127,1.8389,1.6757,1.5135,1.3517,1.1914,1.0624,0.9822,0.9822,0.9822,0.9822,0.9822,0.9822,0.9822,0.9822,0.9744,0.97,0.9802,0.9741,0.9703,0.9802,0.9822,0.9822,0.9822,0.9822,0.9822,0.9822,0.9696,0.9534,0.9337,0.9218,0.9093,0.895,0.9032,0.9089,0.9089,0.9191,0.9157,0.8947,0.894,0.894,0.894,0.894,0.894,0.894,0.894,0.894,0.8933,0.8781,0.8767,1.4229,1.4389,0.0,1.481,1.513,1.5504,1.5912,0.0,0.0,1.7609,1.7769,1.7896,1.8317,1.8684,1.8958,1.9078,1.9399,1.9666,1.9786,1.97,1.9646,1.9706,1.9506,1.9459,1.9686,1.9506,1.9412,1.9533,1.9432,1.9366,1.9366,1.9366,1.9366,1.9366,1.9366,1.9366,1.9366,1.9366,1.9366,1.9366,1.9366,1.9366,1.9366,1.9366,1.9366,1.9366,1.9366,1.9366,1.9366,1.9366,1.9366,1.9366,1.9366,1.9366,1.9366,1.9366,1.9366,1.9366,1.9366,1.9366,1.9366,1.9366,1.9366,1.9127,1.7449,1.5902,1.4242,1.2693,1.102,0.9822,0.9822,0.9822,0.9822,0.9822,0.9822,0.9822,0.9822,0.9754,0.972,0.9805,0.9751,0.972,0.9805,0.9822,0.9822,0.9822,0.9822,0.9822,0.9822,0.9747,0.9635,0.949,0.9391,0.9276,0.9127,0.9195,0.9245,0.9245,0.9273,0.9211,0.9032,0.9025,0.8998,0.894,0.894,0.894,0.894,0.894,0.894,0.8937,0.8845,0.8852,1.4449,1.4536,0.0,1.5257,1.5438,0.0,1.6152,1.6727,1.7315,1.7883,1.805,1.825,1.8784,1.8925,1.9045,1.9285,1.9352,1.9459,1.9726,1.9533,1.9559,2.0094,1.9686,1.9573,2.01,1.9679,1.9472,1.974,1.9512,1.9366,1.9366,1.9366,1.9366,1.9366,1.9366,1.9352,1.9325,1.9352,1.9352,1.9325,1.9352,1.9366,1.9366,1.9366,1.9366,1.9366,1.9366,1.9366,1.9366,1.9339,1.9339,1.9366,1.9339,1.9345,1.9366,1.9366,1.9366,1.9366,1.9366,1.9366,1.9366,1.9366,1.9366,1.9127,1.7683,1.6138,1.448,1.2813,1.1257,0.994,0.9819,0.9822,0.9822,0.9822,0.9822,0.9822,0.9822,0.9822,0.9819,0.9802,0.9812,0.9819,0.9802,0.9812,0.9822,0.9822,0.9822,0.9822,0.9822,0.9822,0.9768,0.9625,0.9608,0.9547,0.9395,0.9395,0.9401,0.9401,0.9283,0.9201,0.9174,0.9147,0.9072,0.894,0.894,0.894,0.894,0.894,0.894,0.894,0.894,0.894,1.4502,1.4689,0.0,0.0,1.5745,1.6119,1.6246,1.6727,1.7248,1.7609,1.8063,1.8437,1.8557,1.8958,1.9219,1.9045,1.9219,1.9392,1.9452,1.9406,1.9412,1.9539,1.9446,1.9419,1.9539,1.9439,1.9392,1.9459,1.9406,1.9366,1.9366,1.9366,1.9366,1.9366,1.9366,1.9259,1.9018,1.9252,1.9252,1.9025,1.9259,1.9366,1.9366,1.9366,1.9366,1.9366,1.9366,1.9366,1.9352,1.9118,1.9158,1.9345,1.9112,1.9158,1.9366,1.9366,1.9366,1.9366,1.9366,1.9366,1.9366,1.9366,1.9366,1.9366,1.9004,1.7806,1.6138,1.4599,1.2933,1.1378,1.0183,0.9822,0.9822,0.9822,0.9822,0.9822,0.9822,0.9822,0.9788,0.9676,0.9744,0.9785,0.9676,0.9747,0.9822,0.9822,0.9822,0.9822,0.9822,0.9822,0.9768,0.9625,0.9608,0.9547,0.9395,0.9493,0.9561,0.9561,0.9635,0.9574,0.934,0.911,0.8971,0.894,0.894,0.894,0.894,0.894,0.894,0.894,0.894,0.894,1.4656,0.0,0.0,1.5498,0.0,1.6273,1.6273,1.662,1.7021,1.7315,1.7856,1.8277,1.8277,1.8644,1.8898,1.8738,1.8851,1.8945,1.8945,1.9065,1.9158,1.9158,1.9279,1.9366,1.9366,1.9366,1.9366,1.9366,1.9366,1.9366,1.9366,1.9232,1.9158,1.9158,1.9018,1.8871,1.8718,1.8871,1.8938,1.8925,1.9085,1.9158,1.9158,1.9299,1.9366,1.9366,1.9366,1.9366,1.9359,1.9199,1.9225,1.9352,1.9199,1.9232,1.9366,1.9366,1.9366,1.9366,1.9366,1.9366,1.9366,1.9366,1.9366,1.9366,1.9366,1.8286,1.685,1.602,1.3999,1.1976,1.114,1.0422,0.9822,0.9822,0.9822,0.9822,0.9822,0.9822,0.9798,0.9727,0.9771,0.9798,0.9724,0.9771,0.9822,0.9822,0.9822,0.9822,0.9822,0.9822,0.9791,0.972,0.971,0.968,0.9598,0.9602,0.9639,0.9707,0.9578,0.9466,0.9384,0.9096,0.894,0.894,0.894,0.894,0.894,0.894,0.894,0.894,0.894,0.894,1.4756,0.0,1.5164,1.5698,1.6012,0.0,1.6192,1.6426,1.6714,1.7014,1.7549,1.7969,1.7969,1.8257,1.847,1.8424,1.8457,1.849,1.849,1.8698,1.8844,1.8844,1.9065,1.9239,1.9285,1.9292,1.9312,1.9366,1.9319,1.9292,1.9292,1.9011,1.8844,1.8844,1.8617,1.8464,1.841,1.8464,1.8584,1.8764,1.8824,1.8844,1.8858,1.9105,1.9219,1.9219,1.9265,1.9292,1.9285,1.9239,1.9279,1.9366,1.9312,1.9325,1.9366,1.9366,1.9366,1.9366,1.9366,1.9366,1.9366,1.9366,1.9366,1.9366,1.9366,1.8519,1.7325,1.7085,1.4831,1.2573,1.2213,1.102,0.9822,0.9822,0.9822,0.9822,0.9822,0.9802,0.9778,0.9751,0.9744,0.9754,0.9781,0.9805,0.9822,0.9822,0.9822,0.9822,0.9822,0.9822,0.9822,0.9822,0.9822,0.9822,0.9822,0.9713,0.9696,0.9815,0.9449,0.9276,0.9378,0.912,0.8964,0.894,0.894,0.894,0.894,0.894,0.894,0.894,0.894,0.894,1.4556,0.0,1.5418,0.0,1.5858,1.5885,1.5885,1.6119,1.6413,1.67,1.7235,1.7642,1.7642,1.811,1.8404,1.8143,1.8323,1.849,1.849,1.8524,1.8551,1.8551,1.8584,1.8704,1.8958,1.8985,1.9092,1.9352,1.9125,1.8985,1.8985,1.8704,1.8551,1.8551,1.851,1.837,1.811,1.8364,1.837,1.8136,1.8417,1.8551,1.8551,1.8591,1.8611,1.8624,1.8878,1.8985,1.8965,1.8711,1.8905,1.9339,1.9085,1.9138,1.9366,1.9366,1.9366,1.9366,1.9366,1.9366,1.9366,1.9366,1.9366,1.9366,1.9366,1.9249,1.8765,1.7443,1.5666,1.4004,1.2573,1.102,0.9822,0.9822,0.9822,0.9822,0.9822,0.9724,0.9598,0.9466,0.9439,0.9483,0.9615,0.9741,0.9822,0.9822,0.9822,0.9822,0.9822,0.9822,0.9822,0.9822,0.9822,0.9822,0.9822,0.9802,0.9802,0.9819,0.9649,0.95,0.9388,0.9215,0.9066,0.894,0.894,0.894,0.894,0.894,0.894,0.894,0.894,0.894,1.4683,1.5077,1.5464,0.0,1.5832,1.5832,1.5832,1.5925,1.6112,1.64,1.6667,1.6947,1.7281,1.7555,1.7642,1.7348,1.7402,1.7549,1.7716,1.7876,1.8043,1.8223,1.839,1.8544,1.8664,1.8684,1.8738,1.8865,1.8758,1.8684,1.8684,1.8404,1.8243,1.8243,1.807,1.7916,1.7789,1.7916,1.7989,1.8016,1.8337,1.8404,1.825,1.841,1.849,1.8497,1.8624,1.8684,1.8684,1.8718,1.8791,1.8898,1.9098,1.9152,1.9138,1.9305,1.9366,1.9366,1.9366,1.9366,1.9366,1.9366,1.9366,1.9366,1.9366,1.9366,1.9249,1.8525,1.7208,1.5548,1.4004,1.2333,1.0899,1.0061,0.9822,0.9822,0.9822,0.971,0.9564,0.9412,0.9449,0.953,0.9598,0.9727,0.9822,0.9822,0.9822,0.9822,0.9822,0.9822,0.9822,0.9822,0.9822,0.9822,0.9822,0.9747,0.9737,0.9815,0.9608,0.949,0.9507,0.9279,0.9164,0.9188,0.9025,0.894,0.894,0.894,0.894,0.894,0.894,0.894,1.471,0.0,1.5264,1.5625,1.5718,1.5738,1.5812,1.5832,1.5912,1.6213,1.6273,1.6406,1.6847,1.6987,1.6967,1.674,1.6707,1.678,1.7007,1.7221,1.7475,1.7782,1.8016,1.821,1.8364,1.8377,1.841,1.8484,1.8424,1.8343,1.8263,1.7976,1.7782,1.7709,1.7482,1.7361,1.7361,1.7435,1.7542,1.7689,1.8076,1.8103,1.7829,1.8123,1.8257,1.8263,1.8343,1.8377,1.8404,1.8691,1.8684,1.8544,1.9058,1.9118,1.8945,1.9085,1.9192,1.9259,1.9259,1.9259,1.9265,1.9339,1.9366,1.9366,1.9366,1.9366,1.9366,1.9366,1.8286,1.6727,1.5548,1.4004,1.2453,1.0778,1.0389,1.024,0.9885,0.9652,0.9507,0.9354,0.9445,0.9551,0.9551,0.97,0.9822,0.9822,0.9822,0.9822,0.9822,0.9822,0.9822,0.9822,0.9822,0.9822,0.9822,0.9724,0.9707,0.9815,0.9581,0.949,0.9605,0.9354,0.9266,0.9381,0.9164,0.9032,0.8991,0.8957,0.894,0.894,0.894,0.894,1.4462,1.4556,0.0,1.5277,1.5418,1.5491,1.5765,1.5832,1.5912,1.6213,1.6273,1.6286,1.6313,1.6547,1.6727,1.6707,1.6707,1.6707,1.6727,1.674,1.686,1.7161,1.7215,1.7442,1.8016,1.807,1.819,1.847,1.823,1.7943,1.7642,1.7355,1.7068,1.6787,1.676,1.6747,1.6747,1.7027,1.7041,1.678,1.7355,1.7475,1.7208,1.7495,1.7629,1.7649,1.7943,1.807,1.809,1.839,1.8504,1.8517,1.8824,1.8938,1.8891,1.8631,1.8711,1.8945,1.8945,1.8945,1.8991,1.9279,1.9366,1.9366,1.9366,1.9366,1.9366,1.9366,1.8286,1.6968,1.685,1.5666,1.4123,1.2453,1.1959,1.148,0.9972,0.95,0.9347,0.9195,0.9289,0.9395,0.9395,0.9632,0.9822,0.9822,0.9822,0.9822,0.9822,0.9822,0.9822,0.9822,0.9822,0.9822,0.9822,0.9815,0.9815,0.9822,0.968,0.9602,0.9608,0.9456,0.9371,0.9381,0.9364,0.9286,0.9144,0.9005,0.894,0.894,0.894,0.894,1.4442,0.0,0.0,1.5017,1.5257,1.5424,1.5524,1.5698,1.5858,1.5965,1.5985,1.5985,1.5985,1.6233,1.6366,1.6172,1.6146,1.6213,1.64,1.6426,1.654,1.6827,1.6867,1.6947,1.7168,1.7188,1.7228,1.7335,1.7248,1.7134,1.7027,1.6921,1.6814,1.6707,1.6707,1.6707,1.6707,1.6814,1.6814,1.6707,1.6921,1.7068,1.7154,1.7255,1.7408,1.7589,1.7702,1.7749,1.7769,1.8076,1.809,1.7956,1.845,1.8644,1.8631,1.8531,1.8677,1.8925,1.8925,1.8925,1.8971,1.9272,1.9366,1.9366,1.9366,1.9366,1.9366,1.9366,1.9004,1.8241,1.7,1.6252,1.52,1.2508,1.1248,1.0456,0.9861,0.9632,0.9483,0.9327,0.9422,0.9527,0.9527,0.969,0.9822,0.9822,0.9822,0.9822,0.9822,0.9822,0.9822,0.9822,0.9822,0.9822,0.9822,0.9822,0.9822,0.9822,0.9774,0.9744,0.9744,0.9605,0.9571,0.9659,0.9479,0.9306,0.9154,0.91,0.9028,0.894,0.894,0.894,1.4322,0.0,0.0,1.4863,1.5037,1.5157,1.5351,1.5545,1.5685,1.5685,1.5758,1.5832,1.5832,1.5992,1.6059,1.5865,1.5832,1.5899,1.6092,1.6126,1.6233,1.6526,1.656,1.66,1.6693,1.6707,1.6707,1.6707,1.6707,1.666,1.6567,1.656,1.6513,1.6413,1.6413,1.6413,1.6413,1.6506,1.6506,1.6413,1.6613,1.6807,1.7001,1.7001,1.7215,1.7575,1.7475,1.7495,1.7609,1.7916,1.7862,1.7635,1.8143,1.8343,1.833,1.8223,1.8437,1.8764,1.8664,1.8758,1.8958,1.9152,1.9285,1.9366,1.9366,1.9366,1.9366,1.9366,1.9299,1.8955,1.7796,1.6715,1.5289,1.3236,1.1252,0.9808,0.9761,0.9676,0.9581,0.9479,0.954,0.9608,0.9608,0.9727,0.9822,0.9822,0.9822,0.9822,0.9822,0.9822,0.9822,0.9822,0.9822,0.9822,0.9822,0.9822,0.9822,0.9822,0.9822,0.9822,0.9822,0.973,0.9724,0.9819,0.9581,0.9384,0.9228,0.9178,0.9103,0.9011,0.896,0.894,0.0,0.0,0.0,1.4796,1.473,1.4669,1.5237,1.5378,1.5384,1.5384,1.5611,1.5805,1.5805,1.5812,1.5812,1.5812,1.5818,1.5832,1.5832,1.5832,1.5939,1.6226,1.6259,1.6373,1.6653,1.668,1.668,1.668,1.668,1.656,1.6279,1.6259,1.6126,1.5838,1.5832,1.5832,1.5832,1.6112,1.6112,1.5838,1.6406,1.6687,1.6693,1.67,1.7021,1.7555,1.7281,1.7321,1.7609,1.7909,1.7856,1.7609,1.7916,1.8036,1.8009,1.7695,1.7969,1.845,1.8163,1.8437,1.8925,1.8931,1.9132,1.9366,1.9366,1.9366,1.9366,1.9366,1.9152,1.8985,1.9265,1.7079,1.4657,1.4432,1.2073,0.9781,0.9765,0.9612,0.9612,0.9615,0.9615,0.9615,0.9615,0.973,0.9822,0.9822,0.9822,0.9822,0.9822,0.9822,0.9822,0.9822,0.9822,0.9822,0.9822,0.9822,0.9822,0.9822,0.9822,0.9822,0.9822,0.9822,0.9822,0.9822,0.9686,0.9544,0.9395,0.9232,0.915,0.9144,0.9001,0.894,1.4088,0.0,0.0,0.0,0.0,0.0,1.4723,1.493,1.5084,1.5084,1.515,1.5204,1.5204,1.5378,1.5518,1.5518,1.5691,1.5832,1.5832,1.5832,1.5858,1.5945,1.5952,1.5985,1.6066,1.6072,1.6072,1.6072,1.6072,1.6039,1.5952,1.5952,1.5912,1.5832,1.5832,1.5832,1.5832,1.5912,1.5912,1.5832,1.5992,1.6186,1.64,1.6607,1.6914,1.7275,1.7408,1.7508,1.7589,1.7675,1.7662,1.7589,1.7675,1.7849,1.8009,1.7695,1.7969,1.8477,1.8397,1.8611,1.8958,1.9172,1.9299,1.9366,1.9366,1.9366,1.9366,1.9366,1.9152,1.8898,1.8771,1.7369,1.5969,1.5901,1.3721,1.1487,1.1439,1.0509,0.9639,0.9744,0.9764,0.9764,0.9764,0.9795,0.9822,0.9822,0.9822,0.9822,0.9822,0.9822,0.9822,0.9822,0.9822,0.9822,0.9822,0.9822,0.9822,0.9822,0.9822,0.9822,0.9822,0.9822,0.9822,0.9822,0.9781,0.9741,0.9696,0.9334,0.91,0.8998,0.8957,0.894,1.4088,1.4088,1.4115,1.4242,0.0,0.0,1.4489,1.4656,1.4776,1.4776,1.4877,1.4963,1.4963,1.5104,1.5257,1.5378,1.5538,1.5691,1.5812,1.5832,1.6015,1.6574,1.6103,1.6015,1.6574,1.6109,1.6015,1.6574,1.6574,1.685,1.7296,1.6842,1.6574,1.6574,1.6109,1.5832,1.5832,1.5832,1.5832,1.5832,1.5832,1.5985,1.6273,1.6319,1.6567,1.6967,1.7014,1.7174,1.7402,1.7402,1.7475,1.7582,1.7582,1.7695,1.7829,1.7649,1.7969,1.847,1.835,1.8657,1.9098,1.9025,1.9085,1.9158,1.9038,1.9005,1.9005,1.9005,1.8965,1.8858,1.8564,1.7629,1.6738,1.6738,1.4852,1.303,1.223,1.1367,1.0554,0.9926,0.9774,0.9751,0.9812,0.9822,0.9822,0.9822,0.9822,0.9822,0.9822,0.9822,0.9822,0.9822,0.9822,0.9822,0.9822,0.9822,0.9822,0.9822,0.9822,0.9822,0.9822,0.9822,0.9822,0.9822,0.9764,0.97,0.9635,0.9378,0.914,0.894,0.894,0.894,1.4088,1.4088,0.0,1.4409,1.4282,0.0,1.4409,1.4476,1.4476,1.4476,1.4683,1.4959,1.5041,1.5178,1.53,1.5616,1.5654,1.5717,1.5792,1.592,1.6386,1.7598,1.685,1.6662,1.7777,1.685,1.6662,1.7777,1.787,1.8411,1.9405,1.8503,1.787,1.787,1.685,1.6103,1.6015,1.6015,1.592,1.5832,1.5832,1.5965,1.6219,1.5985,1.6159,1.6647,1.642,1.6613,1.7101,1.7134,1.7321,1.7582,1.7582,1.7582,1.7582,1.7582,1.7943,1.8404,1.8136,1.8584,1.9185,1.8664,1.8664,1.8824,1.8571,1.849,1.849,1.849,1.8698,1.8865,1.8604,1.7894,1.7325,1.7325,1.6026,1.442,1.2673,1.2183,1.1707,1.0037,0.9707,0.9673,0.9798,0.9822,0.9822,0.9822,0.9822,0.9822,0.9822,0.9822,0.9822,0.9822,0.9822,0.9822,0.9822,0.9822,0.9822,0.9822,0.9822,0.9822,0.9822,0.9822,0.9822,0.9822,0.9696,0.9557,0.9405,0.9391,0.9235,0.896,0.896,0.8954,1.4088,1.4088,1.4102,1.4155,1.4128,0.0,1.4162,1.4168,1.4168,1.4168,1.4215,1.4504,1.5401,1.6073,1.6615,1.7282,1.7243,1.6879,1.5913,1.6669,1.7412,1.7692,1.8311,1.8856,1.9131,1.8948,1.8856,1.9131,1.9131,1.9222,1.9497,1.9314,1.9131,1.9131,1.8948,1.8311,1.7318,1.7318,1.685,1.5832,1.5832,1.5858,1.5919,1.6106,1.6253,1.6366,1.6547,1.6687,1.6807,1.7048,1.7321,1.7582,1.7582,1.7582,1.7582,1.7582,1.7816,1.8123,1.8063,1.8317,1.8644,1.8531,1.8531,1.8564,1.851,1.849,1.849,1.849,1.8698,1.8911,1.8858,1.8863,1.8887,1.8887,1.7689,1.6071,1.4311,1.2899,1.152,1.0003,0.972,0.9788,0.9815,0.9822,0.9822,0.9822,0.9822,0.9822,0.9822,0.9822,0.9822,0.9822,0.9822,0.9822,0.9822,0.9822,0.9822,0.9822,0.9822,0.9822,0.9822,0.9822,0.9822,0.9822,0.9795,0.9707,0.9564,0.9442,0.9289,0.9113,0.9113,0.9049,1.4342,1.4409,1.4489,1.4342,1.4302,0.0,0.0,1.4088,1.4128,1.4275,1.4188,1.4453,1.5661,1.6077,1.6668,1.7863,1.7945,1.7737,1.7687,1.7677,1.8141,1.9314,1.9497,1.9761,2.0305,1.9852,1.9761,2.0395,2.0944,2.1311,2.1311,2.0764,2.0395,2.0395,1.9852,1.9222,1.8596,1.8596,1.7956,1.6763,1.6763,1.6386,1.5832,1.5985,1.6052,1.6072,1.6359,1.6573,1.6714,1.6867,1.7101,1.7382,1.7522,1.7495,1.7382,1.7528,1.7776,1.805,1.8036,1.823,1.8464,1.8317,1.827,1.8243,1.8083,1.8036,1.807,1.8223,1.837,1.8544,1.8844,1.9032,1.9145,1.9145,1.8551,1.7529,1.5755,1.4756,1.3558,1.124,1.0905,1.0778,0.994,0.9822,0.9822,0.9822,0.9822,0.9822,0.9822,0.9822,0.9822,0.9822,0.9822,0.9822,0.9822,0.9822,0.9822,0.9822,0.9822,0.9822,0.9822,0.9822,0.9788,0.9717,0.9717,0.9642,0.9496,0.9418,0.9303,0.915,0.9079,0.9008,1.4583,1.4696,1.4823,1.4583,1.4522,1.4442,0.0,0.0,0.0,1.4389,1.4412,1.4811,1.6124,1.6422,1.6937,1.8541,1.8566,1.8717,1.98,1.905,1.9131,2.1025,2.0543,2.0427,2.156,2.0764,2.0584,2.1569,2.258,2.3135,2.3135,2.2217,2.1667,2.1667,2.0674,2.0034,1.9852,1.9852,1.9222,1.8048,1.7777,1.7131,1.6204,1.592,1.5832,1.5845,1.6086,1.6319,1.654,1.66,1.6727,1.6934,1.7341,1.7355,1.7188,1.7475,1.7742,1.7956,1.7936,1.8103,1.8277,1.8036,1.7956,1.7909,1.7655,1.7622,1.7722,1.7976,1.8076,1.8217,1.8711,1.8838,1.8838,1.8838,1.8838,1.8307,1.6688,1.6392,1.5649,1.2979,1.2557,1.2097,1.0183,0.9822,0.9822,0.9822,0.9822,0.9822,0.9822,0.9822,0.9822,0.9822,0.9822,0.9822,0.9822,0.9822,0.9822,0.9822,0.9822,0.9822,0.9822,0.9795,0.9727,0.9612,0.9581,0.9503,0.9381,0.9351,0.9289,0.9195,0.9049,0.8981,1.4529,1.4543,1.4563,1.4529,1.4522,1.4442,1.4155,0.0,1.4095,1.4128,0.0,1.5876,1.6984,0.0,0.0,2.0182,2.0347,2.0689,2.1539,2.1227,2.1025,2.1293,2.1493,2.1967,2.2795,2.2775,2.2775,2.2872,2.3047,2.3135,2.3135,2.296,2.2862,2.2862,2.2775,2.2217,2.1114,2.1114,2.0486,1.9314,1.8234,1.7591,1.7412,1.6292,1.5832,1.5832,1.5865,1.5899,1.5952,1.6213,1.6186,1.6059,1.6881,1.7181,1.7188,1.7475,1.7602,1.7635,1.7635,1.7655,1.7682,1.7649,1.7635,1.7629,1.7595,1.7776,1.8003,1.8036,1.8237,1.8457,1.8524,1.8544,1.8544,1.8544,1.8544,1.8177,1.6652,1.6392,1.6,1.4492,1.4212,1.3407,1.0301,0.9822,0.9822,0.9822,0.9822,0.9822,0.9822,0.9822,0.9822,0.9822,0.9822,0.9822,0.9822,0.9822,0.9822,0.9822,0.9822,0.9822,0.9822,0.97,0.9625,0.9608,0.9476,0.9398,0.9381,0.9245,0.9239,0.9351,0.9201,0.9127,1.473,1.4643,1.4736,1.4563,1.4649,1.4703,1.4402,1.4342,1.4554,1.5397,0.0,0.0,0.0,0.0,0.0,0.0,1.9852,2.0228,2.1661,2.1317,2.1221,2.2193,2.2467,2.2656,2.2764,2.2998,2.2939,2.2451,2.2637,2.2773,2.2773,2.2773,2.2891,2.3135,2.29,2.2505,2.1957,2.1957,2.1056,1.9085,1.8851,1.7948,1.6574,1.6015,1.5832,1.5838,1.6012,1.6086,1.6092,1.6219,1.6199,1.6126,1.6493,1.674,1.6947,1.7408,1.7582,1.7582,1.7582,1.7582,1.7582,1.7582,1.7582,1.7582,1.7582,1.7675,1.7816,1.7996,1.8009,1.8043,1.8397,1.8364,1.823,1.823,1.8364,1.8373,1.768,1.7785,1.7449,1.6192,1.5948,1.5311,1.2928,1.2573,1.2573,1.2573,1.2573,1.2213,1.1257,1.1137,1.0778,0.9943,0.9822,0.9822,0.9822,0.9822,0.9822,0.9822,0.9744,0.9696,0.9696,0.9554,0.9435,0.9347,0.9283,0.9208,0.9123,0.9059,0.9103,0.9245,0.9096,0.9028,1.5677,1.5357,1.5211,1.4991,1.494,1.4763,1.4469,1.4708,1.5165,1.59,1.5655,0.0,0.0,0.0,1.71,1.917,0.0,1.9896,2.1622,2.1338,2.1435,2.2803,2.3066,2.2969,2.2549,2.2891,2.2832,2.2119,2.2344,2.251,2.251,2.2402,2.2588,2.3125,2.2734,2.2568,2.2685,2.2685,2.1785,1.9989,1.9636,1.858,1.6741,1.6103,1.5832,1.5838,1.6059,1.6152,1.6152,1.6152,1.6152,1.6159,1.6239,1.64,1.6647,1.7154,1.7395,1.7462,1.7462,1.7462,1.7462,1.7462,1.7462,1.7475,1.7555,1.7642,1.7736,1.7883,1.7816,1.7789,1.815,1.8083,1.7916,1.7916,1.8083,1.8263,1.835,1.8597,1.8545,1.764,1.7628,1.7325,1.6144,1.5198,1.4604,1.4604,1.4604,1.4128,1.3053,1.2453,1.1736,1.0539,1.0058,0.9822,0.9822,0.9822,0.9805,0.9768,0.9666,0.9591,0.9547,0.9401,0.9266,0.9154,0.9113,0.9042,0.894,0.894,0.8991,0.9093,0.8988,0.896,1.7719,1.6877,1.6026,1.6011,1.5275,1.4462,1.4168,1.5219,1.5933,1.4783,1.6537,1.7951,1.6835,1.7439,1.8437,1.9268,1.9758,0.0,0.0,2.1865,2.2012,2.248,2.2891,2.2969,2.2549,2.2891,2.2959,2.2519,2.251,2.251,2.251,2.2129,2.2285,2.3105,2.2734,2.2705,2.3115,2.3115,2.3028,2.2931,2.0576,1.9497,1.9306,1.6929,1.5832,1.5832,1.5838,1.5845,1.5845,1.5845,1.5845,1.5872,1.6159,1.6279,1.6326,1.6627,1.6914,1.7161,1.7161,1.7161,1.7161,1.7161,1.7161,1.7215,1.7495,1.7796,1.7969,1.7675,1.7809,1.7969,1.7689,1.7602,1.7595,1.7595,1.7602,1.7695,1.7996,1.8297,1.8591,1.8765,1.9057,1.9366,1.9249,1.6621,1.4604,1.4604,1.4604,1.4604,1.4485,1.3172,1.2213,1.2097,1.0781,0.9822,0.9822,0.9822,0.9764,0.9625,0.9612,0.9544,0.9395,0.9242,0.9157,0.9154,0.9018,0.8944,0.894,0.894,0.894,0.8947,0.894,0.9015,1.8138,1.7115,1.643,1.7199,1.6445,1.5798,1.676,1.6695,1.6658,1.7332,1.6772,1.6264,1.6507,1.6345,1.666,1.8421,1.8846,1.9534,0.0,2.1455,2.1504,2.165,2.2295,2.2666,2.2519,2.2646,2.2432,2.1719,2.167,2.167,2.167,2.1533,2.1719,2.2295,2.1894,2.1738,2.1875,2.1875,2.1441,2.0661,1.9519,1.8595,1.7788,1.6469,1.5832,1.5832,1.5832,1.5832,1.5832,1.5832,1.5832,1.5838,1.5939,1.5979,1.6039,1.6526,1.6767,1.6881,1.7081,1.7275,1.7435,1.7435,1.7435,1.7455,1.7555,1.7655,1.7716,1.7609,1.7655,1.7716,1.7609,1.7582,1.7582,1.7582,1.7742,1.7916,1.8023,1.843,1.8804,1.8905,1.9165,1.9366,1.9366,1.8525,1.7812,1.7812,1.7812,1.7337,1.6374,1.566,1.4589,1.2453,1.1736,1.102,0.994,0.9734,0.9615,0.9466,0.9364,0.9286,0.9232,0.9089,0.9011,0.9011,0.8964,0.894,0.894,0.894,0.894,0.894,0.894,0.8964,1.9594,1.8566,1.7875,1.8566,1.7552,1.6586,1.7581,1.7293,1.6996,1.7581,1.6755,1.6077,1.6237,1.5707,1.5854,1.7666,1.8151,1.893,0.0,2.1133,2.123,2.123,2.1992,2.2451,2.2305,2.2432,2.2158,2.1299,2.123,2.123,2.123,2.123,2.1504,2.209,2.1689,2.1543,2.1689,2.1543,2.1039,2.0273,1.9144,1.829,1.7619,1.6309,1.5732,1.5832,1.5832,1.5832,1.5832,1.5832,1.5832,1.5832,1.5832,1.5832,1.5879,1.6253,1.646,1.658,1.6774,1.7027,1.7275,1.7275,1.7341,1.7448,1.7549,1.7582,1.7602,1.7716,1.7669,1.7609,1.7716,1.7662,1.7582,1.7582,1.7736,1.7883,1.7883,1.835,1.8771,1.8771,1.9092,1.9366,1.9366,1.9366,1.9366,1.9366,1.9366,1.9004,1.804,1.7325,1.6105,1.401,1.2821,1.1495,0.9786,0.9581,0.9462,0.931,0.9208,0.913,0.9079,0.8937,0.8933,0.9093,0.8886,0.8855,0.9015,0.8855,0.8804,0.8859,0.8859,0.8886]},{"header":{"parameterUnit":"m.s-1","parameterCategory":1,"la1":30.6,"la2":29.2853,"lo1":-89.7004,"lo2":-87.6739,"dy":0.0162,"dx":0.0183,"nx":112,"ny":82,"refTime":"2023-08-13T06:00:00:Z","depth":0,"parameterNumber":3,"parameterNumberName":"V-component_of_WINDS"},"data":[0.0,0.0,0.0,0.0,0.0,0.0,0.0,0.0,0.0,0.0,0.0,0.0,0.0,0.0,0.0,0.0,0.0,0.0,0.0,0.0,0.0,0.0,0.0,0.0,0.0,0.0,0.0,0.0,0.0,0.0,0.0,0.0,0.0,0.0,0.0,0.0,0.0,0.0,0.0,0.0,0.0,0.0,0.0,0.0,0.0,0.0,0.0,0.0,0.0,0.0,0.0,0.0,0.0,0.0,0.0,0.0,0.0,0.0,0.0,0.0,0.0,0.0,0.0,0.0,0.0,0.0,0.0,0.0,0.0,0.0,0.0,0.0,0.0,0.0,0.0,0.0,0.0,0.0,0.0,0.0,0.0,0.0,0.0,0.0,0.0,0.0,0.0,0.0,0.0,0.0,-3.059,-3.1136,-3.3782,-3.5488,-3.5495,-3.5509,-3.4039,-3.0611,0.0,0.0,0.0,0.0,0.0,0.0,0.0,0.0,0.0,0.0,0.0,0.0,0.0,0.0,0.0,0.0,0.0,0.0,0.0,0.0,0.0,0.0,0.0,0.0,0.0,0.0,0.0,0.0,0.0,0.0,0.0,0.0,0.0,0.0,0.0,0.0,0.0,0.0,0.0,0.0,0.0,0.0,0.0,0.0,0.0,0.0,0.0,0.0,0.0,0.0,0.0,0.0,0.0,0.0,0.0,0.0,0.0,0.0,0.0,0.0,0.0,0.0,0.0,0.0,0.0,0.0,0.0,0.0,0.0,0.0,0.0,0.0,0.0,0.0,0.0,0.0,0.0,0.0,0.0,0.0,0.0,0.0,0.0,0.0,0.0,0.0,0.0,0.0,0.0,0.0,0.0,0.0,0.0,0.0,0.0,0.0,0.0,0.0,0.0,0.0,0.0,0.0,0.0,0.0,-3.1503,-3.4417,-3.5193,-3.5507,-3.5507,-3.5495,-3.4039,-3.0606,0.0,0.0,0.0,0.0,0.0,0.0,0.0,0.0,0.0,0.0,0.0,0.0,0.0,0.0,0.0,0.0,0.0,0.0,0.0,0.0,0.0,0.0,0.0,0.0,0.0,0.0,0.0,0.0,0.0,0.0,0.0,0.0,0.0,0.0,0.0,0.0,0.0,0.0,0.0,0.0,0.0,0.0,0.0,0.0,0.0,0.0,0.0,0.0,0.0,0.0,0.0,0.0,0.0,0.0,0.0,0.0,0.0,0.0,0.0,0.0,0.0,0.0,0.0,0.0,0.0,0.0,0.0,0.0,0.0,0.0,0.0,0.0,0.0,0.0,0.0,0.0,0.0,0.0,0.0,0.0,0.0,0.0,0.0,0.0,0.0,0.0,0.0,0.0,0.0,0.0,0.0,0.0,0.0,0.0,0.0,0.0,0.0,0.0,0.0,0.0,0.0,0.0,0.0,-3.3157,-3.3769,-3.5328,-3.5507,-3.5493,-3.5493,-3.5495,-3.4289,-3.1495,-3.0727,0.0,0.0,0.0,0.0,0.0,0.0,0.0,0.0,0.0,0.0,0.0,0.0,0.0,0.0,0.0,0.0,0.0,0.0,0.0,0.0,0.0,0.0,0.0,0.0,0.0,0.0,0.0,0.0,0.0,0.0,0.0,0.0,0.0,0.0,0.0,0.0,0.0,0.0,0.0,0.0,0.0,0.0,0.0,0.0,0.0,0.0,0.0,0.0,0.0,0.0,0.0,0.0,0.0,0.0,0.0,0.0,0.0,0.0,0.0,0.0,0.0,0.0,0.0,0.0,0.0,0.0,0.0,0.0,0.0,0.0,0.0,0.0,0.0,0.0,0.0,0.0,0.0,0.0,0.0,0.0,0.0,0.0,0.0,0.0,0.0,0.0,0.0,0.0,0.0,0.0,0.0,0.0,0.0,0.0,0.0,0.0,0.0,0.0,0.0,0.0,0.0,0.0,-3.5007,-3.5213,-3.5468,-3.5493,-3.5493,-3.5493,-3.5309,-3.4347,-3.2417,-3.1289,0.0,0.0,0.0,0.0,0.0,0.0,0.0,0.0,0.0,0.0,0.0,0.0,0.0,0.0,0.0,0.0,0.0,0.0,0.0,0.0,0.0,0.0,0.0,0.0,0.0,0.0,0.0,0.0,0.0,0.0,0.0,0.0,0.0,0.0,0.0,0.0,0.0,0.0,0.0,0.0,0.0,0.0,0.0,0.0,0.0,0.0,0.0,0.0,0.0,0.0,0.0,0.0,0.0,0.0,0.0,0.0,0.0,0.0,0.0,0.0,0.0,0.0,0.0,0.0,0.0,0.0,0.0,0.0,0.0,0.0,0.0,0.0,0.0,0.0,0.0,0.0,0.0,0.0,0.0,0.0,0.0,0.0,0.0,0.0,0.0,0.0,0.0,0.0,0.0,0.0,0.0,0.0,0.0,0.0,0.0,0.0,0.0,0.0,0.0,0.0,0.0,0.0,-3.3576,-3.434,-3.5391,-3.5493,-3.5493,-3.5493,-3.4757,-3.3872,-3.291,-3.2064,0.0,0.0,0.0,0.0,0.0,0.0,0.0,0.0,0.0,0.0,0.0,0.0,0.0,0.0,0.0,0.0,0.0,0.0,0.0,0.0,0.0,0.0,0.0,0.0,0.0,0.0,0.0,0.0,0.0,0.0,0.0,0.0,0.0,0.0,0.0,0.0,0.0,0.0,0.0,0.0,0.0,0.0,0.0,0.0,0.0,0.0,0.0,0.0,0.0,0.0,0.0,0.0,0.0,0.0,0.0,0.0,0.0,0.0,0.0,0.0,0.0,0.0,0.0,0.0,0.0,0.0,0.0,0.0,0.0,0.0,0.0,0.0,0.0,0.0,0.0,0.0,0.0,0.0,0.0,0.0,0.0,0.0,0.0,0.0,0.0,0.0,0.0,0.0,0.0,0.0,0.0,0.0,0.0,0.0,0.0,0.0,0.0,0.0,0.0,0.0,0.0,0.0,-3.3814,-3.4424,-3.5411,-3.5493,-3.5493,-3.5493,-3.4743,-3.3878,-3.2968,0.0,0.0,0.0,0.0,0.0,0.0,0.0,0.0,0.0,0.0,0.0,0.0,0.0,0.0,0.0,0.0,0.0,0.0,0.0,0.0,0.0,0.0,0.0,0.0,0.0,0.0,0.0,0.0,0.0,0.0,0.0,0.0,0.0,0.0,0.0,0.0,0.0,0.0,0.0,0.0,0.0,0.0,0.0,0.0,0.0,0.0,0.0,0.0,0.0,0.0,0.0,0.0,0.0,0.0,0.0,0.0,0.0,0.0,0.0,0.0,0.0,0.0,0.0,0.0,0.0,0.0,0.0,0.0,0.0,0.0,0.0,0.0,0.0,0.0,0.0,0.0,0.0,0.0,0.0,0.0,0.0,0.0,0.0,0.0,0.0,0.0,0.0,0.0,0.0,0.0,0.0,0.0,0.0,0.0,0.0,0.0,0.0,0.0,0.0,0.0,0.0,0.0,-3.289,-3.4,-3.4853,-3.5468,-3.5782,-3.5839,-3.5603,-3.4562,-3.368,-3.304,0.0,0.0,0.0,0.0,0.0,0.0,0.0,0.0,0.0,0.0,0.0,0.0,0.0,0.0,0.0,0.0,0.0,0.0,0.0,0.0,0.0,0.0,0.0,0.0,0.0,0.0,0.0,0.0,0.0,0.0,0.0,0.0,0.0,0.0,0.0,0.0,0.0,0.0,0.0,0.0,0.0,0.0,0.0,0.0,0.0,0.0,0.0,0.0,0.0,0.0,0.0,0.0,0.0,0.0,0.0,0.0,0.0,0.0,0.0,0.0,0.0,0.0,0.0,0.0,0.0,0.0,0.0,0.0,0.0,0.0,0.0,0.0,0.0,0.0,0.0,0.0,0.0,0.0,0.0,0.0,0.0,0.0,0.0,0.0,0.0,0.0,0.0,0.0,0.0,0.0,0.0,0.0,0.0,0.0,0.0,0.0,0.0,0.0,0.0,0.0,0.0,0.0,-3.1621,-3.3949,-3.5565,-3.5622,-3.6378,-3.6584,-3.5776,-3.4178,-3.3195,0.0,0.0,0.0,0.0,0.0,0.0,0.0,0.0,0.0,0.0,0.0,0.0,0.0,0.0,0.0,0.0,0.0,0.0,0.0,0.0,0.0,0.0,0.0,0.0,0.0,0.0,0.0,0.0,0.0,0.0,0.0,0.0,0.0,0.0,0.0,0.0,0.0,0.0,0.0,0.0,0.0,0.0,0.0,0.0,0.0,0.0,0.0,0.0,0.0,0.0,0.0,0.0,0.0,0.0,0.0,0.0,0.0,0.0,0.0,0.0,0.0,0.0,0.0,0.0,0.0,0.0,0.0,0.0,0.0,0.0,0.0,0.0,0.0,0.0,0.0,0.0,0.0,0.0,0.0,0.0,0.0,0.0,0.0,0.0,0.0,0.0,0.0,0.0,0.0,0.0,0.0,0.0,0.0,0.0,0.0,0.0,0.0,0.0,0.0,0.0,0.0,0.0,0.0,-3.3333,-3.5284,-3.6752,-3.743,-3.7185,-3.686,-3.6636,-3.4562,-3.3229,-3.3145,0.0,0.0,0.0,0.0,0.0,0.0,0.0,0.0,0.0,0.0,0.0,0.0,0.0,0.0,0.0,0.0,0.0,0.0,0.0,0.0,0.0,0.0,0.0,0.0,0.0,0.0,0.0,0.0,0.0,0.0,0.0,0.0,0.0,0.0,0.0,0.0,0.0,0.0,0.0,0.0,0.0,0.0,0.0,0.0,0.0,0.0,0.0,0.0,0.0,0.0,0.0,0.0,0.0,0.0,0.0,0.0,0.0,0.0,0.0,0.0,0.0,0.0,0.0,0.0,0.0,0.0,0.0,0.0,0.0,0.0,0.0,0.0,0.0,0.0,0.0,0.0,0.0,0.0,0.0,0.0,0.0,0.0,0.0,0.0,0.0,0.0,0.0,0.0,0.0,0.0,0.0,0.0,0.0,0.0,0.0,0.0,0.0,0.0,0.0,0.0,0.0,0.0,-3.4096,-3.6192,-3.7684,-3.8276,-3.7878,-3.743,-3.7132,-3.4808,-3.344,-3.3682,0.0,0.0,0.0,0.0,0.0,0.0,0.0,0.0,0.0,0.0,0.0,0.0,0.0,0.0,0.0,0.0,0.0,0.0,0.0,0.0,0.0,0.0,0.0,0.0,0.0,0.0,0.0,0.0,0.0,0.0,0.0,0.0,0.0,0.0,0.0,0.0,0.0,0.0,0.0,0.0,0.0,0.0,0.0,0.0,0.0,0.0,0.0,0.0,0.0,0.0,0.0,0.0,0.0,0.0,0.0,0.0,0.0,0.0,0.0,0.0,0.0,0.0,0.0,0.0,0.0,0.0,0.0,0.0,0.0,0.0,0.0,0.0,0.0,0.0,0.0,0.0,0.0,0.0,0.0,0.0,0.0,0.0,0.0,0.0,0.0,0.0,0.0,0.0,0.0,0.0,0.0,0.0,0.0,0.0,0.0,0.0,0.0,0.0,0.0,0.0,0.0,0.0,-3.4395,-3.6784,-3.841,-3.8632,-3.851,-3.813,-3.747,-3.5019,-3.3821,-3.452,0.0,0.0,0.0,0.0,0.0,0.0,0.0,0.0,0.0,0.0,0.0,0.0,0.0,0.0,0.0,0.0,0.0,0.0,0.0,0.0,0.0,0.0,0.0,0.0,0.0,0.0,0.0,0.0,0.0,0.0,0.0,0.0,0.0,0.0,0.0,0.0,0.0,0.0,0.0,0.0,0.0,0.0,0.0,0.0,0.0,0.0,0.0,0.0,0.0,0.0,0.0,0.0,0.0,0.0,0.0,0.0,0.0,0.0,0.0,0.0,-3.171,-3.152,0.0,0.0,0.0,0.0,0.0,0.0,0.0,0.0,0.0,0.0,0.0,0.0,0.0,0.0,0.0,0.0,0.0,0.0,0.0,0.0,0.0,0.0,0.0,0.0,0.0,0.0,0.0,0.0,0.0,0.0,0.0,0.0,0.0,0.0,0.0,0.0,0.0,0.0,0.0,0.0,-3.6036,-3.7579,-3.8957,-4.0434,-3.9387,-3.8458,-3.8179,-3.5869,-3.441,-3.4372,-3.3511,0.0,0.0,0.0,0.0,0.0,0.0,0.0,0.0,0.0,0.0,0.0,0.0,0.0,0.0,0.0,0.0,0.0,0.0,0.0,0.0,0.0,0.0,0.0,0.0,0.0,0.0,0.0,0.0,0.0,0.0,0.0,0.0,0.0,0.0,0.0,0.0,0.0,0.0,0.0,0.0,0.0,0.0,0.0,0.0,0.0,0.0,0.0,0.0,0.0,0.0,0.0,0.0,0.0,0.0,0.0,0.0,0.0,0.0,0.0,-3.4542,-3.3604,0.0,0.0,0.0,0.0,0.0,0.0,0.0,0.0,0.0,0.0,0.0,0.0,0.0,0.0,0.0,0.0,0.0,0.0,0.0,0.0,0.0,0.0,0.0,0.0,0.0,0.0,0.0,0.0,0.0,0.0,0.0,0.0,0.0,0.0,0.0,0.0,0.0,0.0,0.0,0.0,-3.6678,-3.816,-3.9555,-4.0954,-3.9531,-3.8479,-3.8415,-3.6096,-3.4717,-3.4918,-3.4197,0.0,0.0,0.0,0.0,0.0,0.0,0.0,0.0,0.0,0.0,0.0,0.0,0.0,0.0,0.0,0.0,0.0,0.0,0.0,0.0,0.0,0.0,0.0,0.0,0.0,0.0,0.0,0.0,0.0,0.0,0.0,0.0,0.0,0.0,0.0,0.0,0.0,0.0,0.0,0.0,0.0,0.0,0.0,0.0,0.0,0.0,0.0,0.0,0.0,0.0,0.0,0.0,0.0,-3.5957,-3.6618,-3.751,-3.766,-3.8263,-3.9136,-3.7826,-3.6241,-3.4624,-3.4546,0.0,0.0,0.0,0.0,0.0,0.0,0.0,0.0,0.0,0.0,0.0,0.0,0.0,0.0,0.0,0.0,0.0,0.0,0.0,0.0,0.0,0.0,-3.3891,-3.4314,-3.4103,-3.3564,-3.2756,0.0,0.0,0.0,0.0,0.0,0.0,0.0,0.0,0.0,0.0,0.0,-3.7027,-3.8756,-4.0184,-4.0883,-3.9424,-3.838,-3.8382,-3.6175,-3.5018,-3.5565,-3.4922,-3.4826,0.0,0.0,0.0,0.0,0.0,0.0,0.0,0.0,0.0,0.0,0.0,0.0,0.0,0.0,0.0,0.0,0.0,0.0,0.0,0.0,0.0,0.0,0.0,0.0,0.0,0.0,0.0,0.0,0.0,0.0,0.0,0.0,-3.2878,-3.2993,0.0,0.0,0.0,0.0,0.0,0.0,0.0,0.0,0.0,0.0,0.0,0.0,0.0,-3.4945,-3.5807,-3.7202,-3.7811,-3.7627,-3.9723,-4.0611,-4.0377,-4.1071,-4.1632,-4.2065,-4.1833,0.0,-3.9185,-3.8728,0.0,0.0,0.0,0.0,0.0,0.0,0.0,0.0,0.0,0.0,0.0,0.0,0.0,0.0,0.0,0.0,0.0,0.0,0.0,0.0,0.0,0.0,-3.6988,-3.5661,-3.6353,-3.7084,-3.6238,-3.4391,-3.2891,-3.2891,-3.2814,-3.2737,0.0,0.0,0.0,0.0,0.0,0.0,-3.7918,-3.9567,-4.0688,-4.0822,-3.9324,-3.8291,-3.8232,-3.6579,-3.5545,-3.5526,-3.5455,-3.5435,-3.5493,-3.5493,0.0,0.0,0.0,0.0,0.0,0.0,0.0,0.0,0.0,0.0,0.0,0.0,0.0,0.0,0.0,0.0,0.0,0.0,0.0,0.0,0.0,0.0,0.0,0.0,0.0,0.0,0.0,0.0,0.0,-3.3441,-3.4202,-3.3298,-3.4534,-3.472,0.0,0.0,0.0,0.0,0.0,0.0,0.0,0.0,0.0,-3.6376,-3.6413,-3.7019,-3.8303,-3.9019,-3.9804,-4.0719,-4.2286,-4.334,-4.3973,-4.4805,-4.5135,-4.5017,-4.5017,-4.4307,-4.306,-4.1399,-4.0412,-3.9931,0.0,0.0,0.0,0.0,-3.9258,-3.8931,-3.9546,-3.8873,-3.77,-3.7507,0.0,0.0,0.0,0.0,0.0,0.0,0.0,-3.6815,-3.643,-3.7853,-3.9335,-3.9104,-3.9238,-3.9431,-3.9546,-3.8296,-3.6738,-3.5315,-3.468,-3.4218,-3.3718,-3.3622,0.0,0.0,0.0,-3.859,-3.938,-4.066,-4.1466,-4.1463,-3.9934,-3.8916,-3.8878,-3.7334,-3.6339,-3.6281,-3.582,-3.5565,-3.5565,-3.5526,-3.5493,0.0,0.0,0.0,0.0,0.0,0.0,0.0,0.0,0.0,0.0,0.0,0.0,0.0,0.0,0.0,0.0,0.0,0.0,0.0,0.0,0.0,0.0,0.0,0.0,0.0,0.0,0.0,0.0,-3.4749,-3.5372,-3.3839,-3.5762,-3.6248,0.0,0.0,0.0,0.0,0.0,0.0,-3.7422,-3.7533,-3.8083,-3.9294,-3.9331,-4.001,-4.1423,-4.1423,-4.2247,-4.3876,-4.4512,-4.5531,-4.6791,-4.7422,-4.7546,-4.7221,-4.7221,-4.6721,-4.574,-4.3412,-4.2066,-4.145,-4.1239,-4.1162,-4.1219,-4.1643,-4.1527,-4.1316,-4.2393,-4.1912,-4.07,-3.9873,-3.9027,-3.795,-3.5815,0.0,0.0,0.0,0.0,-3.8969,-3.8969,-4.0065,-4.1335,-4.1989,-4.1643,-4.1335,-4.1989,-4.1623,-4.0469,-3.8123,-3.7199,-3.6565,-3.5911,-3.5795,0.0,-3.668,-3.8811,-4.0485,-4.0831,-4.1909,-4.2486,-4.2056,-4.0639,-3.9642,-3.9388,-3.8027,-3.7185,-3.7185,-3.6531,-3.6161,-3.6219,-3.618,-3.6142,-3.6142,0.0,0.0,0.0,0.0,0.0,0.0,0.0,0.0,0.0,0.0,0.0,0.0,0.0,0.0,0.0,0.0,0.0,0.0,0.0,0.0,0.0,0.0,0.0,0.0,0.0,0.0,0.0,0.0,0.0,-3.5062,-3.7771,0.0,0.0,0.0,0.0,-3.8395,-3.7734,-3.834,-4.0744,-4.0873,-4.1937,-4.4268,-4.4342,-4.4745,-4.559,-4.559,-4.5986,-4.6797,-4.6835,-4.7257,-4.801,-4.8048,-4.8048,-4.8048,-4.8048,-4.7586,-4.6701,-4.4913,-4.4143,-4.4028,-4.3278,-4.297,-4.2874,-4.2085,-4.2297,-4.2854,-4.2124,-4.1816,-4.1989,-4.3489,-4.3431,-4.2604,-4.1643,-4.0796,0.0,0.0,-4.0873,-4.1623,-4.1623,-4.2297,-4.2989,-4.3028,-4.3008,-4.2989,-4.3028,-4.3008,-4.2431,-4.0662,-4.0277,-4.0219,-4.0181,0.0,-4.02,-4.0239,-4.1758,-4.2678,-4.2017,-4.3349,-4.3753,-4.2171,-4.1193,-4.0273,-3.9373,-3.8469,-3.795,-3.795,-3.7892,-3.7873,-3.7873,-3.7873,-3.7873,-3.7873,-3.7873,0.0,0.0,0.0,0.0,0.0,0.0,0.0,0.0,0.0,0.0,0.0,0.0,0.0,0.0,0.0,0.0,0.0,0.0,0.0,0.0,0.0,0.0,0.0,0.0,0.0,0.0,0.0,0.0,-3.8255,-4.0561,0.0,-3.957,-3.9662,-4.0157,-4.0965,-4.1222,-4.2176,-4.4103,-4.4195,-4.5057,-4.6966,-4.6242,-4.6227,-4.7043,-4.6781,-4.6902,-4.7395,-4.7965,-4.8464,-4.8952,-4.951,-4.9471,-4.8933,-4.8933,-4.8471,-4.7586,-4.6451,-4.5643,-4.5105,-4.4816,-4.4701,-4.4662,-4.4355,-4.4432,-4.4662,-4.4355,-4.3874,-4.3335,-4.2854,-4.2124,-4.1373,-4.1066,-4.1143,-4.1335,-4.1335,-4.2335,-4.3412,-4.3412,-4.4066,-4.4701,-4.4701,-4.4701,-4.4701,-4.4701,-4.4701,-4.4528,-4.3893,-4.245,-4.1197,-4.0712,-4.0631,-4.0843,-4.1424,-4.2537,-4.3365,-4.358,-4.4129,-4.4249,-4.3541,-4.2736,-4.1873,-4.0989,-4.0104,-3.9161,-3.8127,-3.8027,-3.7546,-3.6507,-3.745,-3.7738,-3.718,-3.7719,-3.8007,0.0,0.0,0.0,0.0,0.0,0.0,0.0,0.0,0.0,0.0,0.0,0.0,0.0,0.0,0.0,0.0,0.0,0.0,0.0,0.0,0.0,0.0,0.0,0.0,0.0,-4.0157,-4.1423,-4.1148,-4.3002,-4.3883,-4.2837,-4.2983,-4.3479,-4.4268,-4.4819,-4.57,-4.7076,-4.715,-4.7755,-4.9114,-4.8347,-4.8081,-4.8322,-4.8191,-4.8173,-4.8251,-4.8962,-4.9494,-4.9856,-5.0433,-5.0375,-4.9837,-4.9837,-4.9336,-4.8509,-4.7971,-4.7221,-4.6394,-4.5817,-4.5778,-4.6028,-4.6028,-4.6201,-4.6432,-4.6432,-4.5893,-4.4989,-4.3893,-4.2931,-4.222,-4.222,-4.2624,-4.3085,-4.3085,-4.3874,-4.4739,-4.4739,-4.5163,-4.5586,-4.5586,-4.5586,-4.5586,-4.5586,-4.5586,-4.5586,-4.5586,-4.4239,-4.2929,-4.2425,-4.2345,-4.2556,-4.3176,-4.3769,-4.4341,-4.4866,-4.494,-4.4776,-4.4408,-4.3891,-4.3201,-4.2316,-4.17,-4.0796,-3.9435,-3.9315,-3.8681,-3.7315,-3.8277,-3.8565,-3.7988,-3.8546,-3.8719,-3.8484,0.0,0.0,0.0,0.0,0.0,0.0,0.0,0.0,0.0,0.0,0.0,0.0,0.0,0.0,0.0,0.0,0.0,0.0,0.0,0.0,0.0,0.0,0.0,-4.0047,-4.1442,-4.2763,-4.3589,-4.5076,-4.6049,-4.6049,-4.6764,-4.7553,-4.8324,-4.8379,-4.8765,-4.9609,-4.9627,-5.0013,-5.0857,-5.082,-5.0457,-4.9703,-4.9989,-4.9931,-4.9541,-4.9962,-5.0355,-5.0702,-5.0721,-5.0721,-5.0702,-5.0702,-5.0221,-4.9433,-4.9413,-4.8894,-4.799,-4.6317,-4.6182,-4.6951,-4.6951,-4.7432,-4.8105,-4.8105,-4.7586,-4.6951,-4.6951,-4.6374,-4.5682,-4.5682,-4.5682,-4.5663,-4.5643,-4.5663,-4.5663,-4.5605,-4.5605,-4.5624,-4.5624,-4.5624,-4.5643,-4.5663,-4.5663,-4.5643,-4.5663,-4.5663,-4.5624,-4.5605,-4.5605,-4.5605,-4.5605,-4.5605,0.0,-4.5776,-4.5804,-4.5468,-4.4622,-4.4526,-4.416,-4.322,-4.3104,-4.272,-4.1816,-4.1758,-4.1354,-4.045,-4.0469,-4.0489,-4.0489,-4.0489,-4.0158,-3.9441,0.0,0.0,0.0,0.0,0.0,0.0,0.0,0.0,0.0,0.0,0.0,0.0,0.0,0.0,0.0,0.0,0.0,0.0,0.0,0.0,0.0,-4.146,-4.2708,-4.3296,-4.4782,-4.6305,-4.7682,-4.8802,-4.9462,-4.9462,-4.9664,-4.9884,-5.0105,-5.0105,-5.0472,-5.1298,-5.0784,-5.1114,-5.2509,-5.1654,-5.1343,-5.1695,-5.1212,-5.0919,-5.0817,-5.1216,-5.116,-5.0721,-5.1298,-5.1241,-5.0702,-5.0702,-5.0548,-5.0279,-4.9663,-4.926,-4.8933,-4.7836,-4.7567,-4.7778,-4.7778,-4.7913,-4.8105,-4.8105,-4.7971,-4.7778,-4.7778,-4.7605,-4.7413,-4.7413,-4.7413,-4.7298,-4.6721,-4.6971,-4.7124,-4.5913,-4.6067,-4.6547,-4.6547,-4.6547,-4.6701,-4.7298,-4.6951,-4.6721,-4.7298,-4.6932,-4.6374,-4.5853,-4.5757,-4.5757,-4.5815,-4.5815,-4.5794,-4.58,-4.5808,-4.568,-4.5334,-4.5315,-4.4949,-4.4047,-4.3431,-4.245,-4.095,-4.0854,-4.02,-3.8738,-3.9854,-4.0489,-4.0489,-4.0489,-4.0446,0.0,0.0,0.0,0.0,0.0,0.0,0.0,0.0,0.0,0.0,0.0,0.0,0.0,0.0,0.0,0.0,0.0,0.0,0.0,0.0,0.0,0.0,-4.3975,-4.5645,-4.7498,-4.8269,-4.9132,-5.0398,-5.0986,-5.1573,-5.2234,-5.1701,-5.1573,-5.227,-5.2013,-5.2013,-5.2472,-5.2068,-5.2234,-5.3188,-5.2639,-5.2399,-5.2547,-5.2418,-5.2164,-5.1847,-5.2248,-5.2202,-5.176,-5.2241,-5.1991,-5.1202,-5.1202,-5.101,-5.0644,-5.0144,-5.0144,-5.0298,0.0,0.0,0.0,0.0,-4.9183,-4.9183,-4.9183,-4.8952,-4.8644,-4.8644,-4.8394,-4.8105,-4.8105,-4.8105,-4.8009,-4.7528,-4.774,-4.7875,-4.6894,-4.7028,-4.7413,-4.7413,-4.7413,-4.7528,-4.8009,-4.774,-4.7548,-4.8009,-4.7721,0.0,-4.6836,-4.6759,-4.6663,-4.6355,-4.6605,-4.6547,-4.5815,-4.6028,-4.6086,-4.5643,-4.5586,-4.5393,-4.4893,-4.4085,0.0,0.0,0.0,-4.0431,-3.9104,-3.9969,0.0,0.0,0.0,-4.1104,-4.1254,-4.1434,0.0,0.0,-4.0231,-4.082,0.0,0.0,0.0,0.0,0.0,0.0,0.0,0.0,0.0,0.0,0.0,0.0,0.0,0.0,0.0,0.0,-4.6617,-4.8746,-5.183,-5.1811,-5.1701,-5.2325,-5.2399,-5.2931,-5.4271,-5.3188,-5.2949,-5.4308,-5.383,-5.3482,-5.3482,-5.3482,0.0,0.0,0.0,-5.3498,-5.2679,-5.338,-5.3377,-5.2679,-5.313,-5.3299,-5.3203,-5.3299,-5.2876,-5.2049,-5.1952,-5.1491,-5.0818,-5.0741,-5.1164,-5.1683,-4.9413,-4.9009,-4.9779,-5.0548,-5.0837,-5.0837,-5.0837,0.0,0.0,-4.9548,-4.9029,-4.8394,-4.8394,-4.8394,-4.8375,-4.8279,-4.8317,-4.8355,-4.8144,-4.8182,-4.8259,-4.8259,-4.8259,-4.8279,-4.8375,-4.8317,-4.8279,-4.8375,-4.8317,-4.8279,-4.8375,-4.824,-4.7855,-4.7144,-4.7644,-4.7528,-4.5951,-4.6413,-4.6567,-4.5682,-4.5586,0.0,-4.5586,-4.4797,-4.3989,-4.3278,-4.2335,-4.1508,-4.0816,-4.0585,-4.0585,-4.0777,-4.147,-4.1912,-4.2143,-4.2563,-4.2324,-4.1479,-4.144,-4.1546,0.0,0.0,0.0,0.0,0.0,0.0,0.0,0.0,0.0,0.0,0.0,0.0,0.0,0.0,0.0,-4.8049,-4.9976,-5.172,-5.3665,-5.4932,-5.5464,-5.495,-5.4895,-5.4766,-5.4436,-5.4711,-5.4748,-5.4436,-5.4858,-5.5133,-5.5133,-5.5133,-5.484,-5.4197,-5.4228,-5.3907,-5.3097,-5.3253,-5.3237,-5.3086,-5.3877,0.0,-5.3222,-5.3933,-5.378,-5.2914,-5.2222,-5.1818,-5.1625,-5.0971,-5.1164,-5.1856,-5.1375,-5.1279,-5.1452,-5.1606,-5.1683,-5.1683,-5.1683,-5.1125,-5.0452,-5.0452,-5.0317,-5.0202,-5.0202,-5.0202,0.0,-4.9356,-4.9644,-4.9875,-4.8471,-4.8625,-4.9144,-4.9144,-4.9144,-4.9336,-5.0048,-4.9644,-4.9356,-5.0048,-4.9625,-4.9375,-5.0067,-4.9029,-4.8048,-4.7894,-4.8009,-4.7759,-4.6778,-4.6797,-4.6567,-4.5682,-4.5586,-4.5586,-4.5586,-4.4797,-4.422,-4.4085,-4.2643,-4.2047,-4.2585,-4.1239,-4.1162,-4.2566,-4.2066,-4.22,-4.2972,-4.3069,-4.3147,-4.3258,-4.4608,-4.5265,0.0,0.0,0.0,0.0,0.0,0.0,0.0,0.0,0.0,0.0,0.0,-4.447,-4.5718,0.0,-4.8673,-5.1481,-5.2637,-5.3757,-5.5372,-5.629,-5.651,-5.5684,-5.5959,-5.6033,-5.5647,-5.5592,-5.5592,-5.5611,-5.5592,-5.5592,-5.5592,-5.5592,-5.5409,-5.5005,-5.5189,-5.505,-5.4466,-5.4641,-5.4667,-5.4459,-5.4898,-5.4876,-5.4472,-5.4895,-5.4645,-5.3837,-5.3395,-5.2953,-5.2549,-5.2587,-5.2587,-5.2587,-5.3029,-5.2933,-5.2549,-5.2549,-5.2549,-5.2549,-5.2549,-5.201,-5.1298,-5.1298,-5.1029,-5.0702,-5.0702,-5.0702,-5.0606,-5.0164,-5.0356,-5.0587,-5.0125,-5.0029,-5.0144,-5.0567,-5.0337,-5.0164,-5.0606,-5.0356,-5.0183,-5.0606,-5.0337,-5.0183,-5.0606,-4.9971,-4.924,-4.8817,-4.9125,-4.8933,-4.7663,-4.7875,-4.7817,-4.6932,-4.649,-4.624,-4.624,-4.5047,-4.4124,-4.372,-4.2912,-4.2643,-4.3085,-4.2258,-4.22,-4.3085,-4.3066,-4.3278,-4.3758,-4.4259,-4.4539,-4.4673,-4.5782,-4.6308,0.0,0.0,0.0,0.0,0.0,0.0,0.0,-4.4635,-4.436,-4.5828,-4.6764,-4.7921,-4.9921,-5.0949,-5.2197,-5.4289,-5.4766,-5.5317,-5.662,-5.6932,-5.6785,-5.6124,-5.6638,-5.6969,-5.6822,-5.6363,-5.6271,-5.6767,-5.6345,-5.6051,-5.6051,-5.6051,-5.5978,-5.5831,-5.615,-5.6105,-5.5704,-5.6097,-5.6054,-5.5561,-5.5742,-5.573,-5.5577,-5.5662,-5.5338,-5.4722,-5.4568,-5.401,-5.328,-5.4145,-5.4087,-5.3549,-5.4395,-5.4299,-5.3664,-5.351,-5.3453,-5.3453,-5.3453,-5.2779,-5.1933,-5.2106,-5.1491,-5.0721,-5.0894,-5.0818,-5.0702,-5.0702,-5.0798,-5.1048,-5.1548,-5.1298,-5.1048,-5.1548,-5.1164,-5.0702,-5.0702,-5.0702,-5.0702,-5.0702,-5.0702,-5.0702,-5.0702,-5.0702,-5.0452,-4.976,-5.024,-5.0125,-4.8567,-4.8971,-4.9067,-4.8202,-4.7394,-4.6836,-4.6663,-4.5355,-4.4278,-4.3624,-4.3431,-4.3412,-4.3585,-4.3278,-4.3258,-4.3585,-4.4066,-4.4374,-4.4547,-4.5372,-4.5719,-4.562,-4.5995,-4.6208,-4.3814,-4.4085,-4.5204,-4.726,-4.7297,-4.7774,0.0,-5.0949,-5.0105,-5.1004,-5.183,-5.2472,-5.2766,-5.3463,-5.4308,-5.5299,-5.6069,-5.6602,-5.6785,-5.7428,-5.7831,-5.774,-5.7813,-5.7593,-5.6877,-5.7354,-5.7464,-5.6859,-5.7373,-5.7721,-5.7721,-5.7721,-5.7391,-5.6693,-5.6702,-5.6386,-5.5644,-5.6007,-5.5828,-5.5079,-5.5852,-5.5866,-5.5186,-5.5554,-5.5645,-5.553,-5.4799,-5.401,-5.328,-5.4145,-5.4434,-5.4434,-5.5241,-5.5511,-5.5318,-5.4626,-5.4357,-5.4357,-5.4357,-5.328,-5.2029,-5.2799,-5.1991,-5.0818,-5.1548,-5.1279,-5.0702,-5.0702,-5.1202,-5.1625,-5.0991,-5.1298,-5.1606,-5.0971,-5.076,-5.0702,-5.0702,-5.0702,-5.0702,-5.0702,-5.0702,-5.0702,-5.0702,-5.0702,-5.0664,-5.0567,-5.0625,-5.0337,-4.9375,-4.9336,-4.9067,-4.8202,-4.7394,-4.6586,-4.5797,-4.5566,-4.5413,-4.5316,-4.4586,-4.4509,-4.5278,-4.3893,-4.3797,-4.5278,-4.4643,-4.4682,-4.5451,-4.5566,-4.5605,-4.5603,-4.5656,-4.5899,-4.4345,-4.548,-4.6929,-4.748,-4.8802,-5.0527,-5.2711,-5.2692,-5.2692,-5.4436,-5.5427,-5.6143,-5.662,-5.6987,-5.7299,-5.7648,-5.7593,-5.7501,-5.7501,-5.7795,-5.7831,-5.7373,-5.7703,-5.7868,-5.7538,-5.7795,-5.785,-5.7519,-5.7813,-5.7997,-5.7997,-5.7997,-5.785,-5.7519,-5.7501,-5.7195,-5.6654,-5.6803,-5.6649,-5.612,-5.6002,-5.5773,-5.5432,-5.5133,-5.5134,-5.5293,-5.4451,-5.405,-5.3953,-5.3799,-5.4049,-5.453,-5.4876,-5.528,-5.5665,-5.5318,-5.5203,-5.5203,-5.5203,-5.4414,-5.3472,-5.3837,-5.3145,-5.2222,-5.2549,-5.2414,-5.2145,-5.2145,-5.2395,-5.2702,-5.2876,-5.2779,-5.2702,-5.2876,-5.2145,-5.1395,-5.1395,-5.1029,-5.0702,-5.0702,-5.0702,-5.0702,-5.0702,-5.0702,-5.0702,-5.0702,-5.0702,-5.0567,-5.0202,-5.0164,-4.9625,-4.8259,-4.7798,-4.7067,-4.5701,-4.5586,-4.5586,-4.5586,-4.5259,-4.522,-4.5566,-4.4932,-4.4874,-4.5586,-4.524,-4.524,-4.5586,-4.5586,-4.5586,-4.5603,-4.5875,-4.6103,-4.4949,-4.6636,-4.8324,-4.8434,-5.0912,-5.3537,-5.4344,-5.4876,-5.5684,-5.7446,-5.8253,-5.8841,-5.9428,-5.9538,-5.9483,-5.9263,-5.8914,-5.851,-5.8052,-5.8198,-5.796,-5.6932,-5.7317,-5.7666,-5.7666,-5.7868,-5.7997,-5.7997,-5.7997,-5.7997,-5.7997,-5.7997,-5.7997,-5.7997,-5.7997,-5.7847,-5.7552,-5.7552,-5.733,-5.6855,-5.6382,-5.6011,-5.5692,-5.511,-5.4979,-5.5243,-5.4587,-5.4522,-5.478,-5.4145,-5.426,-5.4818,-5.4818,-5.5184,-5.5703,-5.5703,-5.5703,-5.5703,-5.5703,-5.5164,-5.453,-5.4761,-5.4087,-5.3241,-5.3491,-5.3395,-5.3203,-5.3203,-5.3203,-5.3299,-5.3683,-5.3318,-5.2953,-5.3356,-5.2491,-5.1568,-5.1568,-5.1106,-5.0702,-5.0702,-5.0702,-5.0702,-5.0702,-5.0702,-5.0702,-5.0702,-5.0702,-5.0702,-5.0702,-5.0491,-4.9683,-4.7952,-4.7778,-4.7182,-4.572,-4.5586,-4.5586,-4.5586,-4.5586,-4.5586,-4.5586,-4.5586,-4.5586,-4.5586,-4.5586,-4.5586,-4.5586,-4.5586,-4.5586,-4.5603,-4.6088,-4.6298,-4.5443,-4.7058,-4.8875,-5.1261,-5.4271,-5.6877,-5.7666,-5.9061,-6.0199,-6.0291,-6.0309,-6.0346,-6.0364,-6.0364,-6.0126,-5.9336,-5.9832,-5.9777,-5.8217,-5.8676,-5.8584,-5.7005,-5.6822,-5.684,-5.684,-5.7538,-5.7997,-5.7997,-5.7997,-5.7997,-5.7997,-5.7997,-5.7997,-5.7997,-5.7997,-5.7978,-5.8006,-5.8006,-5.7602,-5.6812,-5.7163,-5.6762,-5.5692,-5.567,-5.5662,-5.5684,-5.5665,-5.5645,-5.5665,-5.5645,-5.5645,-5.5665,-5.5665,-5.5684,-5.5703,-5.5703,-5.5703,-5.5703,-5.5703,-5.5164,-5.4626,-5.5415,-5.4549,-5.3356,-5.4203,-5.3876,-5.3203,-5.3203,-5.3203,-5.301,-5.2202,-5.1972,-5.176,-5.0991,-5.076,-5.0741,-5.0741,-5.0721,-5.0702,-5.0702,-5.0702,-5.0702,-5.0702,-5.0702,-5.0702,-5.0702,-5.0702,-5.0702,-5.0702,-4.9952,-4.8798,-4.7124,-4.6951,-4.6567,-4.5682,-4.5586,-4.5586,-4.5586,-4.5586,-4.5586,-4.5586,-4.5586,-4.5586,-4.5586,-4.5586,-4.5586,-4.5586,-4.5586,-4.5586,-4.5603,-4.6088,-4.6298,-4.6562,-4.9077,-5.1885,-5.3243,-5.5611,-5.7941,-5.93,-6.0841,-6.1998,-6.1998,-6.1153,-6.0254,-5.9722,-5.8749,-5.7923,-5.7666,-5.829,-5.8621,-5.807,-5.8235,-5.7813,-5.6198,-5.695,-5.7171,-5.6106,-5.673,-5.7428,-5.796,-5.7997,-5.7997,-5.7997,-5.7997,-5.7997,-5.7997,-5.7997,-5.7997,-5.7997,-5.7997,-5.7593,-5.6804,-5.584,-5.4944,-5.4051,-5.4055,-5.4202,-5.444,-5.4153,-5.4196,-5.4407,-5.4137,-5.4376,-5.4895,-5.4895,-5.5222,-5.5703,-5.5703,-5.5703,-5.5703,-5.5703,-5.5164,-5.453,-5.4818,-5.4511,-5.401,-5.3722,-5.4203,-5.4741,-5.4203,-5.4453,-5.4664,-5.3837,-5.3626,-5.3414,-5.2568,-5.1914,-5.151,-5.151,-5.1087,-5.0702,-5.0702,-5.0702,-5.0702,-5.0702,-5.0702,-5.0702,-5.0702,-5.0702,-5.0702,-5.0702,-5.0433,-4.9817,-4.8682,-4.8048,-4.7355,-4.6528,-4.5932,-4.5586,-4.5586,-4.5586,-4.5586,-4.5586,-4.5586,-4.5586,-4.5586,-4.5586,-4.5586,-4.5586,-4.5586,-4.5586,-4.5603,-4.577,-4.5998,-4.8156,-5.0986,-5.3959,-5.5335,-5.7281,-5.9208,-6.0529,-6.1851,-6.2732,-6.2438,-6.1098,-5.974,-5.8933,-5.7464,-5.629,-5.5996,-5.6381,-5.6804,-5.7097,-5.7134,-5.6859,-5.6106,-5.6932,-5.7152,-5.6124,-5.651,-5.7134,-5.7941,-5.7997,-5.7997,-5.7997,-5.7997,-5.7997,-5.7997,-5.7997,-5.7997,-5.7997,-5.7703,-5.7171,-5.6363,-5.5202,-5.4345,-5.3828,-5.3732,-5.3814,-5.403,-5.379,-5.3796,-5.4021,-5.3786,-5.3976,-5.4517,-5.4656,-5.5029,-5.5512,-5.564,-5.5703,-5.5703,-5.5703,-5.5357,-5.4934,-5.4934,-5.4934,-5.4761,-5.3914,-5.4414,-5.5164,-5.4645,-5.4645,-5.4761,-5.4549,-5.4049,-5.3433,-5.2876,-5.2087,-5.1471,-5.1471,-5.1048,-5.0702,-5.0702,-5.0702,-5.0702,-5.0702,-5.0702,-5.0702,-5.0702,-5.0702,-5.0587,-5.0279,-5.024,-4.9894,-4.9029,-4.8182,-4.7471,-4.6951,-4.6105,-4.572,-4.6028,-4.5759,-4.574,-4.6047,-4.5759,-4.5586,-4.5586,-4.5586,-4.5586,-4.5586,-4.5586,-4.5586,-4.5603,-4.5596,-4.5856,-5.02,-5.2726,-5.5089,-5.7483,-5.9245,-6.0603,-6.1355,-6.2199,-6.2548,-6.1612,-6.0144,-5.8749,-5.785,-5.6473,-5.5225,-5.4454,-5.4473,-5.484,-5.5611,-5.5702,-5.5978,-5.6712,-5.684,-5.6859,-5.6804,-5.684,-5.7189,-5.7941,-5.7997,-5.7997,-5.7997,-5.7997,-5.7997,-5.7997,-5.7997,-5.7978,-5.7941,-5.7097,-5.629,-5.5519,-5.5124,-5.4931,-5.4894,-5.4578,-5.4439,-5.4439,-5.4471,-5.4452,-5.4471,-5.4503,-5.4503,-5.4535,-5.4952,-5.5088,-5.516,-5.5535,-5.5665,-5.5645,-5.5684,-5.5665,-5.5626,-5.5588,-5.5568,-5.5415,-5.4549,-5.4376,-5.4414,-5.4376,-5.3799,-5.3395,-5.4222,-5.3222,-5.1972,-5.1914,-5.1318,-5.0741,-5.0702,-5.0702,-5.0702,-5.0702,-5.0702,-5.0702,-5.0702,-5.0702,-5.0702,-5.0702,-5.0702,-5.0394,-4.9567,-4.9471,-4.9144,-4.8317,-4.7509,-4.7009,-4.6971,-4.6163,-4.599,-4.6778,-4.6105,-4.6009,-4.6797,-4.6086,-4.5643,-4.5586,-4.5586,-4.5586,-4.5586,-4.5586,-4.5586,-4.5603,-4.5611,-4.5863,-5.2084,-5.4412,-5.6685,-5.8443,-5.9667,-6.0456,-6.0658,-6.1796,-6.2071,-5.9446,-5.7629,-5.5904,-5.3885,-5.3683,-5.3739,-5.3555,-5.5519,-5.7152,-5.7354,-5.7391,-5.7244,-5.6859,-5.7336,-5.7464,-5.6877,-5.7336,-5.7776,-5.7978,-5.7997,-5.7997,-5.7997,-5.7997,-5.7997,-5.7997,-5.7997,-5.7703,-5.7116,-5.5721,-5.4913,-5.4693,-5.3976,-5.3672,-5.3654,-5.3555,-5.3524,-5.3563,-5.387,-5.3977,-5.4032,-5.4355,-5.4503,-5.4535,-5.4952,-5.5088,-5.516,-5.5535,-5.5318,-5.4895,-5.5491,-5.5299,-5.4703,-5.4049,-5.3837,-5.3568,-5.2106,-5.2529,-5.3395,-5.276,-5.2876,-5.326,-5.3472,-5.3203,-5.2702,-5.2049,-5.1741,-5.1433,-5.0818,-5.0702,-5.0702,-5.0702,-5.0702,-5.0702,-5.0702,-5.0702,-5.0702,-5.0702,-5.0702,-5.0606,-5.0394,-5.0356,-5.0279,-5.0048,-4.926,-4.8509,-4.7855,-4.7048,-4.6394,-4.5951,-4.6336,-4.6374,-4.5951,-4.6336,-4.6259,-4.5605,-4.5586,-4.5586,-4.5586,-4.5586,-4.5586,-4.5603,-4.5953,-4.6189,-5.3315,-5.5305,-5.7264,-5.8798,-5.9557,-5.9703,-5.8988,-5.9795,-5.9685,-5.6106,-5.4363,-5.2839,-5.0765,-5.0747,-5.1169,-5.1555,-5.3427,-5.5335,-5.6748,-5.6638,-5.6657,-5.7262,-5.7721,-5.7813,-5.7373,-5.774,-5.7997,-5.7997,-5.7997,-5.7997,-5.7997,-5.7997,-5.7997,-5.7997,-5.7997,-5.7446,-5.6271,-5.5372,-5.4564,-5.3867,-5.3427,-5.3206,-5.3206,-5.3206,-5.3206,-5.3206,-5.3462,-5.3545,-5.3584,-5.3814,-5.3925,-5.3979,-5.4369,-5.4652,-5.4838,-5.4861,-5.471,-5.4511,-5.4587,-5.4318,-5.3914,-5.3818,-5.351,-5.2953,-5.1625,-5.1875,-5.2529,-5.2049,-5.226,-5.2722,-5.3106,-5.2933,-5.251,-5.2029,-5.1625,-5.1241,-5.0798,-5.0702,-5.0702,-5.0702,-5.0991,-5.1221,-5.1221,-5.1221,-5.1221,-5.1221,-5.0933,-5.0702,-5.0702,-5.0702,-5.0702,-5.0702,-4.9913,-4.9048,-4.8182,-4.7355,-4.6701,-4.6201,-4.6278,-4.6278,-4.6163,-4.6278,-4.6105,-4.5605,-4.5586,-4.5586,-4.5586,-4.5586,-4.5586,-4.5603,-4.6088,-4.6298,-5.4028,-5.5669,-5.7093,-5.8683,-5.9022,-5.8639,-5.7024,-5.7097,-5.6381,-5.2325,-5.0949,-4.9958,-4.8288,-4.8159,-4.8618,-4.9591,-5.06,-5.2325,-5.5335,-5.5244,-5.5647,-5.774,-5.7997,-5.7997,-5.7997,-5.7997,-5.7997,-5.7997,-5.7997,-5.7997,-5.7997,-5.7997,-5.7997,-5.7997,-5.7905,-5.7116,-5.5592,-5.5482,-5.4693,-5.3206,-5.3206,-5.3206,-5.3206,-5.3206,-5.3206,-5.3206,-5.3206,-5.3206,-5.3206,-5.3206,-5.3206,-5.3248,-5.3701,-5.4078,-5.4302,-5.4017,-5.4001,-5.4087,-5.3549,-5.3145,-5.301,-5.3876,-5.3645,-5.2876,-5.201,-5.1741,-5.1741,-5.1741,-5.1741,-5.1952,-5.2799,-5.2472,-5.1914,-5.1914,-5.1375,-5.0818,-5.0721,-5.0702,-5.0702,-5.0702,-5.126,-5.1779,-5.1895,-5.1914,-5.1914,-5.1914,-5.1318,-5.0818,-5.0702,-5.0702,-5.0644,-5.0529,-4.9856,-4.899,-4.8029,-4.7298,-4.6855,-4.674,-4.6124,-4.6067,-4.6701,-4.6105,-4.572,-4.5586,-4.5586,-4.5586,-4.5586,-4.5586,-4.5586,-4.5603,-4.6021,-4.6235,-5.4139,-5.5215,-5.631,-5.7869,-5.8257,-5.7795,-5.618,-5.539,-5.3867,-4.9793,-4.8838,-4.8251,-4.6617,-4.7407,-4.8802,-5.0343,-5.238,-5.4436,-5.6326,-5.7042,-5.7519,-5.7941,-5.7997,-5.7997,-5.7997,-5.7997,-5.7997,-5.7997,-5.7997,-5.7997,-5.7997,-5.7997,-5.7997,-5.7997,-5.7354,-5.6547,-5.5592,-5.4932,-5.4124,-5.3206,-5.3206,-5.3206,-5.3206,-5.3206,-5.3206,-5.3206,-5.3206,-5.3206,-5.3206,-5.3206,-5.3206,-5.3272,-5.4067,-5.4005,-5.349,-5.414,-5.3526,-5.2549,-5.3837,-5.2895,-5.126,-5.2087,-5.226,-5.1972,-5.1164,-5.0914,-5.0914,-5.0914,-5.0914,-5.1106,-5.1914,-5.201,-5.1914,-5.1914,-5.1798,-5.151,-5.0837,-5.0702,-5.0702,-5.0702,-5.0798,-5.1125,-5.1798,-5.1914,-5.1914,-5.1914,-5.1779,-5.1452,-5.0779,-5.0702,-5.0414,-4.9702,-4.949,-4.8779,-4.724,-4.699,-4.6586,-4.5874,-4.6355,-4.6413,-4.5836,-4.6374,-4.6336,-4.5605,-4.5586,-4.5586,-4.5586,-4.5586,-4.5586,-4.5603,-4.5671,-4.5929,-5.525,-5.5724,-5.6093,-5.7619,-5.7379,-5.6106,-5.3665,-5.2454,-5.0692,-4.6636,-4.614,-4.6067,-4.4874,-4.5975,-4.7462,-4.8691,-5.0582,-5.2747,-5.5207,-5.5886,-5.6583,-5.785,-5.7997,-5.7997,-5.7997,-5.7997,-5.7997,-5.7997,-5.7997,-5.7997,-5.7997,-5.7997,-5.7997,-5.7997,-5.7629,-5.684,-5.5592,-5.5207,-5.4418,-5.3206,-5.3206,-5.3206,-5.3206,-5.3206,-5.3206,-5.3206,-5.3206,-5.3206,-5.3206,-5.3206,-5.3206,-5.3272,-5.3906,-5.4044,-5.3848,-5.3614,-5.3114,-5.2568,-5.2529,-5.1991,-5.1318,-5.1298,-5.1279,-5.1202,-5.0818,-5.0702,-5.0702,-5.0702,-5.0702,-5.0779,-5.1183,-5.1279,-5.1279,-5.1279,-5.1279,-5.1164,-5.0779,-5.0702,-5.0702,-5.0702,-5.1029,-5.1452,-5.1837,-5.1914,-5.1914,-5.1914,-5.1548,-5.1144,-5.0741,-5.0702,-5.0356,-4.949,-4.899,-4.824,-4.7009,-4.6913,-4.6528,-4.5663,-4.599,-4.6028,-4.5605,-4.599,-4.6028,-4.5605,-4.5586,-4.5586,-4.5586,-4.5586,-4.5586,-4.5586,-4.5586,-4.5861,-5.5455,-5.5842,-5.5986,-5.7198,-5.642,-5.4546,-5.1499,-4.9866,-4.7939,-4.425,-4.3993,-4.425,-4.3608,-4.4525,-4.5718,-4.6691,-4.8086,-5.0178,-5.3427,-5.4179,-5.5225,-5.7483,-5.7905,-5.7997,-5.7997,-5.7997,-5.7997,-5.7997,-5.7997,-5.7997,-5.7997,-5.7831,-5.7813,-5.7997,-5.7666,-5.6877,-5.5592,-5.5427,-5.462,-5.3206,-5.3206,-5.3206,-5.3206,-5.3206,-5.3206,-5.3206,-5.3206,-5.3206,-5.3206,-5.3206,-5.323,-5.3359,-5.3796,-5.4108,-5.4235,-5.311,-5.2794,-5.2741,-5.1414,-5.126,-5.1568,-5.1106,-5.0952,-5.0914,-5.0741,-5.0702,-5.0702,-5.0702,-5.0702,-5.0702,-5.0702,-5.0702,-5.0702,-5.0702,-5.0702,-5.0702,-5.0702,-5.0702,-5.0702,-5.0702,-5.1202,-5.1702,-5.1875,-5.1914,-5.1914,-5.1914,-5.1356,-5.0894,-5.0721,-5.0529,-5.0087,-4.9202,-4.8509,-4.7702,-4.6721,-4.6624,-4.6336,-4.5624,-4.5586,-4.5586,-4.5586,-4.5586,-4.5586,-4.5586,-4.5586,-4.5586,-4.5586,-4.5586,-4.5586,-4.5586,-4.5586,-4.58,-5.2694,-5.4157,-5.5706,-5.5893,-5.5194,-5.3867,-5.1371,-4.9003,-4.6599,-4.403,-4.3552,-4.3589,-4.3497,-4.3608,-4.4213,-4.5755,-4.6764,-4.8471,-5.1756,-5.3482,-5.5023,-5.6712,-5.7556,-5.7997,-5.7997,-5.7997,-5.7997,-5.7997,-5.7997,-5.7997,-5.7997,-5.7317,-5.7262,-5.7978,-5.6565,-5.5739,-5.5592,-5.4876,-5.4069,-5.3206,-5.3206,-5.3206,-5.3206,-5.3206,-5.3206,-5.3206,-5.3206,-5.3206,-5.3206,-5.3206,-5.3422,-5.3777,-5.4255,-5.4197,-5.3803,-5.3322,-5.2682,-5.201,-5.1856,-5.1356,-5.0914,-5.1587,-5.1798,-5.1664,-5.0914,-5.0702,-5.0702,-5.0702,-5.0702,-5.0702,-5.0702,-5.0702,-5.0702,-5.0702,-5.0702,-5.0702,-5.0702,-5.0702,-5.0702,-5.0702,-5.076,-5.1029,-5.1779,-5.1914,-5.1914,-5.1914,-5.1856,-5.1529,-5.0779,-5.001,-4.9183,-4.8317,-4.8144,-4.7451,-4.5855,-4.572,-4.5682,-4.5605,-4.5586,-4.5586,-4.5586,-4.5586,-4.5586,-4.5586,-4.5586,-4.5586,-4.5586,-4.5586,-4.5586,-4.5586,-4.5586,-4.562,-5.3989,-5.5024,-5.5827,-5.6255,-5.4301,-5.1848,-5.0398,-4.7792,-4.5259,-4.3791,-4.3497,-4.3497,-4.3497,-4.3497,-4.3699,-4.4342,0.0,0.0,-4.8673,-4.9609,-5.1353,-5.4932,-5.5647,-5.64,-5.785,-5.7997,-5.7997,-5.7997,-5.7997,-5.7795,-5.7299,-5.7428,-5.7446,-5.7281,-5.7134,-5.6565,-5.5592,-5.5757,-5.5445,-5.4638,-5.4161,-5.3922,-5.3922,-5.3427,-5.3206,-5.3206,-5.3206,-5.3206,-5.3206,-5.3206,-5.3462,-5.3851,-5.4322,-5.4522,-5.4466,-5.3539,-5.2991,-5.2549,-5.1529,-5.1298,-5.1395,-5.1221,-5.151,-5.176,-5.0933,-5.0702,-5.0702,-5.0702,-5.0702,-5.0702,-5.0702,-5.0702,-5.0702,-5.0702,-5.0702,-5.0702,-5.0702,-5.0702,-5.0702,-5.0702,-5.0702,-5.0798,-5.1125,-5.1183,-5.1183,-5.1183,-5.1183,-5.1048,-5.0741,-5.0394,-4.9856,-4.8971,-4.799,-4.6894,-4.5701,-4.5586,-4.5586,-4.5586,-4.6086,-4.6144,-4.5605,-4.6105,-4.6144,-4.5605,-4.5586,-4.5586,-4.5586,-4.5586,-4.5586,-4.5586,-4.5586,-4.5586,-5.3504,-5.4669,-5.5478,-5.5968,-5.3445,-5.0582,-4.9756,-4.704,-4.447,-4.3663,-4.3497,-4.3497,-4.3497,-4.3497,-4.3497,0.0,0.0,-4.425,-4.6452,-4.6966,-4.8563,-5.2472,-5.339,-5.4546,-5.6712,-5.7373,-5.7556,-5.7299,-5.7501,-5.7299,-5.6492,-5.7428,-5.7629,-5.684,-5.7116,-5.6859,-5.5959,-5.6271,-5.6033,-5.5225,-5.4675,-5.4289,-5.4032,-5.3463,-5.3206,-5.3206,-5.3336,-5.34,-5.34,-5.3524,-5.3833,-5.4236,-5.4547,-5.4924,-5.5134,-5.3983,-5.3414,-5.2991,-5.1548,-5.1279,-5.1452,-5.0875,-5.1087,-5.1433,-5.0856,-5.0702,-5.0702,-5.0702,-5.0702,-5.0702,-5.0702,-5.0702,-5.0702,-5.0702,-5.0702,-5.0702,-5.0702,-5.0702,-5.0702,-5.0702,-5.0702,-5.0702,-5.0702,-5.0702,-5.0702,-5.0702,-5.0702,-5.0702,-5.0702,-5.0702,-5.0356,-4.949,-4.8336,-4.7182,-4.6086,-4.597,-4.597,-4.597,-4.6567,-4.6624,-4.6009,-4.6567,-4.649,-4.5605,-4.5586,-4.5586,-4.5586,-4.5586,-4.5586,-4.5586,-4.5586,-4.5586,-4.9679,-5.2118,-5.4499,-5.4499,-5.2635,-5.0563,-4.9701,-4.7021,-4.447,-4.3663,-4.3497,-4.3497,-4.3497,-4.3497,-4.3497,-4.3497,-4.3497,0.0,-4.5681,-4.6617,-4.7719,-4.9352,-5.1022,-5.2656,-5.4271,-5.5886,-5.6492,-5.5666,-5.6363,-5.6455,-5.5647,-5.7116,-5.7629,-5.684,-5.6033,-5.5996,-5.6785,-5.5996,-5.5207,-5.4418,-5.4399,-5.3977,-5.3225,-5.3206,-5.3206,-5.3206,-5.3624,-5.3814,-5.3851,-5.4288,-5.4731,-5.5088,-5.5088,-5.5331,-5.5607,-5.478,-5.3933,-5.3068,-5.2202,-5.1375,-5.0702,-5.0702,-5.0702,-5.0702,-5.0702,-5.0702,-5.0702,-5.0702,-5.0702,-5.0702,-5.0702,-5.0702,-5.0702,-5.0702,-5.0702,-5.0702,-5.0702,-5.0702,-5.0702,-5.0702,-5.0702,-5.0702,-5.0702,-5.0702,-5.0702,-5.0702,-5.0702,-5.0702,-5.0702,-5.0702,-5.0356,-4.949,-4.9375,-4.8702,-4.7028,-4.6894,-4.6894,-4.6894,-4.6894,-4.6913,-4.6894,-4.6913,-4.649,-4.5605,-4.5586,-4.5586,-4.5586,-4.5586,-4.5586,-4.5586,-4.5586,-4.5586,-4.8125,-4.9711,-5.1152,-5.1152,-4.9267,-4.737,-4.7095,-4.5388,-4.3809,-4.3534,-4.3497,-4.3497,-4.3497,-4.3497,-4.3497,-4.3497,-4.3956,0.0,-4.4268,-4.5902,-4.7719,-4.9352,-5.2454,-5.4656,-5.5152,-5.5666,-5.5868,-5.5611,-5.5831,-5.5629,-5.4821,-5.5776,-5.5978,-5.5188,-5.651,-5.6822,-5.5978,-5.6822,-5.684,-5.6033,-5.5482,-5.4944,-5.4401,-5.3576,-5.3542,-5.4086,-5.3888,-5.3977,-5.4288,-5.4439,-5.475,-5.5088,-5.5088,-5.535,-5.5588,-5.4799,-5.4337,-5.3876,-5.2414,-5.1741,-5.1433,-5.0875,-5.0702,-5.0702,-5.0702,-5.0702,-5.0702,-5.0702,-5.0702,-5.0702,-5.0702,-5.0702,-5.0702,-5.0702,-5.0702,-5.0702,-5.0702,-5.0702,-5.0702,-5.0702,-5.0702,-5.0702,-5.0702,-5.0702,-5.0702,-5.0702,-5.0702,-5.0702,-5.0702,-5.0702,-5.0587,-5.0317,-5.0279,-4.9375,-4.7086,-4.7413,-4.749,-4.6932,-4.7432,-4.7721,-4.7721,-4.7201,-4.6778,-4.649,-4.5893,-4.5586,-4.5586,-4.5586,-4.5586,-4.5586,-4.5586,-4.5586,0.0,-4.8065,-4.9095,-4.9095,-4.748,-4.5902,-4.5902,-4.4654,-4.3497,-4.3497,-4.3497,-4.3497,-4.3497,-4.3497,-4.3497,-4.3497,-4.392,-4.4287,-4.4378,-4.5975,-4.7847,-4.9811,-5.2527,-5.4234,-5.4234,-5.4785,-5.5023,-5.4711,-5.4968,-5.4803,-5.3995,-5.4987,-5.5078,-5.3977,-5.5996,-5.6895,-5.651,-5.7189,-5.7134,-5.6345,-5.5831,-5.5141,-5.4306,-5.3557,-5.3602,-5.4221,-5.4118,-5.4322,0.0,-5.4895,-5.5088,-5.5331,-5.5331,-5.5489,-5.5645,-5.5145,-5.4761,-5.4337,-5.326,-5.2452,-5.1818,-5.1318,-5.0952,-5.0702,-5.0702,-5.0702,-5.0702,-5.0702,-5.0702,-5.0702,-5.0702,-5.0702,-5.0702,-5.0702,-5.0702,-5.0702,-5.0702,-5.0702,-5.0702,-5.0702,-5.0702,-5.0702,-5.0702,-5.0702,-5.0702,-5.0702,-5.0702,-5.0702,-5.0702,-5.0702,-5.0702,-5.0702,-5.0702,-4.9913,-4.8009,-4.8298,-4.8375,-4.7875,-4.8317,-4.8586,-4.8586,-4.8105,-4.7548,-4.6913,-4.6374,-4.5932,-4.5586,-4.5586,-4.5586,-4.5586,-4.5586,-4.5586,0.0,-4.6819,-4.7957,-4.7957,-4.6838,-4.5736,-4.5736,-4.4562,0.0,-4.3497,-4.3497,-4.3497,-4.3497,-4.3497,-4.3497,-4.3497,-4.3589,-4.4158,-4.5608,-4.6728,-4.8251,-5.06,-5.1646,-5.2087,-5.1922,-5.3371,-5.4014,-5.328,-5.3904,-5.3995,-5.3243,-5.462,-5.4766,-5.3335,-5.4675,-5.6198,-5.7813,-5.7097,-5.6345,-5.5592,-5.5537,-5.4736,-5.323,-5.323,-5.3484,-5.3905,-5.4355,-5.476,-5.5186,-5.5554,-5.5703,-5.5703,-5.5703,-5.5703,-5.5703,-5.5703,-5.5222,-5.4587,-5.4511,-5.3433,-5.2068,-5.1952,-5.1356,-5.0702,-5.0702,-5.0702,-5.0702,-5.0702,-5.0702,-5.0702,-5.0702,-5.0702,-5.0702,-5.0702,-5.0702,-5.0702,-5.0702,-5.0741,-5.0779,-5.0779,-5.0837,-5.0856,-5.0798,-5.0779,-5.076,-5.0702,-5.0702,-5.0702,-5.0702,-5.0702,-5.0702,-5.0702,-5.0702,-5.0356,-4.9548,-4.949,-4.9471,-4.9394,-4.9394,-4.9433,-4.949,-4.9375,-4.8586,-4.7028,-4.6874,-4.6413,-4.5586,-4.5586,-4.5586,-4.5586,-4.5586,-4.5586,-4.3921,0.0,-4.4617,-4.4617,-4.4342,-4.4048,0.0,0.0,-4.3497,-4.3497,0.0,-4.3497,-4.3497,-4.3497,-4.3497,-4.3497,-4.4525,-4.5241,-4.5021,-4.7847,-5.038,-5.1573,-5.2968,-5.3115,-5.1261,-5.2546,-5.3408,-5.3225,-5.339,-5.3408,-5.3225,-5.3573,-5.3867,-5.4106,-5.3904,-5.4546,-5.6143,-5.5978,-5.5776,-5.5574,-5.4968,-5.4317,-5.3663,-5.3663,-5.4065,-5.48,-5.4905,-5.5186,-5.5577,-5.5662,-5.5703,-5.5703,-5.5703,-5.5703,-5.5703,-5.5703,-5.5568,-5.5318,-5.4703,-5.4222,-5.3664,-5.2337,-5.1356,-5.0702,-5.0702,-5.0702,-5.0702,-5.0702,-5.0702,-5.0702,-5.0702,-5.0702,-5.0702,-5.0702,-5.0702,-5.0702,-5.0702,-5.1183,-5.1625,-5.1625,-5.2164,-5.2395,-5.1741,-5.1625,-5.1414,-5.0779,-5.0702,-5.0702,-5.0702,-5.0702,-5.0702,-5.0702,-5.0702,-5.0606,-5.0414,-5.0375,-5.0106,-4.9433,-4.9394,-4.9702,-5.0356,-4.9106,-4.8221,-4.7836,-4.6567,-4.5797,-4.5586,-4.5586,-4.5586,-4.5586,-4.5586,-4.5586,-4.2837,-4.3222,-4.3497,-4.3497,-4.3497,-4.3497,-4.3497,0.0,0.0,0.0,0.0,0.0,0.0,-4.3497,-4.3497,-4.3497,-4.4544,-4.5718,-4.6801,-4.882,-5.0784,-5.2362,-5.2674,-5.2527,-5.1958,-5.2692,-5.3206,-5.3206,-5.3206,-5.3206,-5.3206,-5.3206,-5.3408,-5.3849,-5.3445,-5.3977,-5.5574,-5.5225,-5.5042,-5.5042,-5.4601,-5.411,-5.3545,-5.3545,-5.3996,-5.4819,-5.4819,-5.516,-5.5703,-5.5703,-5.5703,-5.5703,-5.5703,-5.5703,-5.5703,-5.5703,-5.5703,-5.5645,-5.5203,-5.4799,-5.4203,-5.2472,-5.1606,-5.1183,-5.0798,-5.0952,-5.1241,-5.1241,-5.1548,-5.1741,-5.1356,-5.1241,-5.1164,-5.0779,-5.0702,-5.0702,-5.0702,-5.1029,-5.1471,-5.1837,-5.1991,-5.2145,-5.2452,-5.2164,-5.176,-5.1318,-5.1587,-5.1702,-5.1298,-5.1241,-5.1241,-5.1241,-5.0914,-5.0702,-5.0702,-5.0702,-5.0491,-5.0029,-4.999,-5.0202,-5.0664,-4.9779,-4.8913,-4.8125,-4.6855,-4.599,-4.5586,-4.5586,-4.5586,-4.5586,-4.5586,-4.5586,-4.2084,-4.28,-4.3332,-4.3461,-4.3497,-4.3497,-4.3497,0.0,0.0,0.0,0.0,0.0,0.0,-4.3497,-4.3497,-4.3497,-4.4488,-4.6434,-4.9848,-5.038,-5.1114,-5.2986,-5.2325,-5.2013,-5.2766,-5.3188,-5.3335,-5.3225,-5.3206,-5.3206,-5.3206,-5.3206,-5.3206,-5.3206,-5.3206,-5.3849,-5.5207,-5.4564,-5.4289,-5.4399,-5.4289,-5.3867,-5.3206,-5.3272,-5.372,-5.4503,-5.4547,-5.5007,-5.5703,-5.5703,-5.5703,-5.5703,-5.5703,-5.5703,-5.5703,-5.5703,-5.5703,-5.5703,-5.5703,-5.5164,-5.426,-5.2779,-5.2125,-5.1798,-5.1241,-5.1568,-5.2106,-5.2106,-5.2645,-5.3029,-5.2299,-5.201,-5.1741,-5.1048,-5.0779,-5.0702,-5.0702,-5.0798,-5.1125,-5.1952,-5.1664,-5.1722,-5.3145,-5.2799,-5.226,-5.2125,-5.2741,-5.2895,-5.201,-5.1914,-5.1856,-5.1741,-5.1106,-5.0702,-5.0702,-5.0702,-5.0702,-5.0702,-5.0702,-5.0702,-5.0702,-5.0433,-4.9606,-4.8125,-4.7182,-4.6336,-4.5586,-4.5586,-4.5586,-4.5586,-4.5586,-4.5586,-4.2084,-4.2396,-4.2653,-4.3314,-4.3497,-4.3497,-4.3497,0.0,0.0,0.0,0.0,0.0,0.0,-4.3497,-4.3497,-4.3497,-4.5883,-4.9132,-5.3115,-5.4234,-5.4289,-5.3335,-5.4803,-5.4656,-5.1481,-5.3023,-5.394,-5.3261,-5.3206,-5.3206,-5.3206,-5.3206,-5.3206,-5.3206,-5.3206,-5.3335,-5.3573,-5.3463,-5.3739,-5.4399,-5.372,-5.3335,-5.3206,-5.3526,-5.3996,-5.4535,-5.4867,-5.5282,-5.5703,-5.5703,-5.5703,-5.5703,-5.5703,-5.5703,-5.5703,-5.5703,-5.5703,-5.5703,-5.5703,-5.5164,-5.4453,-5.4184,-5.3106,-5.201,-5.2626,-5.2895,-5.301,-5.301,-5.3106,-5.3164,-5.3049,-5.2452,-5.1875,-5.176,-5.1202,-5.0702,-5.0702,-5.1241,-5.1972,-5.2837,-5.3491,-5.3991,-5.426,-5.4184,-5.3857,-5.3106,-5.3106,-5.2895,-5.201,-5.1914,-5.1645,-5.0952,-5.076,-5.0702,-5.0702,-5.0702,-5.0702,-5.0702,-5.0702,-5.0702,-5.0702,-4.9279,-4.8375,-4.8105,-4.6586,-4.572,-4.5586,-4.5586,-4.5586,-4.5586,-4.5586,-4.5586,-4.0781,-4.1001,-4.1295,-4.2543,-4.3167,-4.3497,-4.3497,0.0,0.0,0.0,0.0,0.0,0.0,-4.4507,-4.5369,-4.715,-4.8691,-5.0618,-5.3371,-5.3702,-5.3537,-5.3243,-5.4197,-5.4142,-5.2289,-5.35,-5.4069,-5.328,-5.3206,-5.3206,-5.3206,-5.3206,-5.3206,-5.3206,-5.3206,-5.3206,-5.3206,-5.3206,-5.339,-5.3757,-5.339,-5.3206,-5.3206,-5.3381,-5.3833,-5.4503,-5.472,-5.5007,-5.5375,-5.5375,-5.5256,-5.5061,-5.5061,-5.5186,-5.5375,-5.5375,-5.5375,-5.5375,-5.5375,-5.5282,-5.5068,-5.4645,-5.3953,-5.3203,-5.2664,-5.2837,-5.3203,-5.3203,-5.3549,-5.3799,-5.3318,-5.2549,-5.1914,-5.1914,-5.1625,-5.1356,-5.1356,-5.201,-5.2856,-5.3722,-5.3857,-5.4087,-5.4991,-5.478,-5.4357,-5.3953,-5.426,-5.4087,-5.2779,-5.2606,-5.2279,-5.1433,-5.0952,-5.0702,-5.0702,-5.0702,-5.0702,-5.0702,-5.0702,-5.0702,-5.0702,-4.9471,-4.8586,-4.8105,-4.6913,-4.6067,-4.5586,-4.5586,-4.5586,-4.5586,-4.5586,-4.5586,-3.968,-3.99,-4.023,-4.1662,0.0,-4.3259,-4.3442,-4.3644,0.0,0.0,0.0,0.0,0.0,-4.5369,-4.6911,-5.0013,-5.0986,-5.1995,-5.3794,-5.3518,-5.3353,-5.3977,-5.4051,-5.3904,-5.3537,-5.4216,-5.4271,-5.328,-5.3206,-5.3206,-5.3206,-5.3206,-5.3206,-5.3206,-5.3206,-5.3206,-5.3206,-5.3206,-5.3206,-5.3206,-5.3206,-5.3206,-5.3206,-5.3206,-5.3623,-5.4322,-5.4322,-5.4579,-5.4952,-5.4952,-5.4779,-5.4503,-5.4503,-5.4689,-5.4952,-5.4952,-5.4952,-5.4952,-5.4952,-5.516,-5.5327,-5.4714,-5.4434,-5.4076,-5.2752,-5.289,-5.3453,-5.326,-5.3837,-5.4395,-5.3914,-5.3145,-5.251,-5.251,-5.2356,-5.2202,-5.2202,-5.2741,-5.3453,-5.4337,-5.3953,-5.3972,-5.5453,-5.5184,-5.478,-5.478,-5.5299,-5.5164,-5.3683,-5.3337,-5.2876,-5.1991,-5.1183,-5.0702,-5.0702,-5.0702,-5.0702,-5.0702,-5.0702,-5.0702,-5.0702,-4.9856,-4.9086,-4.8413,-4.7605,-4.6855,-4.6182,-4.6182,-4.6182,-4.6182,-4.599,-4.5893,-3.968,-3.99,-4.0102,-4.0983,-4.1791,0.0,-4.3314,-4.4085,0.0,-4.4617,0.0,0.0,-4.4837,-4.5369,-4.6728,-4.926,-5.1573,-5.3867,-5.6216,-5.6492,-5.6492,-5.6547,-5.6547,-5.5959,-5.4454,-5.5042,-5.4858,-5.3335,-5.3206,-5.3206,-5.3206,-5.3206,-5.3206,-5.3206,-5.3206,-5.3206,-5.3206,-5.3206,-5.3206,-5.3206,-5.3206,-5.3206,-5.3206,-5.3206,-5.3462,-5.3851,-5.3851,-5.4118,-5.4535,-5.4535,-5.4535,-5.4503,-5.4503,-5.4535,-5.4535,-5.4535,-5.4535,-5.4535,-5.4535,-5.4547,-5.4579,-5.4522,-5.4211,-5.3836,-5.3703,-5.402,-5.4241,-5.3433,-5.3837,-5.4664,-5.5338,-5.4914,-5.4318,-5.4318,-5.3703,-5.3106,-5.3106,-5.3164,-5.3453,-5.4337,-5.4453,-5.4684,-5.5549,-5.5645,-5.5607,-5.5607,-5.5665,-5.5395,-5.4511,-5.3703,-5.2876,-5.1991,-5.1183,-5.0702,-5.0702,-5.0702,-5.0702,-5.0702,-5.0702,-5.0702,-5.0702,-4.9856,-4.9375,-4.9317,-4.8471,-4.799,-4.7913,-4.7913,-4.7913,-4.7894,-4.7163,-4.6817,-3.9074,-3.9515,-3.9955,-4.0286,-4.1332,0.0,0.0,-4.3773,-4.4562,-4.4066,-4.4984,0.0,-4.6177,-4.77,-4.9572,-5.1518,-5.3445,-5.5188,-5.6602,-5.6804,-5.6436,-5.5427,-5.5757,-5.5427,-5.3812,-5.4381,-5.4399,-5.3298,-5.3206,-5.3206,-5.3206,-5.3206,-5.3206,-5.3206,-5.3206,-5.3206,-5.3206,-5.3206,-5.3206,-5.3206,-5.3206,-5.3206,-5.3206,-5.3206,-5.3422,-5.3814,-5.3814,-5.3905,-5.4048,-5.4048,-5.3906,-5.3738,-5.396,-5.3906,-5.372,-5.396,-5.4048,-5.4048,-5.4048,-5.4255,-5.4503,-5.4503,-5.4371,-5.4191,-5.3884,-5.3926,-5.4054,-5.4026,-5.4241,-5.4568,-5.4876,-5.4337,-5.3837,-5.4376,-5.4241,-5.401,-5.401,-5.401,-5.4241,-5.5088,-5.4838,-5.4761,-5.5549,-5.5703,-5.5703,-5.5703,-5.5703,-5.5415,-5.4607,-5.4203,-5.3472,-5.2049,-5.1183,-5.0702,-5.0702,-5.0702,-5.0702,-5.0702,-5.0702,-5.0702,-5.0702,-4.9856,-4.9394,-4.9394,-4.8548,-4.8105,-4.8105,-4.8105,-4.8105,-4.8086,-4.7278,-4.7182,-3.8707,-3.9093,-3.957,0.0,0.0,0.0,-4.2561,-4.392,-4.4929,-4.436,-4.5333,-4.6617,-4.77,-4.9279,-5.0949,-5.2564,-5.4161,-5.5592,-5.6657,-5.6363,-5.5923,-5.5574,-5.5354,-5.4987,-5.4399,-5.4381,-5.4179,-5.3628,-5.3353,-5.3206,-5.3206,-5.3206,-5.3206,-5.3206,-5.3206,-5.3206,-5.3206,-5.3206,-5.3206,-5.3206,-5.3206,-5.3206,-5.3206,-5.3206,-5.3359,-5.3604,-5.3604,-5.3604,-5.3604,-5.3604,-5.3444,-5.3248,-5.3505,-5.3444,-5.323,-5.3505,-5.3604,-5.3604,-5.3604,-5.3796,-5.4086,-5.4086,-5.4171,-5.4204,-5.3755,-5.3895,-5.4244,-5.4444,-5.4684,-5.4876,-5.4876,-5.4434,-5.4145,-5.4741,-5.4876,-5.4876,-5.4876,-5.4876,-5.503,-5.5588,-5.5261,-5.5049,-5.5607,-5.5703,-5.5703,-5.5703,-5.5703,-5.5491,-5.4953,-5.4664,-5.3837,-5.2106,-5.1414,-5.0971,-5.0721,-5.0702,-5.0702,-5.0702,-5.0702,-5.0702,-5.0702,-5.0125,-4.9798,-4.9798,-4.9221,-4.8913,-4.8913,-4.8913,-4.8913,-4.8894,-4.8067,-4.799,-3.8707,-3.8707,-3.8909,0.0,0.0,0.0,-4.313,-4.4727,-4.5902,-4.592,-4.6562,-4.7627,-4.9279,-4.9591,-5.0123,-5.1738,-5.3353,-5.4968,-5.6565,-5.5409,-5.528,-5.7666,-5.5831,-5.5005,-5.662,-5.5317,-5.4399,-5.4399,-5.3665,-5.3206,-5.3206,-5.3206,-5.3206,-5.3206,-5.3206,-5.3206,-5.3206,-5.3206,-5.3206,-5.3206,-5.3206,-5.3206,-5.3206,-5.3206,-5.3206,-5.3206,-5.3206,-5.3206,-5.3206,-5.3206,-5.3206,-5.3206,-5.3206,-5.3206,-5.3206,-5.3206,-5.3206,-5.3206,-5.3206,-5.3206,-5.3206,-5.3206,-5.3484,-5.372,-5.3344,-5.4097,-5.5014,-5.4617,-5.5088,-5.5703,-5.5703,-5.5703,-5.5703,-5.5703,-5.5703,-5.5703,-5.5703,-5.5684,-5.5684,-5.5703,-5.5684,-5.5684,-5.5703,-5.5703,-5.5703,-5.5703,-5.5703,-5.5703,-5.5703,-5.4991,-5.3837,-5.2106,-5.1914,-5.1568,-5.076,-5.0702,-5.0702,-5.0702,-5.0721,-5.0721,-5.0702,-5.0702,-5.0702,-5.0702,-5.0702,-5.0702,-5.0702,-5.0702,-5.0702,-5.0664,-4.9798,-4.9394,-3.8707,-3.9111,0.0,-3.9827,0.0,0.0,0.0,-4.4305,0.0,0.0,-4.7792,-4.8288,-4.9389,-5.0508,-5.1426,-5.1903,-5.3353,-5.4564,-5.5042,-5.4693,-5.4454,-5.462,-5.3995,-5.3757,-5.4234,-5.3849,-5.3573,-5.3573,-5.3335,-5.3206,-5.3206,-5.3206,-5.3206,-5.3206,-5.3206,-5.3206,-5.3206,-5.3206,-5.3206,-5.3206,-5.3206,-5.3206,-5.3206,-5.3206,-5.3206,-5.3206,-5.3206,-5.3206,-5.3206,-5.3206,-5.3206,-5.3206,-5.3206,-5.3206,-5.3206,-5.3206,-5.3206,-5.3206,-5.3206,-5.3206,-5.3206,-5.3206,-5.3272,-5.3407,-5.3553,-5.4115,-5.4722,-5.4874,-5.5297,-5.5703,-5.5703,-5.5703,-5.5703,-5.5703,-5.5703,-5.5703,-5.5703,-5.5261,-5.5011,-5.5588,-5.5241,-5.503,-5.5588,-5.5703,-5.5703,-5.5703,-5.5703,-5.5703,-5.5703,-5.4991,-5.4068,-5.2953,-5.2279,-5.1568,-5.076,-5.1221,-5.1548,-5.1548,-5.2125,-5.1933,-5.0741,-5.0702,-5.0702,-5.0702,-5.0702,-5.0702,-5.0702,-5.0702,-5.0702,-5.0664,-4.9798,-4.9721,-3.9093,-3.9533,0.0,-4.0689,-4.157,-4.2598,-4.3718,0.0,0.0,-4.8379,-4.882,-4.9169,-5.0325,-5.1334,-5.2087,-5.2417,-5.3298,-5.4032,-5.4363,-5.4124,-5.3977,-5.4142,-5.3592,-5.3463,-5.4087,-5.3592,-5.3335,-5.3665,-5.339,-5.3206,-5.3206,-5.3206,-5.3206,-5.3206,-5.3206,-5.3206,-5.3206,-5.3206,-5.3206,-5.3206,-5.3206,-5.3206,-5.3206,-5.3206,-5.3206,-5.3206,-5.3206,-5.3206,-5.3206,-5.3206,-5.3206,-5.3206,-5.3206,-5.3206,-5.3206,-5.3206,-5.3206,-5.3206,-5.3206,-5.3206,-5.3206,-5.3206,-5.3206,-5.3272,-5.3701,-5.4118,-5.4579,-5.4979,-5.5399,-5.5703,-5.5703,-5.5703,-5.5703,-5.5703,-5.5703,-5.5703,-5.5703,-5.5318,-5.5126,-5.5607,-5.5299,-5.5126,-5.5607,-5.5703,-5.5703,-5.5703,-5.5703,-5.5703,-5.5703,-5.528,-5.4645,-5.3818,-5.326,-5.2606,-5.176,-5.2145,-5.2433,-5.2433,-5.2587,-5.2241,-5.1221,-5.1183,-5.1029,-5.0702,-5.0702,-5.0702,-5.0702,-5.0702,-5.0702,-5.0683,-5.0164,-5.0202,-3.9698,-3.9937,0.0,-4.1919,-4.2415,0.0,-4.4378,-4.5957,-4.7572,-4.9132,-4.9591,-5.0141,-5.161,-5.1995,-5.2325,-5.2986,-5.317,-5.3463,-5.4197,-5.3665,-5.3739,-5.5207,-5.4087,-5.3775,-5.5225,-5.4069,-5.35,-5.4234,-5.361,-5.3206,-5.3206,-5.3206,-5.3206,-5.3206,-5.3206,-5.317,-5.3096,-5.317,-5.317,-5.3096,-5.317,-5.3206,-5.3206,-5.3206,-5.3206,-5.3206,-5.3206,-5.3206,-5.3206,-5.3133,-5.3133,-5.3206,-5.3133,-5.3151,-5.3206,-5.3206,-5.3206,-5.3206,-5.3206,-5.3206,-5.3206,-5.3206,-5.3206,-5.3272,-5.3624,-5.4048,-5.4516,-5.4952,-5.5331,-5.5662,-5.5684,-5.5703,-5.5703,-5.5703,-5.5703,-5.5703,-5.5703,-5.5703,-5.5684,-5.5588,-5.5645,-5.5684,-5.5588,-5.5645,-5.5703,-5.5703,-5.5703,-5.5703,-5.5703,-5.5703,-5.5395,-5.4587,-5.4491,-5.4145,-5.328,-5.328,-5.3318,-5.3318,-5.2645,-5.2183,-5.2029,-5.1875,-5.1452,-5.0702,-5.0702,-5.0702,-5.0702,-5.0702,-5.0702,-5.0702,-5.0702,-5.0702,-3.9845,-4.0359,0.0,0.0,-4.3259,-4.4287,-4.4635,-4.5957,-4.7388,-4.8379,-4.9627,-5.0655,-5.0986,-5.2087,-5.2803,-5.2325,-5.2803,-5.328,-5.3445,-5.3316,-5.3335,-5.3683,-5.3427,-5.3353,-5.3683,-5.3408,-5.328,-5.3463,-5.3316,-5.3206,-5.3206,-5.3206,-5.3206,-5.3206,-5.3206,-5.2913,-5.2252,-5.2894,-5.2894,-5.227,-5.2913,-5.3206,-5.3206,-5.3206,-5.3206,-5.3206,-5.3206,-5.3206,-5.317,-5.2527,-5.2637,-5.3151,-5.2509,-5.2637,-5.3206,-5.3206,-5.3206,-5.3206,-5.3206,-5.3206,-5.3206,-5.3206,-5.3206,-5.3206,-5.3295,-5.3604,-5.4048,-5.4484,-5.4924,-5.5306,-5.5618,-5.5703,-5.5703,-5.5703,-5.5703,-5.5703,-5.5703,-5.5703,-5.5511,-5.4876,-5.5261,-5.5491,-5.4876,-5.528,-5.5703,-5.5703,-5.5703,-5.5703,-5.5703,-5.5703,-5.5395,-5.4587,-5.4491,-5.4145,-5.328,-5.3837,-5.4222,-5.4222,-5.4645,-5.4299,-5.2972,-5.1664,-5.0875,-5.0702,-5.0702,-5.0702,-5.0702,-5.0702,-5.0702,-5.0702,-5.0702,-5.0702,-4.0267,0.0,0.0,-4.258,0.0,-4.4709,-4.4709,-4.5663,-4.6764,-4.7572,-4.9058,-5.0215,-5.0215,-5.1224,-5.1922,-5.1481,-5.1793,-5.205,-5.205,-5.238,-5.2637,-5.2637,-5.2968,-5.3206,-5.3206,-5.3206,-5.3206,-5.3206,-5.3206,-5.3206,-5.3206,-5.2839,-5.2637,-5.2637,-5.2252,-5.1848,-5.1426,-5.1848,-5.2032,-5.1995,-5.2435,-5.2637,-5.2637,-5.3023,-5.3206,-5.3206,-5.3206,-5.3206,-5.3188,-5.2747,-5.2821,-5.317,-5.2747,-5.2839,-5.3206,-5.3206,-5.3206,-5.3206,-5.3206,-5.3206,-5.3206,-5.3206,-5.3206,-5.3206,-5.3206,-5.3484,-5.3851,-5.4083,-5.4621,-5.516,-5.5375,-5.5554,-5.5703,-5.5703,-5.5703,-5.5703,-5.5703,-5.5703,-5.5568,-5.5164,-5.5415,-5.5568,-5.5145,-5.5415,-5.5703,-5.5703,-5.5703,-5.5703,-5.5703,-5.5703,-5.553,-5.5126,-5.5068,-5.4895,-5.4434,-5.4453,-5.4664,-5.5049,-5.4318,-5.3683,-5.3222,-5.1587,-5.0702,-5.0702,-5.0702,-5.0702,-5.0702,-5.0702,-5.0702,-5.0702,-5.0702,-5.0702,-4.0543,0.0,-4.1662,-4.313,-4.3993,0.0,-4.4488,-4.5131,-4.592,-4.6746,-4.8214,-4.937,-4.937,-5.016,-5.0747,-5.0618,-5.071,-5.0802,-5.0802,-5.1371,-5.1775,-5.1775,-5.238,-5.2858,-5.2986,-5.3004,-5.3059,-5.3206,-5.3078,-5.3004,-5.3004,-5.2234,-5.1775,-5.1775,-5.1151,-5.0729,-5.0582,-5.0729,-5.1059,-5.1555,-5.172,-5.1775,-5.1811,-5.2491,-5.2803,-5.2803,-5.2931,-5.3004,-5.2986,-5.2858,-5.2968,-5.3206,-5.3059,-5.3096,-5.3206,-5.3206,-5.3206,-5.3206,-5.3206,-5.3206,-5.3206,-5.3206,-5.3206,-5.3206,-5.3206,-5.3404,-5.372,-5.3777,-5.4401,-5.5007,-5.5088,-5.5399,-5.5703,-5.5703,-5.5703,-5.5703,-5.5703,-5.5588,-5.5453,-5.5299,-5.5261,-5.5318,-5.5472,-5.5607,-5.5703,-5.5703,-5.5703,-5.5703,-5.5703,-5.5703,-5.5703,-5.5703,-5.5703,-5.5703,-5.5703,-5.5088,-5.4991,-5.5665,-5.3587,-5.2606,-5.3183,-5.1722,-5.0837,-5.0702,-5.0702,-5.0702,-5.0702,-5.0702,-5.0702,-5.0702,-5.0702,-5.0702,-3.9992,0.0,-4.2359,0.0,-4.3571,-4.3644,-4.3644,-4.4287,-4.5094,-4.5883,-4.7352,-4.8471,-4.8471,-4.9756,-5.0563,-4.9848,-5.0343,-5.0802,-5.0802,-5.0894,-5.0967,-5.0967,-5.1059,-5.1389,-5.2087,-5.216,-5.2454,-5.317,-5.2546,-5.216,-5.216,-5.1389,-5.0967,-5.0967,-5.0857,-5.0472,-4.9756,-5.0453,-5.0472,-4.9829,-5.06,-5.0967,-5.0967,-5.1077,-5.1132,-5.1169,-5.1867,-5.216,-5.2105,-5.1408,-5.194,-5.3133,-5.2435,-5.2582,-5.3206,-5.3206,-5.3206,-5.3206,-5.3206,-5.3206,-5.3206,-5.3206,-5.3206,-5.3206,-5.3206,-5.3248,-5.3359,-5.3683,-5.4187,-5.464,-5.5007,-5.5399,-5.5703,-5.5703,-5.5703,-5.5703,-5.5703,-5.5145,-5.4434,-5.3683,-5.353,-5.378,-5.453,-5.5241,-5.5703,-5.5703,-5.5703,-5.5703,-5.5703,-5.5703,-5.5703,-5.5703,-5.5703,-5.5703,-5.5703,-5.5588,-5.5588,-5.5684,-5.4722,-5.3876,-5.3241,-5.226,-5.1414,-5.0702,-5.0702,-5.0702,-5.0702,-5.0702,-5.0702,-5.0702,-5.0702,-5.0702,-4.0341,-4.1423,-4.2488,0.0,-4.3497,-4.3497,-4.3497,-4.3754,-4.4268,-4.5057,-4.5792,-4.6562,-4.748,-4.8233,-4.8471,-4.7664,-4.781,-4.8214,-4.8673,-4.9114,-4.9572,-5.0068,-5.0527,-5.0949,-5.1279,-5.1334,-5.1481,-5.183,-5.1536,-5.1334,-5.1334,-5.0563,-5.0123,-5.0123,-4.9646,-4.9224,-4.8875,-4.9224,-4.9426,-4.9499,-5.038,-5.0563,-5.0141,-5.0582,-5.0802,-5.082,-5.1169,-5.1334,-5.1334,-5.1426,-5.1628,-5.1922,-5.2472,-5.2619,-5.2582,-5.3041,-5.3206,-5.3206,-5.3206,-5.3206,-5.3206,-5.3206,-5.3206,-5.3206,-5.3206,-5.3206,-5.3248,-5.3422,-5.3758,-5.4221,-5.464,-5.5061,-5.5423,-5.564,-5.5703,-5.5703,-5.5703,-5.5068,-5.4241,-5.3376,-5.3587,-5.4049,-5.4434,-5.5164,-5.5703,-5.5703,-5.5703,-5.5703,-5.5703,-5.5703,-5.5703,-5.5703,-5.5703,-5.5703,-5.5703,-5.528,-5.5222,-5.5665,-5.4491,-5.3818,-5.3914,-5.2626,-5.1972,-5.2106,-5.1183,-5.0702,-5.0702,-5.0702,-5.0702,-5.0702,-5.0702,-5.0702,-4.0414,0.0,-4.1937,-4.2928,-4.3185,-4.324,-4.3442,-4.3497,-4.3718,-4.4544,-4.4709,-4.5076,-4.6287,-4.6673,-4.6617,-4.5993,-4.5902,-4.6104,-4.6728,-4.7315,-4.8012,-4.8857,-4.9499,-5.0031,-5.0453,-5.049,-5.0582,-5.0784,-5.0618,-5.0398,-5.0178,-4.9389,-4.8857,-4.8655,-4.8031,-4.77,-4.77,-4.7902,-4.8196,-4.86,-4.9664,-4.9738,-4.8985,-4.9793,-5.016,-5.0178,-5.0398,-5.049,-5.0563,-5.1353,-5.1334,-5.0949,-5.2362,-5.2527,-5.205,-5.2435,-5.2729,-5.2913,-5.2913,-5.2913,-5.2931,-5.3133,-5.3206,-5.3206,-5.3206,-5.3206,-5.3206,-5.3206,-5.3484,-5.3869,-5.4221,-5.464,-5.5034,-5.5446,-5.5381,-5.525,-5.5355,-5.4741,-5.3914,-5.3049,-5.3568,-5.4164,-5.4164,-5.5011,-5.5703,-5.5703,-5.5703,-5.5703,-5.5703,-5.5703,-5.5703,-5.5703,-5.5703,-5.5703,-5.5703,-5.5145,-5.5049,-5.5665,-5.4337,-5.3818,-5.4472,-5.3049,-5.2549,-5.3203,-5.1972,-5.1221,-5.0991,-5.0798,-5.0702,-5.0702,-5.0702,-5.0702,-3.9735,-3.9992,0.0,-4.1974,-4.2359,-4.2561,-4.3314,-4.3497,-4.3718,-4.4544,-4.4709,-4.4745,-4.4819,-4.5461,-4.5957,-4.5902,-4.5902,-4.5902,-4.5957,-4.5993,-4.6324,-4.715,-4.7297,-4.7921,-4.9499,-4.9646,-4.9976,-5.0747,-5.0086,-4.9297,-4.8471,-4.7682,-4.6893,-4.6122,-4.6049,-4.6012,-4.6012,-4.6783,-4.6819,-4.6104,-4.7682,-4.8012,-4.7278,-4.8067,-4.8434,-4.8489,-4.9297,-4.9646,-4.9701,-5.0527,-5.0839,-5.0875,-5.172,-5.2032,-5.1903,-5.1187,-5.1408,-5.205,-5.205,-5.205,-5.2179,-5.2968,-5.3206,-5.3206,-5.3206,-5.3206,-5.3206,-5.3206,-5.3484,-5.3814,-5.3851,-5.4187,-5.4609,-5.5034,-5.4504,-5.4008,-5.4466,-5.3876,-5.301,-5.2145,-5.2683,-5.328,-5.328,-5.4626,-5.5703,-5.5703,-5.5703,-5.5703,-5.5703,-5.5703,-5.5703,-5.5703,-5.5703,-5.5703,-5.5703,-5.5665,-5.5665,-5.5703,-5.4895,-5.4453,-5.4491,-5.3626,-5.3145,-5.3203,-5.3106,-5.2664,-5.1856,-5.1068,-5.0702,-5.0702,-5.0702,-5.0702,-3.968,0.0,0.0,-4.1258,-4.1919,-4.2378,-4.2653,-4.313,-4.3571,-4.3864,-4.392,-4.392,-4.392,-4.4599,-4.4966,-4.4433,-4.436,-4.4544,-4.5057,-4.5131,-4.5443,-4.6232,-4.6342,-4.6562,-4.7168,-4.7223,-4.7333,-4.7627,-4.7388,-4.7076,-4.6783,-4.6489,-4.6195,-4.5902,-4.5902,-4.5902,-4.5902,-4.6195,-4.6195,-4.5902,-4.6489,-4.6893,-4.7131,-4.7407,-4.7829,-4.8324,-4.8636,-4.8765,-4.882,-4.9664,-4.9701,-4.9334,-5.0692,-5.1224,-5.1187,-5.0912,-5.1316,-5.1995,-5.1995,-5.1995,-5.2123,-5.2949,-5.3206,-5.3206,-5.3206,-5.3206,-5.3206,-5.3206,-5.3295,-5.3354,-5.3107,-5.3157,-5.3447,-5.418,-5.4675,-5.5071,-5.522,-5.4626,-5.378,-5.2895,-5.3433,-5.403,-5.403,-5.4953,-5.5703,-5.5703,-5.5703,-5.5703,-5.5703,-5.5703,-5.5703,-5.5703,-5.5703,-5.5703,-5.5703,-5.5703,-5.5703,-5.5703,-5.5434,-5.5261,-5.5261,-5.4472,-5.428,-5.478,-5.376,-5.2779,-5.1914,-5.1606,-5.1202,-5.0702,-5.0702,-5.0702,-3.935,0.0,0.0,-4.0836,-4.1313,-4.1644,-4.2176,-4.2708,-4.3094,-4.3094,-4.3296,-4.3497,-4.3497,-4.3938,-4.4121,-4.3589,-4.3497,-4.3681,-4.4213,-4.4305,-4.4599,-4.5406,-4.5498,-4.5608,-4.5865,-4.5902,-4.5902,-4.5902,-4.5902,-4.5773,-4.5516,-4.5498,-4.5369,-4.5094,-4.5094,-4.5094,-4.5094,-4.5351,-4.5351,-4.5094,-4.5645,-4.6177,-4.6709,-4.6709,-4.7297,-4.8288,-4.8012,-4.8067,-4.8379,-4.9224,-4.9077,-4.8453,-4.9848,-5.0398,-5.0362,-5.0068,-5.0655,-5.1555,-5.1279,-5.1536,-5.2087,-5.2619,-5.2986,-5.3206,-5.3206,-5.3206,-5.3206,-5.3206,-5.3023,-5.2794,-5.2804,-5.3013,-5.332,-5.3585,-5.4694,-5.5626,-5.5357,-5.4876,-5.4337,-5.376,-5.4107,-5.4491,-5.4491,-5.5164,-5.5703,-5.5703,-5.5703,-5.5703,-5.5703,-5.5703,-5.5703,-5.5703,-5.5703,-5.5703,-5.5703,-5.5703,-5.5703,-5.5703,-5.5703,-5.5703,-5.5703,-5.5184,-5.5145,-5.5684,-5.4337,-5.3222,-5.2337,-5.2049,-5.1625,-5.1106,-5.0818,-5.0702,0.0,0.0,0.0,-4.0653,-4.0469,-4.0304,-4.1864,-4.2249,-4.2268,-4.2268,-4.2892,-4.3424,-4.3424,-4.3442,-4.3442,-4.3442,-4.3461,-4.3497,-4.3497,-4.3497,-4.3791,-4.458,-4.4672,-4.4984,-4.5755,-4.5828,-4.5828,-4.5828,-4.5828,-4.5498,-4.4727,-4.4672,-4.4305,-4.3516,-4.3497,-4.3497,-4.3497,-4.4268,-4.4268,-4.3516,-4.5076,-4.5847,-4.5865,-4.5883,-4.6764,-4.8233,-4.748,-4.759,-4.8379,-4.9205,-4.9058,-4.8379,-4.9224,-4.9554,-4.9481,-4.8618,-4.937,-5.0692,-4.9903,-5.0655,-5.1995,-5.2013,-5.2564,-5.3206,-5.3206,-5.3206,-5.3206,-5.3206,-5.2619,-5.216,-5.2931,-5.3758,-5.4226,-5.3396,-5.4459,-5.5472,-5.4682,-5.4511,-5.4511,-5.453,-5.453,-5.453,-5.453,-5.5184,-5.5703,-5.5703,-5.5703,-5.5703,-5.5703,-5.5703,-5.5703,-5.5703,-5.5703,-5.5703,-5.5703,-5.5703,-5.5703,-5.5703,-5.5703,-5.5703,-5.5703,-5.5703,-5.5703,-5.5703,-5.4934,-5.4126,-5.328,-5.2356,-5.1895,-5.1856,-5.1048,-5.0702,-3.8707,0.0,0.0,0.0,0.0,0.0,-4.0451,-4.102,-4.1442,-4.1442,-4.1625,-4.1772,-4.1772,-4.2249,-4.2635,-4.2635,-4.3112,-4.3497,-4.3497,-4.3497,-4.3571,-4.3809,-4.3828,-4.392,-4.414,-4.4158,-4.4158,-4.4158,-4.4158,-4.4066,-4.3828,-4.3828,-4.3718,-4.3497,-4.3497,-4.3497,-4.3497,-4.3718,-4.3718,-4.3497,-4.3938,-4.447,-4.5057,-4.5626,-4.6471,-4.7462,-4.7829,-4.8104,-4.8324,-4.8563,-4.8526,-4.8324,-4.8563,-4.904,-4.9481,-4.8618,-4.937,-5.0765,-5.0545,-5.1132,-5.2087,-5.2674,-5.3023,-5.3206,-5.3206,-5.3206,-5.3206,-5.3206,-5.2619,-5.1922,-5.1573,-5.2288,-5.3059,-5.2835,-5.4027,-5.5224,-5.4995,-5.4703,-5.4664,-5.5261,-5.5376,-5.5376,-5.5376,-5.5549,-5.5703,-5.5703,-5.5703,-5.5703,-5.5703,-5.5703,-5.5703,-5.5703,-5.5703,-5.5703,-5.5703,-5.5703,-5.5703,-5.5703,-5.5703,-5.5703,-5.5703,-5.5703,-5.5703,-5.5703,-5.5472,-5.5241,-5.4991,-5.2933,-5.1606,-5.1029,-5.0798,-5.0702,-3.8707,-3.8707,-3.8781,-3.9129,0.0,0.0,-3.9808,-4.0267,-4.0598,-4.0598,-4.0873,-4.1111,-4.1111,-4.1497,-4.1919,-4.2249,-4.269,-4.3112,-4.3442,-4.3497,-4.341,-4.3178,-4.3356,-4.341,-4.3178,-4.3375,-4.341,-4.3178,-4.3178,-4.305,-4.281,-4.3032,-4.3178,-4.3178,-4.3375,-4.3497,-4.3497,-4.3497,-4.3497,-4.3497,-4.3497,-4.392,-4.4709,-4.4837,-4.5516,-4.6617,-4.6746,-4.7186,-4.781,-4.781,-4.8012,-4.8306,-4.8306,-4.8618,-4.8985,-4.8489,-4.937,-5.0747,-5.0417,-5.1261,-5.2472,-5.227,-5.2435,-5.2637,-5.2307,-5.2215,-5.2215,-5.2215,-5.2105,-5.1811,-5.1004,-5.1933,-5.3088,-5.3088,-5.4011,-5.48,-5.4604,-5.465,-5.4933,-5.5585,-5.5434,-5.5299,-5.5645,-5.5703,-5.5703,-5.5703,-5.5703,-5.5703,-5.5703,-5.5703,-5.5703,-5.5703,-5.5703,-5.5703,-5.5703,-5.5703,-5.5703,-5.5703,-5.5703,-5.5703,-5.5703,-5.5703,-5.5703,-5.5703,-5.5376,-5.5011,-5.4645,-5.3183,-5.1837,-5.0702,-5.0702,-5.0702,-3.8707,-3.8707,0.0,-3.9588,-3.9239,0.0,-3.9588,-3.9772,-3.9772,-3.9772,-4.0341,-4.0822,-4.0771,-4.0866,-4.1196,-4.1766,-4.2148,-4.2603,-4.3387,-4.3444,-4.325,-4.275,-4.305,-4.3124,-4.2655,-4.305,-4.3124,-4.2655,-4.2616,-4.2342,-4.1853,-4.2302,-4.2616,-4.2616,-4.305,-4.3356,-4.341,-4.341,-4.3444,-4.3497,-4.3497,-4.3864,-4.4562,-4.392,-4.4397,-4.5736,-4.5112,-4.5645,-4.6985,-4.7076,-4.759,-4.8306,-4.8306,-4.8306,-4.8306,-4.8306,-4.9297,-5.0563,-4.9829,-5.1059,-5.2711,-5.1279,-5.1279,-5.172,-5.1022,-5.0802,-5.0802,-5.0802,-5.1371,-5.183,-5.1114,-5.2338,-5.372,-5.372,-5.4102,-5.4289,-5.3821,-5.4394,-5.5078,-5.5506,-5.5049,-5.4857,-5.5568,-5.5703,-5.5703,-5.5703,-5.5703,-5.5703,-5.5703,-5.5703,-5.5703,-5.5703,-5.5703,-5.5703,-5.5703,-5.5703,-5.5703,-5.5703,-5.5703,-5.5703,-5.5703,-5.5703,-5.5703,-5.5703,-5.4991,-5.4203,-5.3337,-5.326,-5.2375,-5.0818,-5.0818,-5.0779,-3.8707,-3.8707,-3.8744,-3.8891,-3.8817,0.0,-3.8909,-3.8927,-3.8927,-3.8927,-3.9056,-3.9054,-3.8604,-3.9533,-4.0113,-3.9276,-4.1121,-4.285,-4.3426,-4.3142,-4.2826,-4.2711,-4.2364,-4.2103,-4.1979,-4.2062,-4.2103,-4.1979,-4.1979,-4.1937,-4.181,-4.1895,-4.1979,-4.1979,-4.2062,-4.2364,-4.2864,-4.2864,-4.305,-4.3497,-4.3497,-4.3571,-4.3736,-4.425,-4.4654,-4.4966,-4.5461,-4.5847,-4.6177,-4.6838,-4.759,-4.8306,-4.8306,-4.8306,-4.8306,-4.8306,-4.8948,-4.9793,-4.9627,-5.0325,-5.1224,-5.0912,-5.0912,-5.1004,-5.0857,-5.0802,-5.0802,-5.0802,-5.1371,-5.1958,-5.1811,-5.2537,-5.3336,-5.3336,-5.3643,-5.3824,-5.3409,-5.3727,-5.4199,-5.4639,-5.5126,-5.5511,-5.5665,-5.5703,-5.5703,-5.5703,-5.5703,-5.5703,-5.5703,-5.5703,-5.5703,-5.5703,-5.5703,-5.5703,-5.5703,-5.5703,-5.5703,-5.5703,-5.5703,-5.5703,-5.5703,-5.5703,-5.5703,-5.5703,-5.5549,-5.5049,-5.4241,-5.3549,-5.2683,-5.1683,-5.1683,-5.1318,-3.9405,-3.9588,-3.9808,-3.9405,-3.9294,0.0,0.0,-3.8707,-3.8817,-3.9221,-3.8982,-3.8656,-3.852,-3.8814,-3.9031,-3.8972,-3.9836,-4.1038,-4.2438,-4.2675,-4.248,-4.1895,-4.181,-4.1664,-4.1402,-4.1621,-4.1664,-4.1358,-4.1105,-4.0938,-4.0938,-4.1196,-4.1358,-4.1358,-4.1621,-4.1937,-4.2262,-4.2262,-4.2559,-4.3105,-4.3105,-4.325,-4.3497,-4.392,-4.4103,-4.4158,-4.4947,-4.5535,-4.592,-4.6342,-4.6985,-4.7755,-4.8141,-4.8067,-4.7755,-4.8159,-4.8838,-4.9591,-4.9554,-5.0086,-5.0729,-5.0325,-5.0196,-5.0123,-4.9682,-4.9554,-4.9646,-5.0068,-5.0472,-5.0949,-5.1775,-5.2289,-5.2601,-5.2601,-5.2751,-5.277,-5.2348,-5.276,-5.3383,-5.4039,-5.4824,-5.5446,-5.5662,-5.5703,-5.5703,-5.5703,-5.5703,-5.5703,-5.5703,-5.5703,-5.5703,-5.5703,-5.5703,-5.5703,-5.5703,-5.5703,-5.5703,-5.5703,-5.5703,-5.5703,-5.5703,-5.5703,-5.5511,-5.5107,-5.5107,-5.4684,-5.3857,-5.3414,-5.276,-5.1895,-5.1491,-5.1087,-4.0065,-4.0377,-4.0726,-4.0065,-3.99,-3.968,0.0,0.0,0.0,-3.9533,-3.9067,-3.8583,-3.8688,-3.8223,-3.8041,-3.8654,-3.8707,-3.9241,-4.0822,-4.1801,-4.1979,-4.1041,-4.0979,-4.0971,-4.0763,-4.1196,-4.1286,-4.078,-4.0319,-4.007,-4.007,-4.0497,-4.075,-4.075,-4.1241,-4.1534,-4.1621,-4.1621,-4.1937,-4.2519,-4.2655,-4.2939,-4.3339,-4.3444,-4.3497,-4.3534,-4.4195,-4.4837,-4.5443,-4.5608,-4.5957,-4.6526,-4.7645,-4.7682,-4.7223,-4.8012,-4.8746,-4.9334,-4.9279,-4.9738,-5.0215,-4.9554,-4.9334,-4.9205,-4.8508,-4.8416,-4.8691,-4.9389,-4.9664,-5.005,-5.1408,-5.1756,-5.1756,-5.1756,-5.1756,-5.1698,-5.1361,-5.1989,-5.2829,-5.3547,-5.439,-5.5134,-5.5618,-5.5703,-5.5703,-5.5703,-5.5703,-5.5703,-5.5703,-5.5703,-5.5703,-5.5703,-5.5703,-5.5703,-5.5703,-5.5703,-5.5703,-5.5703,-5.5703,-5.5703,-5.5703,-5.5549,-5.5164,-5.4511,-5.4337,-5.3895,-5.3203,-5.3029,-5.2683,-5.2145,-5.1318,-5.0933,-3.9918,-3.9955,-4.001,-3.9918,-3.99,-3.968,-3.8891,0.0,-3.8726,-3.8817,0.0,-3.7861,-3.7484,0.0,0.0,-3.6222,-3.8067,-3.9323,-3.8461,-3.9922,-4.1041,-4.0903,-3.938,-3.8826,-4.0085,-4.0254,-4.0254,-4.0221,-4.0121,-4.007,-4.007,-4.0171,-4.0204,-4.0204,-4.0254,-4.0497,-4.0995,-4.0995,-4.1313,-4.1895,-4.244,-4.2732,-4.2826,-4.3286,-4.3497,-4.3497,-4.3589,-4.3681,-4.3828,-4.4544,-4.447,-4.4121,-4.6379,-4.7205,-4.7223,-4.8012,-4.8361,-4.8453,-4.8453,-4.8508,-4.8581,-4.8489,-4.8453,-4.8434,-4.8343,-4.8838,-4.9462,-4.9554,-5.0105,-5.071,-5.0894,-5.0949,-5.0949,-5.0949,-5.0949,-5.0977,-5.1249,-5.1989,-5.2744,-5.3157,-5.3981,-5.479,-5.5577,-5.5703,-5.5703,-5.5703,-5.5703,-5.5703,-5.5703,-5.5703,-5.5703,-5.5703,-5.5703,-5.5703,-5.5703,-5.5703,-5.5703,-5.5703,-5.5703,-5.5703,-5.5703,-5.5011,-5.4587,-5.4491,-5.3741,-5.3299,-5.3203,-5.2433,-5.2395,-5.3029,-5.2183,-5.176,-3.9928,-4.023,-4.0487,-4.001,-4.0249,-4.0396,-3.957,-3.9405,-3.9452,-3.9592,0.0,0.0,0.0,0.0,0.0,0.0,-3.7335,-3.7843,-3.7899,-3.787,-3.8482,-4.0243,-3.971,-3.9242,-3.9428,-3.9834,-3.9732,-3.8886,-3.9208,-3.9445,-3.9445,-3.9445,-3.9648,-4.007,-3.9665,-3.9576,-3.9816,-3.9816,-4.0233,-4.1162,-4.1848,-4.2541,-4.3178,-4.341,-4.3497,-4.3516,-4.3993,-4.4195,-4.4213,-4.4562,-4.4507,-4.4305,-4.5314,-4.5993,-4.6562,-4.7829,-4.8306,-4.8306,-4.8306,-4.8306,-4.8306,-4.8306,-4.8306,-4.8306,-4.8306,-4.8563,-4.8948,-4.9444,-4.9481,-4.9572,-5.0545,-5.0453,-5.0086,-5.0086,-5.0453,-5.0824,-5.0986,-5.1653,-5.2529,-5.3379,-5.384,-5.4288,-5.4905,-5.5007,-5.5007,-5.5007,-5.5007,-5.5088,-5.5331,-5.5356,-5.5446,-5.5682,-5.5703,-5.5703,-5.5703,-5.5703,-5.5703,-5.5703,-5.5261,-5.4991,-5.4991,-5.4184,-5.351,-5.301,-5.2645,-5.2222,-5.1741,-5.1375,-5.1625,-5.2433,-5.1587,-5.1202,-3.9545,-4.0005,-4.0416,-3.9831,-4.0225,-4.0561,-3.9753,-3.9603,-3.9765,-4.0108,-3.949,0.0,0.0,0.0,-3.8182,-3.7624,0.0,-3.7223,-3.7831,-3.6958,-3.7127,-3.9495,-3.9952,-3.9783,-3.9056,-3.9648,-3.9546,-3.8311,-3.87,-3.8988,-3.8988,-3.8802,-3.9123,-4.0054,-3.9377,-3.9089,-3.9292,-3.9292,-3.9709,-4.0534,-4.14,-4.2226,-4.3051,-4.3356,-4.3497,-4.3516,-4.4121,-4.4378,-4.4378,-4.4378,-4.4378,-4.4397,-4.4617,-4.5057,-4.5736,-4.7131,-4.7792,-4.7976,-4.7976,-4.7976,-4.7976,-4.7976,-4.7976,-4.8012,-4.8233,-4.8471,-4.8728,-4.9132,-4.8948,-4.8875,-4.9866,-4.9682,-4.9224,-4.9224,-4.9682,-5.0178,-5.0417,-5.1096,-5.2007,-5.3104,-5.3458,-5.372,-5.4067,-5.434,-5.4503,-5.4503,-5.4503,-5.4628,-5.4895,-5.5034,-5.5212,-5.5512,-5.5621,-5.5703,-5.5703,-5.5703,-5.5607,-5.5395,-5.4818,-5.4395,-5.4145,-5.3318,-5.2549,-5.1914,-5.1683,-5.1279,-5.0702,-5.0702,-5.0991,-5.1568,-5.0971,-5.0818,-3.8436,-3.8814,-3.9173,-3.9137,-3.9534,-3.9735,-3.8927,-3.8885,-3.9189,-3.9804,-3.968,-3.9619,-4.0148,-3.9868,-3.9093,-3.7815,-3.8157,0.0,0.0,-3.7872,-3.8125,-3.8937,-3.9648,-3.9783,-3.9056,-3.9648,-3.9766,-3.9005,-3.8988,-3.8988,-3.8988,-3.8328,-3.8599,-4.002,-3.9377,-3.9326,-4.0037,-4.0037,-4.0087,-4.012,-4.1268,-4.181,-4.1877,-4.2977,-4.3497,-4.3497,-4.3516,-4.3534,-4.3534,-4.3534,-4.3534,-4.3608,-4.4397,-4.4727,-4.4856,-4.5681,-4.6471,-4.715,-4.715,-4.715,-4.715,-4.715,-4.715,-4.7297,-4.8067,-4.8893,-4.937,-4.8563,-4.893,-4.937,-4.86,-4.8361,-4.8343,-4.8343,-4.8361,-4.8618,-4.9444,-5.027,-5.1077,-5.1908,-5.2716,-5.3206,-5.3248,-5.3943,-5.4503,-5.4503,-5.4503,-5.4503,-5.4535,-5.4867,-5.5088,-5.5134,-5.5466,-5.5703,-5.5703,-5.5703,-5.5376,-5.4587,-5.4511,-5.4126,-5.328,-5.2414,-5.1933,-5.1914,-5.1144,-5.0721,-5.0702,-5.0702,-5.0702,-5.0741,-5.0702,-5.1125,-3.8241,-3.8667,-3.8942,-3.8629,-3.8978,-3.9349,-3.9247,-3.9571,-3.9968,-4.0341,-4.0492,-4.0509,-4.0348,-4.0456,-4.0221,-3.9058,-3.9071,-3.8754,0.0,-3.7161,-3.7246,-3.7499,-3.8616,-3.9259,-3.9005,-3.9225,-3.8853,-3.7618,-3.7533,-3.7533,-3.7533,-3.7297,-3.7618,-3.8616,-3.7922,-3.7652,-3.7889,-3.7889,-3.8091,-3.8453,-4.0243,-4.1279,-4.1654,-4.2904,-4.3497,-4.3497,-4.3497,-4.3497,-4.3497,-4.3497,-4.3497,-4.3516,-4.3791,-4.3901,-4.4066,-4.5406,-4.6067,-4.6379,-4.6929,-4.7462,-4.7902,-4.7902,-4.7902,-4.7957,-4.8233,-4.8508,-4.8673,-4.8379,-4.8508,-4.8673,-4.8379,-4.8306,-4.8306,-4.8306,-4.8746,-4.9224,-4.9517,-5.0637,-5.1665,-5.194,-5.2656,-5.3206,-5.3206,-5.3422,-5.3623,-5.3623,-5.3623,-5.3758,-5.3977,-5.4168,-5.4446,-5.5034,-5.5212,-5.5399,-5.5662,-5.5203,-5.453,-5.3683,-5.3106,-5.2664,-5.2356,-5.1548,-5.1106,-5.1106,-5.0837,-5.0702,-5.0702,-5.0702,-5.0702,-5.0702,-5.0702,-5.0837,-3.8044,-3.8491,-3.8773,-3.8491,-3.8963,-3.9554,-3.972,-4.0251,-4.078,-4.1169,-4.147,-4.1611,-4.1486,-4.1732,-4.1572,-4.0387,-3.9828,-3.8813,0.0,-3.6603,-3.6772,-3.6772,-3.8091,-3.8886,-3.8633,-3.8853,-3.8379,-3.6891,-3.6772,-3.6772,-3.6772,-3.6772,-3.7246,-3.8261,-3.7567,-3.7313,-3.7567,-3.7313,-3.7376,-3.773,-3.9469,-4.0602,-4.1258,-4.2485,-4.3222,-4.3497,-4.3497,-4.3497,-4.3497,-4.3497,-4.3497,-4.3497,-4.3497,-4.3497,-4.3626,-4.4654,-4.5223,-4.5553,-4.6085,-4.6783,-4.7462,-4.7462,-4.7645,-4.7939,-4.8214,-4.8306,-4.8361,-4.8673,-4.8545,-4.8379,-4.8673,-4.8526,-4.8306,-4.8306,-4.8728,-4.9132,-4.9132,-5.0417,-5.1573,-5.1573,-5.2454,-5.3206,-5.3206,-5.3206,-5.3206,-5.3206,-5.3206,-5.3295,-5.3526,-5.372,-5.3936,-5.4175,-5.4448,-5.4664,-5.4797,-5.4337,-5.3664,-5.2799,-5.2222,-5.1779,-5.1491,-5.0683,-5.0664,-5.1568,-5.0394,-5.0221,-5.1125,-5.0221,-4.9933,-5.024,-5.024,-5.0394]}]]